[[{"header":{"parameterUnit":"m.s-1","parameterCategory":1,"la1":30.6,"la2":29.2853,"lo1":-89.7004,"lo2":-87.6739,"dy":0.0162,"dx":0.0183,"nx":112,"ny":82,"refTime":"2023-09-16T00:00:00:Z","depth":0,"parameterNumber":2,"parameterNumberName":"U-component_of_WINDS"},"data":[0.0,0.0,0.0,0.0,0.0,0.0,0.0,0.0,0.0,0.0,0.0,0.0,0.0,0.0,0.0,0.0,0.0,0.0,0.0,0.0,0.0,0.0,0.0,0.0,0.0,0.0,0.0,0.0,0.0,0.0,0.0,0.0,0.0,0.0,0.0,0.0,0.0,0.0,0.0,0.0,0.0,0.0,0.0,0.0,0.0,0.0,0.0,0.0,0.0,0.0,0.0,0.0,0.0,0.0,0.0,0.0,0.0,0.0,0.0,0.0,0.0,0.0,0.0,0.0,0.0,0.0,0.0,0.0,0.0,0.0,0.0,0.0,0.0,0.0,0.0,0.0,0.0,0.0,0.0,0.0,0.0,0.0,0.0,0.0,0.0,0.0,0.0,0.0,0.0,0.0,2.7136,3.0892,3.4611,3.6214,3.4718,3.343,3.1648,2.9153,0.0,0.0,0.0,0.0,0.0,0.0,0.0,0.0,0.0,0.0,0.0,0.0,0.0,0.0,0.0,0.0,0.0,0.0,0.0,0.0,0.0,0.0,0.0,0.0,0.0,0.0,0.0,0.0,0.0,0.0,0.0,0.0,0.0,0.0,0.0,0.0,0.0,0.0,0.0,0.0,0.0,0.0,0.0,0.0,0.0,0.0,0.0,0.0,0.0,0.0,0.0,0.0,0.0,0.0,0.0,0.0,0.0,0.0,0.0,0.0,0.0,0.0,0.0,0.0,0.0,0.0,0.0,0.0,0.0,0.0,0.0,0.0,0.0,0.0,0.0,0.0,0.0,0.0,0.0,0.0,0.0,0.0,0.0,0.0,0.0,0.0,0.0,0.0,0.0,0.0,0.0,0.0,0.0,0.0,0.0,0.0,0.0,0.0,0.0,0.0,0.0,0.0,0.0,0.0,2.7361,3.1672,3.5264,3.7094,3.6378,3.3583,3.1309,2.9989,0.0,0.0,0.0,0.0,0.0,0.0,0.0,0.0,0.0,0.0,0.0,0.0,0.0,0.0,0.0,0.0,0.0,0.0,0.0,0.0,0.0,0.0,0.0,0.0,0.0,0.0,0.0,0.0,0.0,0.0,0.0,0.0,0.0,0.0,0.0,0.0,0.0,0.0,0.0,0.0,0.0,0.0,0.0,0.0,0.0,0.0,0.0,0.0,0.0,0.0,0.0,0.0,0.0,0.0,0.0,0.0,0.0,0.0,0.0,0.0,0.0,0.0,0.0,0.0,0.0,0.0,0.0,0.0,0.0,0.0,0.0,0.0,0.0,0.0,0.0,0.0,0.0,0.0,0.0,0.0,0.0,0.0,0.0,0.0,0.0,0.0,0.0,0.0,0.0,0.0,0.0,0.0,0.0,0.0,0.0,0.0,0.0,0.0,0.0,0.0,0.0,0.0,0.0,2.7251,2.9401,3.1976,3.5,3.6621,3.6094,3.2949,3.0689,2.9973,2.7426,0.0,0.0,0.0,0.0,0.0,0.0,0.0,0.0,0.0,0.0,0.0,0.0,0.0,0.0,0.0,0.0,0.0,0.0,0.0,0.0,0.0,0.0,0.0,0.0,0.0,0.0,0.0,0.0,0.0,0.0,0.0,0.0,0.0,0.0,0.0,0.0,0.0,0.0,0.0,0.0,0.0,0.0,0.0,0.0,0.0,0.0,0.0,0.0,0.0,0.0,0.0,0.0,0.0,0.0,0.0,0.0,0.0,0.0,0.0,0.0,0.0,0.0,0.0,0.0,0.0,0.0,0.0,0.0,0.0,0.0,0.0,0.0,0.0,0.0,0.0,0.0,0.0,0.0,0.0,0.0,0.0,0.0,0.0,0.0,0.0,0.0,0.0,0.0,0.0,0.0,0.0,0.0,0.0,0.0,0.0,0.0,0.0,0.0,0.0,0.0,0.0,0.0,2.9061,3.1042,3.2259,3.468,3.5999,3.546,3.2519,3.0484,2.9973,2.6896,0.0,0.0,0.0,0.0,0.0,0.0,0.0,0.0,0.0,0.0,0.0,0.0,0.0,0.0,0.0,0.0,0.0,0.0,0.0,0.0,0.0,0.0,0.0,0.0,0.0,0.0,0.0,0.0,0.0,0.0,0.0,0.0,0.0,0.0,0.0,0.0,0.0,0.0,0.0,0.0,0.0,0.0,0.0,0.0,0.0,0.0,0.0,0.0,0.0,0.0,0.0,0.0,0.0,0.0,0.0,0.0,0.0,0.0,0.0,0.0,0.0,0.0,0.0,0.0,0.0,0.0,0.0,0.0,0.0,0.0,0.0,0.0,0.0,0.0,0.0,0.0,0.0,0.0,0.0,0.0,0.0,0.0,0.0,0.0,0.0,0.0,0.0,0.0,0.0,0.0,0.0,0.0,0.0,0.0,0.0,0.0,0.0,0.0,0.0,0.0,0.0,0.0,2.9187,3.0928,3.2747,3.4717,3.5702,3.5162,3.2976,3.1244,3.0412,2.7556,0.0,0.0,0.0,0.0,0.0,0.0,0.0,0.0,0.0,0.0,0.0,0.0,0.0,0.0,0.0,0.0,0.0,0.0,0.0,0.0,0.0,0.0,0.0,0.0,0.0,0.0,0.0,0.0,0.0,0.0,0.0,0.0,0.0,0.0,0.0,0.0,0.0,0.0,0.0,0.0,0.0,0.0,0.0,0.0,0.0,0.0,0.0,0.0,0.0,0.0,0.0,0.0,0.0,0.0,0.0,0.0,0.0,0.0,0.0,0.0,0.0,0.0,0.0,0.0,0.0,0.0,0.0,0.0,0.0,0.0,0.0,0.0,0.0,0.0,0.0,0.0,0.0,0.0,0.0,0.0,0.0,0.0,0.0,0.0,0.0,0.0,0.0,0.0,0.0,0.0,0.0,0.0,0.0,0.0,0.0,0.0,0.0,0.0,0.0,0.0,0.0,0.0,2.8466,3.0235,0.0,3.3597,3.4396,3.4534,3.1796,2.9894,2.9443,0.0,0.0,0.0,0.0,0.0,0.0,0.0,0.0,0.0,0.0,0.0,0.0,0.0,0.0,0.0,0.0,0.0,0.0,0.0,0.0,0.0,0.0,0.0,0.0,0.0,0.0,0.0,0.0,0.0,0.0,0.0,0.0,0.0,0.0,0.0,0.0,0.0,0.0,0.0,0.0,0.0,0.0,0.0,0.0,0.0,0.0,0.0,0.0,0.0,0.0,0.0,0.0,0.0,0.0,0.0,0.0,0.0,0.0,0.0,0.0,0.0,0.0,0.0,0.0,0.0,0.0,0.0,0.0,0.0,0.0,0.0,0.0,0.0,0.0,0.0,0.0,0.0,0.0,0.0,0.0,0.0,0.0,0.0,0.0,0.0,0.0,0.0,0.0,0.0,0.0,0.0,0.0,0.0,0.0,0.0,0.0,0.0,0.0,0.0,0.0,0.0,0.0,2.6741,2.8242,2.9978,0.0,3.3091,3.369,3.4031,3.102,2.9048,2.8894,0.0,0.0,0.0,0.0,0.0,0.0,0.0,0.0,0.0,0.0,0.0,0.0,0.0,0.0,0.0,0.0,0.0,0.0,0.0,0.0,0.0,0.0,0.0,0.0,0.0,0.0,0.0,0.0,0.0,0.0,0.0,0.0,0.0,0.0,0.0,0.0,0.0,0.0,0.0,0.0,0.0,0.0,0.0,0.0,0.0,0.0,0.0,0.0,0.0,0.0,0.0,0.0,0.0,0.0,0.0,0.0,0.0,0.0,0.0,0.0,0.0,0.0,0.0,0.0,0.0,0.0,0.0,0.0,0.0,0.0,0.0,0.0,0.0,0.0,0.0,0.0,0.0,0.0,0.0,0.0,0.0,0.0,0.0,0.0,0.0,0.0,0.0,0.0,0.0,0.0,0.0,0.0,0.0,0.0,0.0,0.0,0.0,0.0,0.0,0.0,0.0,0.0,2.7475,2.8713,3.0312,3.2732,3.345,3.3789,3.3789,3.0906,2.9083,0.0,0.0,0.0,0.0,0.0,0.0,0.0,0.0,0.0,0.0,0.0,0.0,0.0,0.0,0.0,0.0,0.0,0.0,0.0,0.0,0.0,0.0,0.0,0.0,0.0,0.0,0.0,0.0,0.0,0.0,0.0,0.0,0.0,0.0,0.0,0.0,0.0,0.0,0.0,0.0,0.0,0.0,0.0,0.0,0.0,0.0,0.0,0.0,0.0,0.0,0.0,0.0,0.0,0.0,0.0,0.0,0.0,0.0,0.0,0.0,0.0,0.0,0.0,0.0,0.0,0.0,0.0,0.0,0.0,0.0,0.0,0.0,0.0,0.0,0.0,0.0,0.0,0.0,0.0,0.0,0.0,0.0,0.0,0.0,0.0,0.0,0.0,0.0,0.0,0.0,0.0,0.0,0.0,0.0,0.0,0.0,0.0,0.0,0.0,0.0,0.0,0.0,0.0,2.6796,2.7859,2.9513,3.2145,3.2196,3.2348,3.3105,3.0155,2.8255,2.8255,0.0,0.0,0.0,0.0,0.0,0.0,0.0,0.0,0.0,0.0,0.0,0.0,0.0,0.0,0.0,0.0,0.0,0.0,0.0,0.0,0.0,0.0,0.0,0.0,0.0,0.0,0.0,0.0,0.0,0.0,0.0,0.0,0.0,0.0,0.0,0.0,0.0,0.0,0.0,0.0,0.0,0.0,0.0,0.0,0.0,0.0,0.0,0.0,0.0,0.0,0.0,0.0,0.0,0.0,0.0,0.0,0.0,0.0,0.0,0.0,0.0,0.0,0.0,0.0,0.0,0.0,0.0,0.0,0.0,0.0,0.0,0.0,0.0,0.0,0.0,0.0,0.0,0.0,0.0,0.0,0.0,0.0,0.0,0.0,0.0,0.0,0.0,0.0,0.0,0.0,0.0,0.0,0.0,0.0,0.0,0.0,0.0,0.0,0.0,0.0,0.0,0.0,2.6924,2.807,2.9531,3.1523,3.1854,3.1933,3.1898,2.9448,2.7755,2.739,0.0,0.0,0.0,0.0,0.0,0.0,0.0,0.0,0.0,0.0,0.0,0.0,0.0,0.0,0.0,0.0,0.0,0.0,0.0,0.0,0.0,0.0,0.0,0.0,0.0,0.0,0.0,0.0,0.0,0.0,0.0,0.0,0.0,0.0,0.0,0.0,0.0,0.0,0.0,0.0,0.0,0.0,0.0,0.0,0.0,0.0,0.0,0.0,0.0,0.0,0.0,0.0,0.0,0.0,0.0,0.0,0.0,0.0,0.0,0.0,0.0,0.0,0.0,0.0,0.0,0.0,0.0,0.0,0.0,0.0,0.0,0.0,0.0,0.0,0.0,0.0,0.0,0.0,0.0,0.0,0.0,0.0,0.0,0.0,0.0,0.0,0.0,0.0,0.0,0.0,0.0,0.0,0.0,0.0,0.0,0.0,0.0,0.0,0.0,0.0,0.0,0.0,2.7585,2.8821,2.9914,3.09,3.1981,3.2032,3.0533,2.8852,2.7525,2.6659,0.0,0.0,0.0,0.0,0.0,0.0,0.0,0.0,0.0,0.0,0.0,0.0,0.0,0.0,0.0,0.0,0.0,0.0,0.0,0.0,0.0,0.0,0.0,0.0,0.0,0.0,0.0,0.0,0.0,0.0,0.0,0.0,0.0,0.0,0.0,0.0,0.0,0.0,0.0,0.0,0.0,0.0,0.0,0.0,0.0,0.0,0.0,0.0,0.0,0.0,0.0,0.0,0.0,0.0,0.0,0.0,0.0,0.0,0.0,0.0,2.9525,0.0,0.0,0.0,0.0,0.0,0.0,0.0,0.0,0.0,0.0,0.0,0.0,0.0,0.0,0.0,0.0,0.0,0.0,0.0,0.0,0.0,0.0,0.0,0.0,0.0,0.0,0.0,0.0,0.0,0.0,0.0,0.0,0.0,0.0,0.0,0.0,0.0,0.0,0.0,0.0,0.0,2.7702,2.764,2.8407,3.075,3.0776,3.0565,3.0417,2.8852,2.7525,2.6659,2.5793,0.0,0.0,0.0,0.0,0.0,0.0,0.0,0.0,0.0,0.0,0.0,0.0,0.0,0.0,0.0,0.0,0.0,0.0,0.0,0.0,0.0,0.0,0.0,0.0,0.0,0.0,0.0,0.0,0.0,0.0,0.0,0.0,0.0,0.0,0.0,0.0,0.0,0.0,0.0,0.0,0.0,0.0,0.0,0.0,0.0,0.0,0.0,0.0,0.0,0.0,0.0,0.0,0.0,0.0,0.0,0.0,0.0,0.0,0.0,0.0,3.0856,0.0,0.0,0.0,0.0,0.0,0.0,0.0,0.0,0.0,0.0,0.0,0.0,0.0,0.0,0.0,0.0,0.0,0.0,0.0,0.0,0.0,0.0,0.0,0.0,0.0,0.0,0.0,0.0,0.0,0.0,0.0,0.0,0.0,0.0,0.0,0.0,0.0,0.0,0.0,0.0,2.8429,2.7957,2.8259,3.0167,3.0519,3.039,2.9821,2.8621,2.7525,2.6659,2.5693,0.0,0.0,0.0,0.0,0.0,0.0,0.0,0.0,0.0,0.0,0.0,0.0,0.0,0.0,0.0,0.0,0.0,0.0,0.0,0.0,0.0,0.0,0.0,0.0,0.0,0.0,0.0,0.0,0.0,0.0,0.0,0.0,0.0,0.0,0.0,0.0,0.0,0.0,0.0,0.0,0.0,0.0,0.0,0.0,0.0,0.0,0.0,0.0,0.0,0.0,0.0,0.0,0.0,3.7757,3.8238,3.8657,3.8816,3.8497,3.7739,3.6504,3.4186,3.1367,0.0,0.0,0.0,0.0,0.0,0.0,0.0,0.0,0.0,0.0,0.0,0.0,0.0,0.0,0.0,0.0,0.0,0.0,0.0,0.0,0.0,0.0,0.0,0.0,0.0,3.326,3.3342,0.0,0.0,0.0,0.0,0.0,0.0,0.0,0.0,0.0,0.0,0.0,0.0,2.9248,2.8707,2.8633,2.9861,3.0646,3.0538,2.9206,2.8486,2.7678,2.6659,2.5765,2.5263,0.0,0.0,0.0,0.0,0.0,0.0,0.0,0.0,0.0,0.0,0.0,0.0,0.0,0.0,0.0,0.0,0.0,0.0,0.0,0.0,0.0,0.0,0.0,0.0,0.0,0.0,0.0,0.0,0.0,0.0,0.0,0.0,2.9525,2.9156,0.0,0.0,0.0,0.0,0.0,0.0,0.0,0.0,0.0,0.0,0.0,0.0,0.0,3.6469,3.7315,3.9642,4.0181,3.8988,4.1912,4.2598,4.1316,4.2086,4.2382,4.2284,4.2768,0.0,3.4731,3.3429,0.0,0.0,0.0,0.0,0.0,0.0,0.0,0.0,0.0,0.0,0.0,0.0,0.0,0.0,0.0,0.0,0.0,0.0,0.0,0.0,0.0,0.0,3.4876,3.4471,3.4469,3.4281,0.0,3.2117,3.1159,3.0528,3.0494,0.0,0.0,0.0,0.0,0.0,0.0,0.0,2.9548,2.8746,2.8876,3.0871,3.0552,2.9874,2.9148,2.8986,2.8275,2.6697,2.6465,2.6304,2.6136,2.7129,0.0,0.0,0.0,0.0,0.0,0.0,0.0,0.0,0.0,0.0,0.0,0.0,0.0,0.0,0.0,0.0,0.0,0.0,0.0,0.0,0.0,0.0,0.0,0.0,0.0,0.0,0.0,0.0,0.0,3.03,3.1184,2.9329,3.1468,3.2391,0.0,0.0,0.0,0.0,0.0,0.0,0.0,0.0,0.0,3.7603,3.9373,4.07,4.1527,4.3624,4.4528,4.4259,4.574,4.6046,4.5349,4.5736,4.5907,4.5921,4.6279,4.4706,4.1703,3.9003,3.7276,3.6219,0.0,0.0,0.0,0.0,3.5156,3.5265,3.6832,3.7063,0.0,0.0,0.0,0.0,0.0,0.0,0.0,0.0,0.0,0.0,0.0,0.0,0.0,3.6288,3.6451,3.6566,3.5856,3.4865,3.3646,0.0,3.1686,3.1741,3.2282,0.0,0.0,0.0,0.0,2.9129,3.0443,2.971,2.9618,3.1142,3.0948,3.0486,2.9879,2.9371,2.8794,2.8044,2.7006,2.6333,2.6143,2.7029,2.748,0.0,0.0,0.0,0.0,0.0,0.0,0.0,0.0,0.0,0.0,0.0,0.0,0.0,0.0,0.0,0.0,0.0,0.0,0.0,0.0,0.0,0.0,0.0,0.0,0.0,0.0,0.0,0.0,3.1404,3.2481,2.9463,3.2679,3.4083,0.0,0.0,0.0,0.0,0.0,0.0,3.7584,3.9527,4.0777,4.1219,4.3508,4.5105,4.5932,4.7432,4.849,4.9067,4.9298,4.9394,4.9412,4.9182,4.9067,4.9048,4.8837,4.8298,4.7261,4.3855,4.1316,3.9476,3.8171,3.7815,3.8017,3.8262,3.8194,3.8298,4.0424,4.0872,4.0468,4.0326,0.0,3.9871,3.7736,0.0,0.0,0.0,0.0,3.8554,3.8139,3.8798,3.9337,3.8476,3.8715,3.8965,3.8309,3.7471,3.6174,0.0,3.3183,3.2966,3.3086,0.0,0.0,0.0,0.0,3.0228,3.1537,3.102,3.0896,3.1938,3.1838,3.144,3.0802,3.014,2.9563,2.9121,2.7733,2.6749,2.6314,2.7072,2.7509,2.7495,0.0,0.0,0.0,0.0,0.0,0.0,0.0,0.0,0.0,0.0,0.0,0.0,0.0,0.0,0.0,0.0,0.0,0.0,0.0,0.0,0.0,0.0,0.0,0.0,0.0,0.0,0.0,0.0,0.0,2.9475,3.4257,0.0,0.0,0.0,0.0,3.6507,3.8084,3.9411,4.0258,4.2681,4.4816,4.6471,4.8182,4.949,5.0356,5.1221,5.1683,5.1722,5.2549,5.2933,5.2935,5.2088,5.1703,5.1665,5.0914,5.0067,4.901,4.5569,4.4107,4.3724,4.1257,4.0809,4.1362,3.9815,4.021,4.1351,3.9921,3.9902,4.076,4.2384,4.2919,4.2734,4.1778,4.0939,0.0,0.0,3.9777,4.02,3.9431,4.0434,4.1577,4.1189,4.113,4.094,4.0139,3.9102,3.7631,0.0,3.4466,3.4035,3.3713,0.0,3.2526,3.1814,3.2091,3.2507,3.2788,3.2594,3.2871,3.3942,3.3301,3.2494,3.1698,3.1583,3.0852,2.9198,2.883,2.8213,2.7167,2.7905,2.8236,2.8054,2.831,0.0,0.0,0.0,0.0,0.0,0.0,0.0,0.0,0.0,0.0,0.0,0.0,0.0,0.0,0.0,0.0,0.0,0.0,0.0,0.0,0.0,0.0,0.0,0.0,0.0,0.0,0.0,0.0,3.5,3.865,0.0,3.7296,3.7834,3.8815,3.9912,4.2085,4.372,4.4566,4.7528,4.924,4.9336,5.151,5.2837,5.3145,5.3933,5.4087,5.3587,5.3895,5.3741,5.3183,5.2876,5.2741,5.2722,5.2433,5.2125,5.1702,4.9913,4.8221,4.6608,4.5189,4.4802,4.5021,4.4427,4.4566,4.5068,4.4996,4.4822,4.4435,4.3438,4.2343,4.1377,4.1058,4.1149,4.1389,4.1659,4.1947,4.222,4.245,4.2426,4.2335,4.2428,4.2298,4.2106,4.2046,4.1702,4.0959,3.9357,3.7177,3.5752,3.6354,3.4952,3.3833,3.4103,3.3377,3.3018,3.366,3.3678,3.378,3.416,3.391,3.3179,3.1814,3.1698,3.0968,2.9198,2.8422,2.7542,2.6465,2.7075,2.74,2.7326,2.8465,2.9173,0.0,0.0,0.0,0.0,0.0,0.0,0.0,0.0,0.0,0.0,0.0,0.0,0.0,0.0,0.0,0.0,0.0,0.0,0.0,0.0,0.0,0.0,0.0,0.0,0.0,0.0,3.9957,3.8958,4.2364,4.3895,4.1643,4.22,4.3162,4.4278,4.6451,4.7971,4.8567,5.126,5.2529,5.1991,5.3876,5.4895,5.4895,5.5434,5.5434,5.4895,5.4895,5.4607,5.4028,5.3759,5.3624,5.3605,5.3337,5.3203,5.3164,5.2588,5.1164,4.9298,4.849,4.7991,4.7739,4.7739,4.7739,4.7835,4.8356,4.7818,4.6621,4.4934,4.3611,4.2597,4.2311,4.2823,4.3583,4.3852,4.3948,4.3989,4.4239,4.3961,4.358,4.3513,4.3347,4.3235,4.3455,4.3066,4.242,4.1627,3.9428,3.774,3.7808,3.6541,3.5584,3.5872,3.493,3.4391,3.4968,3.4814,3.4641,3.4641,3.4641,3.3949,3.2256,3.2372,3.1564,2.9236,2.867,2.7837,2.6569,2.7023,2.7307,2.7308,2.8947,2.9945,3.0196,0.0,0.0,0.0,0.0,0.0,0.0,0.0,0.0,0.0,0.0,0.0,0.0,0.0,0.0,0.0,0.0,0.0,0.0,0.0,0.0,0.0,0.0,0.0,3.4326,3.9403,4.2618,4.101,4.5189,4.7569,4.5951,4.8029,4.9471,4.9471,5.1029,5.1972,5.1952,5.3587,5.453,5.4491,5.528,5.5703,5.5703,5.5703,5.5703,5.5703,5.5703,5.5703,5.5665,5.4895,5.453,5.4491,5.3645,5.328,5.328,5.326,5.2741,5.1894,5.1065,5.0201,4.9433,4.9471,4.9471,4.9471,4.9452,4.8355,4.6968,4.6966,4.6947,4.6775,4.593,4.6238,4.6718,4.5873,4.5605,4.5413,4.4566,4.497,4.5374,4.4528,4.4335,4.4335,4.4335,4.3047,4.1873,4.1854,4.1143,3.9906,3.7925,3.7849,3.7757,3.6911,3.6757,0.0,3.6699,3.6026,3.5545,3.5545,3.5545,3.4834,3.3083,3.3699,3.2737,2.9313,2.9614,2.9198,2.7565,2.7862,2.8088,2.8144,2.9788,3.0609,3.0602,0.0,0.0,0.0,0.0,0.0,0.0,0.0,0.0,0.0,0.0,0.0,0.0,0.0,0.0,0.0,0.0,0.0,0.0,0.0,0.0,0.0,0.0,4.0901,4.0623,4.3621,4.6354,4.7722,4.9643,5.0682,5.0221,5.0798,5.1221,5.1221,5.2818,5.351,5.2876,5.4453,5.5107,5.4511,5.528,5.5703,5.5703,5.5703,5.5703,5.5703,5.5703,5.5703,5.5684,5.5472,5.5376,5.5357,5.5126,5.5011,5.4972,5.4376,5.3991,5.3645,5.2145,5.1067,5.0413,5.0991,5.1203,5.1126,5.0529,4.9644,4.8606,4.7987,4.7773,4.7736,4.7491,4.7182,4.6833,4.6602,4.6084,4.5528,4.5297,4.5413,4.5528,4.5297,4.524,4.524,4.524,4.4374,4.3431,4.2854,4.2047,4.1069,3.9871,3.9265,3.8854,3.8623,3.8046,0.0,3.6776,3.6507,3.6372,3.6372,3.6372,3.568,3.3987,3.4064,3.2737,2.9313,2.8556,2.8044,2.7586,2.7353,2.7791,2.902,3.0411,3.094,0.0,0.0,0.0,0.0,0.0,0.0,0.0,0.0,0.0,0.0,0.0,0.0,0.0,0.0,0.0,0.0,0.0,0.0,0.0,0.0,0.0,0.0,4.227,4.5317,4.7069,4.8299,4.9682,5.1525,5.2487,5.3123,5.3472,5.3491,5.3645,5.401,5.4972,5.5318,5.4818,5.5722,5.5857,5.503,5.5453,5.5703,5.5703,5.5703,5.5703,5.5703,5.5703,5.5895,5.6222,5.5876,5.5895,0.0,5.5857,5.5703,5.5665,5.5203,5.4799,0.0,0.0,0.0,0.0,0.0,5.1682,5.1316,5.0856,5.0125,4.9317,4.8817,4.8642,4.8586,4.8203,4.803,4.7797,4.7103,4.6544,4.6065,4.5699,4.5586,4.5586,4.5586,4.5586,4.5586,4.5586,4.4913,4.4162,4.3682,4.2624,0.0,4.1123,4.0354,3.9796,3.9796,3.9084,3.8354,3.7853,3.7469,3.7103,3.6738,3.6699,3.5872,3.3833,3.3987,0.0,0.0,0.0,2.8413,2.7818,2.7548,0.0,0.0,0.0,3.1148,3.0428,0.0,0.0,0.0,3.1257,3.0684,0.0,0.0,0.0,0.0,0.0,0.0,0.0,0.0,0.0,0.0,0.0,0.0,0.0,0.0,0.0,0.0,4.6341,4.902,5.3046,5.3042,5.2869,5.3563,5.441,5.5201,5.5915,5.5992,5.6299,5.7088,5.7146,5.7146,5.7146,0.0,0.0,0.0,0.0,5.5895,5.5703,5.5895,5.5934,5.5857,5.5934,5.6395,5.7126,5.6242,5.6261,5.6956,5.6069,5.5703,5.5703,5.5703,5.528,5.4626,5.4434,5.3933,5.326,5.249,5.168,5.0964,5.0971,0.0,0.0,4.9567,4.9625,4.9509,4.8664,4.8933,4.9202,4.7508,4.6968,4.6698,4.5834,4.5586,4.5586,4.5586,4.5586,4.5586,4.5586,4.4913,4.4297,4.4297,4.3028,4.195,4.195,4.1143,4.0489,4.0489,3.9892,3.9392,3.9296,3.8623,3.7853,3.7084,0.0,0.0,3.35,3.3903,3.2872,2.9505,2.9784,2.9474,2.8145,2.822,2.8509,2.9044,3.0894,3.1321,3.0239,3.2089,3.2299,3.0939,3.0782,3.1049,0.0,0.0,0.0,0.0,0.0,0.0,0.0,0.0,0.0,0.0,0.0,0.0,0.0,0.0,0.0,4.6746,4.9958,5.2974,5.5861,5.6746,5.686,5.6332,5.7027,5.7646,5.778,5.78,5.7877,5.805,5.805,5.805,5.805,5.805,0.0,5.678,5.7434,5.7126,5.5703,5.7088,5.7434,5.6761,0.0,0.0,5.803,5.7143,5.6857,5.6958,5.609,5.5703,5.5703,5.5703,5.5607,5.5318,5.3972,5.378,5.4243,5.4071,5.3455,5.2723,5.2724,5.1722,5.0452,5.0452,5.0895,5.126,5.0452,5.0317,0.0,4.8356,4.7394,4.6698,4.5834,4.5586,4.5586,4.5586,4.5586,4.5586,4.5586,4.4913,4.4297,4.4297,4.3508,4.2854,4.2854,4.1527,4.0489,4.0489,4.0354,4.0027,3.9373,3.9142,3.8969,3.8815,3.8161,3.7179,3.5761,3.5209,3.3677,3.0741,3.0047,2.9266,2.8164,2.8933,2.9364,2.933,3.1164,3.1595,3.0538,3.2203,3.2413,3.1283,3.0632,2.9889,0.0,0.0,0.0,0.0,0.0,0.0,0.0,0.0,0.0,0.0,0.0,3.9903,0.0,0.0,4.7372,5.0757,5.3456,5.5688,5.7415,5.8357,5.8588,5.7755,5.8024,5.8316,5.8296,5.8296,5.8473,5.8877,5.8896,5.8896,5.8896,5.8896,5.8511,5.7687,5.8072,5.7877,5.7011,5.786,5.8094,5.767,5.8096,5.8517,5.8873,5.8024,5.7873,5.8187,5.7357,5.6742,5.6319,5.5876,5.5703,5.5607,5.478,5.4472,5.4512,5.4512,5.3954,5.3205,5.3186,5.2377,5.1356,5.1819,5.1665,5.1299,5.1297,5.1029,5.0337,4.8587,4.7817,4.7216,4.593,4.5586,4.5586,4.5586,4.5586,4.5586,4.5586,4.5259,4.4951,4.4951,4.4259,4.3647,4.3484,4.252,4.1643,4.1219,4.1143,4.1008,4.0604,4.0162,3.9861,3.9708,3.8925,3.7597,3.5609,3.3941,3.2353,3.0864,3.0376,2.9846,2.9181,2.9662,3.0092,3.0405,3.1321,3.1545,3.1016,3.2218,3.2213,3.1128,3.0516,3.0074,0.0,0.0,0.0,0.0,0.0,0.0,0.0,0.0,4.0197,4.2746,4.2979,4.3766,4.7222,4.9375,5.1625,5.4743,5.6492,5.7777,5.8658,5.9331,5.9469,5.8639,5.8696,5.8792,5.8777,5.8777,5.9046,5.9704,5.9742,5.9742,5.9742,5.9742,5.9377,5.8553,5.8688,5.863,5.83,5.8613,5.8693,5.8539,5.8693,5.9111,5.9719,5.8927,5.8889,5.9454,5.8646,5.7896,5.7203,5.6492,5.6107,5.5953,5.5953,5.5453,5.4722,5.472,5.4201,5.3451,5.3455,5.2877,5.2261,5.2955,5.2396,5.149,5.1814,5.1566,5.0779,4.8875,4.8221,4.7754,4.6238,4.5738,4.5586,4.5586,4.5586,4.5586,4.5586,4.5586,4.5586,4.5586,4.5028,4.4458,4.4109,4.3733,4.3152,4.2096,4.1942,4.1884,4.1711,4.1044,4.0422,4.0041,3.9221,3.7639,3.5004,3.2743,3.1327,3.1021,3.0832,3.0668,3.043,3.043,3.0742,3.1384,3.1549,3.1549,3.1384,3.221,3.2062,3.1012,3.0618,3.0614,3.3736,3.4403,0.0,3.8348,3.9092,4.0641,0.0,0.0,4.5466,4.8009,4.9644,5.0759,5.126,5.3337,5.5626,5.7552,5.863,5.9511,6.0396,6.0608,6.0319,5.9477,6.005,6.0531,6.0512,6.0512,6.055,6.0646,6.0646,6.0646,6.0646,6.0646,6.0262,5.9396,6.0108,5.9823,5.8303,5.9784,6.0131,5.9383,6.015,6.0569,6.0627,5.9758,5.9407,5.9469,5.8642,5.8242,5.8146,5.805,5.755,5.6857,5.6838,5.6319,5.5568,5.5568,5.5047,5.4355,5.4355,5.3776,5.3065,5.3186,5.3609,5.3797,5.2338,5.2377,5.2416,4.9952,4.8701,4.7889,4.7005,4.618,4.5586,4.5586,4.5586,4.5586,4.5586,4.5586,4.5586,4.5586,4.5509,4.5341,4.5006,4.4908,4.4319,4.2677,4.2409,4.2162,4.1456,4.1,4.048,3.9739,3.8867,3.7548,3.5576,3.4222,3.3151,3.2426,3.1709,3.1305,3.1256,3.1256,3.1311,3.1384,3.21,3.2118,3.1384,3.221,3.2166,3.1352,3.1225,3.0665,3.8411,0.0,0.0,0.0,4.2621,4.4633,4.8084,4.872,4.9298,5.1837,5.3299,5.428,5.4761,5.653,5.8146,0.0,5.9704,6.0377,6.0742,6.0358,5.9746,5.8899,5.913,5.9531,5.9996,6.0492,6.08,6.08,6.08,6.08,6.08,6.08,6.0627,6.0262,6.0608,6.0454,5.9765,6.0435,6.0608,6.0265,6.0627,6.08,6.0781,6.0435,6.0258,6.02,5.9358,5.9011,5.8954,5.8492,5.78,5.6992,5.6992,5.6472,5.5703,5.5703,5.5491,5.5182,5.5182,5.4662,5.4026,5.4512,5.4241,5.3622,5.2894,5.2569,5.2011,4.9971,4.9144,4.8547,4.7237,4.6621,4.6219,4.5719,4.5586,4.5586,4.5586,4.5586,4.5531,4.5342,4.5476,4.5362,4.4594,4.483,4.4718,4.3547,4.3139,4.2825,4.2526,4.1893,4.1117,4.0094,3.8697,3.732,3.6075,3.4623,3.3458,3.2669,3.2284,3.21,3.21,3.21,3.232,3.2779,3.2669,3.2669,3.2797,3.2894,3.2764,3.2437,3.1862,3.1342,4.1065,0.0,0.0,4.3724,4.639,4.8779,5.0702,5.1816,5.3046,5.5126,5.6184,5.6876,5.728,5.8531,5.9492,5.9492,6.0031,6.0435,6.0435,5.9704,5.8784,5.7706,5.7591,5.7822,5.8399,5.9646,6.055,6.0781,6.08,6.08,6.08,6.08,6.08,6.08,6.08,6.08,6.08,6.08,6.08,6.08,6.08,6.08,6.08,6.08,6.08,6.0762,6.0127,5.9858,5.9819,5.9223,5.8357,5.7357,5.7357,5.6684,5.5703,5.5703,5.5703,5.5703,5.5703,5.5318,5.4932,5.5511,5.4874,5.3832,5.362,5.2953,5.1953,5.0491,4.976,4.9067,4.7605,4.7083,4.6679,4.5815,4.5586,4.5586,4.5586,4.5586,4.5513,4.5302,4.5362,4.5182,4.4318,4.4535,4.4587,4.3974,4.3573,4.3315,4.3171,4.2133,4.111,4.028,3.8778,3.7496,3.6688,3.5514,3.4376,3.3348,3.3248,3.3111,3.2766,3.2766,3.2967,3.3429,3.2855,3.2855,3.3447,3.3136,3.3075,3.3184,3.223,3.1861,0.0,0.0,4.272,4.6904,4.9856,5.2406,5.4924,5.6191,5.7075,5.7989,5.8819,5.9146,5.8396,5.8934,5.9492,5.9492,5.9511,5.955,5.955,5.8858,5.7703,5.5972,5.5784,5.5784,0.0,5.8066,5.9892,6.0742,6.08,6.08,6.08,6.08,6.08,6.08,6.08,6.08,6.08,6.08,6.08,6.08,6.08,6.08,6.08,6.08,6.08,6.08,6.0762,6.0762,6.0762,6.0723,5.9742,5.8261,5.8261,5.7203,5.5703,5.5703,5.5703,5.5703,5.5703,5.5684,5.5665,5.5684,5.5665,5.5491,5.4701,5.3858,5.2974,5.2069,5.0644,4.9183,4.8299,4.7472,4.6679,4.5815,4.5586,4.5586,4.5586,4.5586,4.5586,4.5586,4.5322,4.4988,4.4631,4.4261,4.3912,4.3563,4.3495,4.3332,4.288,4.1151,3.995,3.9932,3.9148,3.834,3.7514,3.7434,3.667,3.5027,3.4917,3.441,3.3243,3.3178,3.2996,3.255,3.2533,3.2533,3.255,3.2517,3.2745,3.3184,3.223,3.2022,4.2829,0.0,4.7742,5.1414,5.339,5.509,5.7636,5.8443,5.8735,5.9031,5.8415,5.7569,5.6722,5.6357,5.6549,5.7646,5.8338,5.8896,5.9415,5.9281,5.805,5.5241,5.588,0.0,0.0,0.0,0.0,5.9842,5.9935,6.0185,6.0762,6.08,6.08,6.08,6.08,6.08,6.08,6.08,6.08,6.08,6.08,6.08,6.08,6.08,6.08,6.08,6.08,6.0473,5.9935,5.9935,5.93,5.8242,5.7665,5.7069,5.6492,5.5915,5.5703,5.5703,5.5703,5.5703,5.5703,5.5703,5.5703,5.5549,5.4739,5.3893,5.2951,5.1818,5.0698,4.9518,4.8064,4.7507,4.6952,4.5589,4.5436,4.5532,4.5338,4.5438,4.5531,4.5322,4.518,4.4919,4.4318,4.4087,4.3881,4.3548,4.3497,4.3437,4.3291,4.222,4.1295,4.0763,3.9974,3.8946,3.7617,3.7507,3.7019,3.5936,3.5302,3.4911,3.4736,3.4217,3.3942,3.3969,3.3492,3.3379,3.3691,3.2596,3.2264,3.2713,3.1823,3.1487,4.6236,4.8833,5.1568,5.4996,5.647,5.7574,5.9504,5.9719,5.9335,5.8745,5.7264,5.5744,5.4549,5.3433,5.3222,5.4914,5.5645,5.6511,5.7934,5.7896,5.7146,5.5568,5.5822,5.5919,0.0,0.0,0.0,5.9358,5.9781,6.0204,6.0762,6.08,6.08,6.08,6.08,6.08,6.08,6.08,6.08,6.08,6.08,6.08,6.08,6.08,6.08,6.0781,6.0473,6.0012,5.9473,5.9184,5.8588,5.778,5.7223,5.6799,5.6472,5.5915,5.5703,5.5703,5.5703,5.5703,5.5662,5.5535,5.5489,5.5374,5.4709,5.369,5.2594,5.1771,5.0734,4.9547,4.8143,4.7747,4.7414,4.6088,4.5822,4.5799,4.5597,4.5488,4.5362,4.514,4.4877,4.4561,4.4087,4.3912,4.3758,4.3548,4.3497,4.3497,4.3497,4.28,4.2103,4.1589,4.0818,3.979,3.845,3.834,3.7881,3.6798,3.6029,3.5501,3.5265,3.4599,3.4217,3.4231,3.3761,3.3561,3.3564,3.276,3.2481,3.2687,3.2209,3.2089,4.9315,5.1579,5.43,5.7621,5.9004,5.9777,6.0569,6.0027,5.8873,5.7148,5.5399,5.3628,0.0,0.0,4.9856,5.1625,5.201,5.2991,5.553,5.528,5.5357,0.0,0.0,0.0,0.0,0.0,0.0,5.9377,0.0,6.08,6.08,6.0839,6.0839,6.08,6.08,6.08,6.08,6.08,6.08,6.08,6.08,6.08,6.08,6.08,6.08,6.0742,5.9877,5.9473,5.9377,5.8569,5.7742,5.6992,5.6934,5.6453,5.5761,5.5722,5.5703,5.5703,5.5703,5.5703,5.5599,5.5212,5.5107,5.4996,5.461,5.3366,5.2039,5.2001,5.0837,4.9377,4.8418,4.8207,4.8004,4.7184,4.6611,4.6252,4.6252,4.565,4.5074,4.5074,4.4489,4.3998,4.3986,4.3693,4.3497,4.3497,4.3497,4.3497,4.3497,4.2818,4.2359,4.2304,4.1625,4.0855,4.0029,3.9918,3.9239,3.7698,3.7039,3.6143,3.4942,3.4428,3.3974,3.3525,3.3491,3.3102,3.2432,3.3068,3.3304,3.3052,3.3298,3.3639,5.3325,5.5948,5.8267,5.9768,6.0323,6.0377,5.9931,5.8673,5.6979,5.466,5.1798,4.9202,0.0,0.0,0.0,5.1433,5.3491,0.0,5.8165,5.8915,0.0,5.7165,0.0,5.7896,5.7069,5.8127,0.0,0.0,6.03,6.08,6.08,6.1416,6.1454,6.0819,6.08,6.08,6.08,6.08,6.08,6.08,6.08,6.08,6.08,6.08,6.08,6.0742,5.9877,5.9165,5.855,5.7684,5.7203,5.6934,5.628,5.628,5.6588,5.5934,5.5703,5.5703,5.5703,5.5512,5.5256,5.5134,5.4895,5.464,5.4534,5.376,5.2719,5.1794,5.1192,5.0388,4.8336,4.8259,4.8357,4.6919,4.6233,4.5836,4.5565,4.5084,4.4726,4.4726,4.4346,4.3924,4.3679,4.3582,4.3497,4.3497,4.3497,4.3497,4.3497,4.3314,4.2947,4.2359,4.2121,4.168,4.0873,4.023,3.9552,3.8731,3.7455,3.647,3.5993,3.5272,3.4947,3.5047,3.4506,3.4312,3.4461,3.3726,3.3536,3.3792,3.3536,3.3473,5.6802,5.9232,6.12,6.1324,6.1093,6.0277,5.8366,5.6575,5.4309,5.0701,4.7797,0.0,4.3679,0.0,0.0,0.0,0.0,0.0,5.7376,5.8569,5.9011,0.0,5.9165,0.0,5.9242,6.0089,6.0646,0.0,6.1089,6.1204,6.0819,6.1627,6.1685,6.0819,6.08,6.08,6.08,6.08,6.08,6.08,6.08,6.08,6.08,6.08,6.08,6.0742,0.0,5.905,5.8223,5.7357,5.6761,5.6376,5.5876,5.5992,5.6357,5.5876,5.5703,5.5662,5.5489,5.5186,5.4838,5.4838,5.4528,5.4153,5.3979,5.333,5.2512,5.1844,5.1117,5.0257,4.8898,4.8583,4.8382,4.7457,4.6922,4.6574,4.6358,4.581,4.5236,4.4722,4.4172,4.3726,4.3548,4.3497,4.3497,4.3497,4.3497,4.3497,4.3497,4.3497,4.3314,4.2873,4.2818,4.2506,4.1699,4.1203,4.0547,3.9643,3.8223,3.7264,3.6884,3.5899,3.5471,3.5605,3.5199,3.4941,3.4881,3.4533,3.4313,3.4281,3.4347,3.4387,5.9782,6.1632,6.3099,6.2324,6.1377,5.9796,5.6514,5.4107,5.122,4.6446,0.0,4.2097,4.0481,4.0431,4.1816,4.5355,0.0,5.1241,5.5588,5.6857,5.8184,6.0512,6.0223,6.0396,6.1781,6.2031,6.205,6.1935,6.2031,6.1704,6.0839,6.1627,6.1685,6.0819,6.08,6.08,6.08,6.08,6.08,6.08,6.08,6.08,6.08,6.08,6.08,6.0742,0.0,0.0,5.8377,5.7396,5.6549,5.5857,5.5742,5.5703,5.5703,5.5703,5.5703,5.564,5.5237,5.4838,5.4503,5.4439,5.4102,5.3663,5.3295,5.2711,5.2142,5.2013,5.0986,4.9848,4.9646,4.904,4.8434,4.8343,4.7867,4.7478,4.759,4.694,4.6042,4.5055,4.4213,4.3644,4.3644,4.3552,4.3497,4.3497,4.3497,4.3497,4.3497,4.3497,4.3497,4.3497,4.3497,4.3222,4.2525,4.2273,4.1611,4.0345,3.9121,3.8128,3.7431,3.6348,3.5723,3.5622,3.5622,3.5301,3.4641,3.5301,3.5284,3.4658,3.5318,3.5622,6.2086,6.2959,6.3136,6.2439,6.108,5.9046,5.5813,5.2091,0.0,0.0,4.1721,3.9711,3.8633,4.0142,4.2912,4.7009,0.0,0.0,0.0,0.0,5.9492,0.0,0.0,0.0,0.0,0.0,0.0,0.0,0.0,6.1704,6.0839,6.1627,6.1685,6.0819,6.08,6.08,6.08,6.08,6.08,6.08,6.08,6.08,6.08,6.08,6.08,6.0742,5.9877,0.0,5.9165,5.7627,5.6896,5.6684,5.5972,5.5703,5.5703,5.5703,5.5703,5.564,5.5237,5.4838,5.4439,5.4048,5.3643,5.3295,5.3206,5.3115,5.2858,5.2179,5.1793,5.1261,4.9939,4.9481,4.9187,4.8471,4.7243,4.6378,4.7059,4.6562,4.5936,4.5718,4.5039,4.4488,4.4488,4.3938,4.3497,4.3497,4.3497,4.3497,4.3497,4.3497,4.3497,4.3497,4.3497,4.3424,4.3296,4.2232,4.1301,4.0633,3.9315,3.8069,3.6956,3.6729,3.6282,3.5639,3.5622,3.5554,3.5419,3.5554,3.5554,3.5419,3.5554,3.5622,6.3012,6.4007,6.4462,6.3265,6.1058,5.8079,5.3915,0.0,0.0,0.0,3.9282,3.7814,3.6867,3.8777,0.0,0.0,0.0,0.0,0.0,0.0,0.0,0.0,0.0,0.0,0.0,0.0,0.0,0.0,0.0,6.1704,6.0839,6.1204,6.1223,6.08,6.08,6.08,6.08,6.08,6.08,6.08,6.08,6.08,6.08,6.08,6.08,6.0781,6.0358,0.0,5.9415,5.8184,5.7396,5.6896,5.603,5.5703,5.5662,5.5446,5.5399,5.5306,5.4652,5.4303,5.4048,5.3643,5.3359,5.3206,5.3206,5.3206,5.3133,5.2729,5.2307,5.172,5.0527,4.9903,4.937,4.8508,4.7719,4.726,4.7645,4.7095,4.6526,4.6526,4.5883,4.5333,4.5333,4.5002,4.4745,4.4745,4.4397,4.4121,4.4121,4.3754,4.3497,4.3497,4.325,4.3087,4.3087,4.2181,4.1392,4.0841,3.9834,3.8677,3.7428,3.6992,3.6417,3.5639,3.5622,3.5622,3.5622,3.5622,3.5622,3.5622,3.5622,3.5622,6.3514,6.4814,6.5702,6.4035,6.1023,5.7148,5.2129,4.7422,0.0,0.0,3.7295,3.6406,3.5641,0.0,3.9411,0.0,0.0,0.0,0.0,0.0,0.0,0.0,0.0,0.0,0.0,0.0,0.0,0.0,0.0,0.0,6.0839,6.08,6.08,6.08,6.08,6.08,6.08,6.08,6.08,6.08,6.08,6.08,6.08,6.08,6.08,6.08,6.08,0.0,0.0,5.8704,5.7896,5.7165,5.6022,5.5577,5.5512,5.5134,5.4979,5.4848,5.4065,5.3814,5.372,5.3336,5.3206,5.3206,5.3206,5.3206,5.3206,5.3206,5.2619,5.1848,5.1224,5.0453,4.9572,4.8545,4.8434,4.8489,4.8122,4.77,4.737,4.737,4.6728,4.6159,4.6159,4.6012,4.5902,4.5902,4.5369,4.4892,4.4727,4.4158,4.3646,4.3358,4.2939,4.2711,4.2711,4.2021,4.1402,4.0949,4.0227,3.926,3.7939,3.733,3.6569,3.5639,3.5622,3.5622,3.5622,3.5622,3.5622,3.5622,3.5622,3.5622,6.4064,6.5257,6.5713,6.4177,6.072,5.6406,5.1426,0.0,4.1558,3.7877,3.6422,3.5757,3.5545,3.6295,0.0,0.0,0.0,4.649,0.0,0.0,0.0,0.0,0.0,0.0,0.0,0.0,0.0,0.0,0.0,0.0,6.08,6.08,6.08,6.08,6.08,6.08,6.08,6.08,6.08,6.08,6.08,6.08,6.08,6.08,6.08,6.08,6.08,0.0,0.0,5.8954,5.8261,5.7989,5.5957,5.516,5.5107,5.4701,5.4566,5.4484,5.3977,5.3814,5.372,5.3336,5.3206,5.3206,5.3206,5.3206,5.3206,5.3206,5.2619,5.1977,5.1903,5.1279,5.0288,4.8691,4.8893,4.9058,4.7553,4.7737,4.8196,4.8196,4.7553,4.7003,4.7003,4.6379,4.5902,4.5902,4.5847,4.5535,4.48,4.4654,4.4108,4.2899,4.275,4.2711,4.2711,4.1621,4.0949,4.0903,4.0397,3.9442,3.7973,3.7838,3.7127,3.5656,3.5622,3.5622,3.5622,3.5622,3.5622,3.5622,3.5622,3.5622,6.2611,6.4718,6.591,6.4364,6.0469,5.5801,5.123,0.0,4.0819,3.7758,3.6373,3.568,3.5584,3.618,3.7315,0.0,0.0,0.0,4.8644,0.0,0.0,0.0,0.0,0.0,0.0,0.0,0.0,0.0,0.0,0.0,6.08,6.08,6.08,6.08,6.08,6.08,6.08,6.08,6.08,6.08,6.08,6.08,6.08,6.08,6.08,6.08,6.08,0.0,0.0,5.8992,5.8127,5.7704,5.5828,5.4952,5.4727,5.48,5.4495,5.4088,5.4121,5.385,5.3422,5.323,5.3206,5.3206,5.3206,5.3206,5.3206,5.3206,5.2968,5.2619,5.2123,5.1389,5.0637,4.9958,4.9701,4.9407,4.8746,4.8434,4.8306,4.8306,4.8049,4.7829,4.7829,4.7572,4.7352,4.7352,4.6929,4.6526,4.6214,4.5314,4.4382,4.3511,4.2669,4.2021,4.1664,4.0891,4.0417,4.0417,4.0204,3.9631,3.8599,3.8142,3.7175,3.5688,3.5643,3.5407,3.4988,3.4988,3.5207,3.5577,3.5207,3.5459,6.0194,6.3199,6.5265,6.3715,5.9551,5.4707,0.0,0.0,4.0039,3.7315,3.6202,3.5662,3.5597,3.5988,3.6719,0.0,0.0,4.1258,4.5874,4.7163,0.0,0.0,0.0,0.0,0.0,0.0,0.0,0.0,0.0,0.0,0.0,6.08,6.08,6.08,6.08,6.08,6.08,6.08,6.08,6.08,6.08,6.08,6.08,6.08,6.08,6.08,0.0,0.0,0.0,5.8842,5.8055,5.7749,5.5825,5.4887,5.4653,5.4801,5.4311,5.3639,5.3939,5.3683,5.3206,5.3206,5.3206,5.3206,5.3206,5.3206,5.3206,5.3206,5.3206,5.3078,5.2509,5.194,5.1463,5.1206,5.0527,4.9884,4.9627,4.8912,4.8306,4.8306,4.8306,4.8306,4.8306,4.8306,4.8306,4.8306,4.7829,4.7388,4.715,4.5773,4.4487,4.3706,4.2381,4.1358,4.0949,4.0417,4.007,4.007,4.007,3.9581,3.8404,3.7866,3.687,3.5379,3.5116,3.4851,3.4595,3.4382,3.4659,3.5274,3.4835,3.5404,5.6931,6.0566,6.3457,6.1914,5.7754,5.2891,0.0,0.0,3.9116,3.6292,3.5703,3.5663,3.5522,3.5526,3.6065,3.7738,0.0,0.0,4.5124,0.0,0.0,0.0,0.0,0.0,0.0,0.0,0.0,0.0,0.0,0.0,0.0,6.08,6.08,6.08,6.08,6.08,6.08,6.08,6.08,6.08,6.08,6.08,6.08,6.08,6.08,0.0,0.0,0.0,0.0,5.8475,5.8063,5.8548,5.6007,5.5006,5.4949,5.4557,5.3904,5.3206,5.3225,5.3225,5.3206,5.3206,5.3206,5.3206,5.3206,5.3206,5.3206,5.3206,5.3206,5.3206,5.3206,5.3188,5.2986,5.2179,5.1371,5.0563,4.9756,4.8912,4.8306,4.8306,4.8306,4.8306,4.8306,4.8306,4.8306,4.8306,4.8306,4.8012,4.7223,4.5924,4.4574,4.3162,4.1751,4.0903,4.0903,4.0417,4.007,4.007,4.007,3.911,3.6918,3.6801,3.6133,3.4654,3.395,3.3934,3.4622,3.3918,3.3934,3.4606,3.4611,3.5404,5.0698,5.365,5.5703,5.416,5.168,4.8652,4.4902,4.1818,3.9015,3.6381,3.5728,3.5616,3.5578,3.5545,3.6238,3.8527,3.9796,0.0,0.0,0.0,0.0,0.0,0.0,0.0,0.0,0.0,0.0,0.0,0.0,0.0,0.0,6.08,6.08,6.08,6.08,6.08,6.08,6.08,6.08,6.08,6.08,6.08,6.08,6.08,0.0,0.0,0.0,0.0,0.0,5.9087,5.8413,5.8159,5.5901,5.483,5.4654,5.5073,5.4363,5.3371,5.4454,5.4124,5.3206,5.3206,5.3206,5.3206,5.3206,5.3206,5.3206,5.3206,5.3206,5.3206,5.3206,5.3206,5.3151,5.2894,5.1426,5.0307,5.1069,4.9802,4.8635,4.918,4.92,4.9032,4.8532,4.836,4.8172,4.7756,4.7656,4.7422,4.6703,4.5749,4.4847,4.4012,4.3093,4.1905,4.0453,4.0204,3.985,3.9315,3.9262,3.871,3.7543,3.6987,3.6286,3.529,3.5078,3.4809,3.4513,3.3881,3.3662,3.3897,3.587,3.6786,0.0,4.8553,5.0742,4.9512,4.7656,0.0,0.0,3.9799,3.7617,3.5361,3.4988,3.5103,3.5084,3.5315,3.6238,3.845,3.9758,0.0,0.0,0.0,0.0,0.0,0.0,0.0,0.0,0.0,0.0,0.0,0.0,0.0,0.0,6.08,6.08,6.08,6.08,6.08,6.08,6.08,6.08,6.08,6.08,6.08,6.08,6.08,0.0,0.0,0.0,0.0,0.0,5.9111,5.8519,5.8201,5.6065,5.5064,5.4876,5.506,5.4326,5.3353,5.4344,5.4051,5.3206,5.3206,5.3206,5.3206,5.3206,5.3206,5.3206,5.3206,5.3206,5.3206,5.3206,5.3206,5.3103,5.2831,5.1447,5.0389,5.1049,4.9838,4.8701,4.888,4.8874,4.8591,4.785,4.7648,4.747,4.7088,4.6999,4.6864,4.6478,4.5505,4.476,4.4451,4.3509,4.2227,4.0646,4.051,4.0033,3.8978,3.8908,3.8339,3.7001,3.6516,3.5947,3.5202,3.4957,3.4725,3.4514,3.4086,3.3867,3.395,3.5967,3.7005,0.0,4.457,4.7441,4.6758,0.0,0.0,0.0,0.0,0.0,3.3564,3.3789,3.4308,3.4372,3.5045,3.618,3.7988,3.9585,0.0,0.0,0.0,0.0,0.0,0.0,0.0,0.0,0.0,0.0,0.0,0.0,0.0,0.0,6.08,6.08,6.08,6.08,6.08,6.08,6.08,6.08,6.08,6.08,6.08,6.08,6.08,0.0,0.0,0.0,0.0,0.0,5.8778,5.8408,5.8412,5.6405,5.5556,5.5409,5.4675,5.3904,5.3225,5.328,5.3261,5.3206,5.3206,5.3206,5.3206,5.3206,5.3206,5.3206,5.3206,5.3206,5.3206,5.3206,5.3164,5.2937,5.2271,5.1387,5.0623,5.0125,4.9303,4.8511,4.7908,4.7749,4.7497,4.6636,4.6507,4.6436,4.6336,4.6336,4.6318,4.62,4.5169,4.4369,4.4317,4.3218,4.2134,4.1287,4.1169,4.0467,3.8903,3.8799,3.781,3.5701,3.561,3.5278,3.461,3.3948,3.3918,3.4472,3.4532,3.4545,3.4546,3.5241,3.6358,3.4042,0.0,3.7773,3.6934,3.6777,3.6484,0.0,0.0,0.0,0.0,0.0,0.0,0.0,3.6276,3.7411,4.0431,0.0,4.2085,0.0,0.0,0.0,0.0,0.0,0.0,0.0,0.0,0.0,0.0,0.0,0.0,0.0,6.08,6.08,6.08,6.08,6.08,6.08,6.08,6.08,6.08,6.08,6.08,6.08,6.08,0.0,0.0,0.0,0.0,6.0055,5.9403,5.8577,5.7649,5.6184,5.5207,5.4656,5.4473,5.3904,5.3298,5.3904,5.372,5.3206,5.3206,5.3206,5.3206,5.3206,5.3206,5.3206,5.3206,5.3206,5.3206,5.3206,5.2769,5.2317,5.2159,5.072,4.9662,5.0627,4.9785,4.8953,4.9371,4.9398,4.8955,4.7614,4.7345,4.6945,4.587,4.5681,4.5337,4.4213,4.4377,4.432,4.3724,4.3885,4.325,4.1338,4.0707,3.9715,3.8141,3.7483,3.666,3.5555,3.5555,3.5428,3.5265,3.5115,3.4861,3.4472,3.4996,3.5018,3.4529,3.5769,3.6849,3.1344,3.3281,3.5176,3.4707,3.4941,3.5078,3.4199,0.0,0.0,0.0,0.0,0.0,0.0,0.0,0.0,0.0,0.0,0.0,0.0,0.0,0.0,0.0,0.0,0.0,0.0,0.0,0.0,0.0,0.0,0.0,0.0,6.08,6.08,6.08,6.08,6.08,6.08,6.08,6.08,6.08,6.08,6.08,6.08,6.08,6.08,0.0,0.0,0.0,5.9703,5.8888,5.7993,5.7038,5.5613,5.4785,5.4363,5.3995,5.3573,5.328,5.3702,5.3573,5.3206,5.3206,5.3206,5.3133,5.2766,5.2656,5.2729,5.3115,5.2937,5.2725,5.2725,5.2177,5.1544,5.1223,5.0221,4.953,5.0003,4.951,4.898,4.9049,4.901,4.8522,4.7009,4.6734,4.6236,4.4742,4.4512,4.408,4.2907,4.3162,4.3244,4.2789,4.3162,4.2637,4.075,3.9909,3.8818,3.7326,3.6843,3.6275,3.5504,3.5504,3.5504,3.5504,3.5504,3.5325,3.4951,3.5325,3.531,3.4966,3.5713,3.6707,3.0735,3.3408,3.6009,3.5351,3.5312,3.5234,3.4492,0.0,0.0,0.0,0.0,0.0,0.0,0.0,0.0,0.0,0.0,0.0,0.0,0.0,0.0,0.0,0.0,0.0,0.0,0.0,0.0,0.0,0.0,0.0,0.0,6.0666,6.0589,6.0589,6.0589,6.0589,6.0589,6.0723,6.08,6.08,6.08,6.0723,6.0608,6.0742,6.0723,6.0565,0.0,0.0,5.9128,5.7978,5.7066,5.6308,5.4932,5.4326,5.4124,5.3463,5.3206,5.3206,5.3206,5.3206,5.3206,5.3206,5.3206,5.3078,5.238,5.2087,5.2142,5.2821,5.2587,5.2062,5.2076,5.1593,5.0929,5.0185,4.9919,4.9664,4.9107,4.9001,4.8832,4.8206,4.8088,4.7648,4.6278,4.5807,4.5161,4.3707,4.3251,4.2798,4.1917,4.1933,4.1965,4.1853,4.1933,4.1358,3.9813,3.9078,3.8072,3.6523,3.6446,3.6165,3.5504,3.5504,3.5504,3.5504,3.5504,3.5504,3.5504,3.5504,3.5504,3.5504,3.5619,3.643,3.1409,3.4187,3.5985,3.2412,3.2148,3.2754,3.2617,0.0,0.0,0.0,0.0,0.0,0.0,0.0,0.0,0.0,0.0,0.0,0.0,0.0,0.0,0.0,0.0,0.0,0.0,0.0,0.0,0.0,0.0,0.0,0.0,6.0108,5.9704,5.9704,5.9704,5.9704,5.9704,6.0435,6.08,6.08,6.08,6.0416,5.9723,6.0454,6.0396,5.97,0.0,5.9456,5.8352,5.7753,5.6399,5.4748,5.4509,5.3977,5.339,5.3261,5.3206,5.3206,5.3206,5.3206,5.3206,5.3206,5.3206,5.3188,5.3059,5.2546,5.2013,5.2142,5.2119,5.2017,5.209,5.1593,5.0929,5.0185,4.9563,4.9107,4.9001,4.9001,4.8968,4.8849,4.8832,4.8578,4.7733,4.643,4.5206,4.4372,4.3098,4.1917,4.115,4.1629,4.1773,4.1134,4.1661,4.1167,3.9075,3.8774,3.7846,3.5808,3.5668,3.5619,3.5504,3.5504,3.5504,3.5504,3.5504,3.5504,3.5504,3.5504,3.5504,3.5504,3.6165,3.6919,3.0941,3.2935,3.4526,3.3025,3.4404,3.5918,3.5,0.0,0.0,0.0,0.0,0.0,0.0,0.0,0.0,0.0,0.0,0.0,0.0,0.0,0.0,0.0,0.0,0.0,0.0,0.0,0.0,0.0,0.0,0.0,0.0,0.0,5.8858,5.8858,5.8858,5.9069,5.9492,5.9896,6.0319,6.08,6.08,6.0339,5.9511,5.9915,5.9646,5.8854,0.0,5.8266,5.7431,5.65,5.5455,5.4363,5.3922,5.3537,5.3206,5.3206,5.3206,5.3206,5.3206,5.3206,5.3206,5.3206,5.3206,5.3133,5.2674,5.1995,5.1353,5.1353,5.1108,5.089,5.0878,5.0471,4.9896,4.9521,4.9212,4.9001,4.9001,4.9001,4.9001,4.9001,4.8576,4.7992,4.7275,4.6109,4.4754,4.3147,4.2319,4.1408,4.0214,4.0399,4.0461,4.0168,4.0399,4.0047,3.8659,3.8181,3.7288,3.5579,3.5504,3.5504,3.5504,3.5504,3.5504,3.5504,3.5504,3.5504,3.5504,3.5504,3.5504,3.5504,3.6275,3.7024,3.0641,3.2013,3.3503,3.4124,0.0,3.8252,3.7952,0.0,0.0,0.0,0.0,0.0,0.0,0.0,0.0,0.0,0.0,0.0,0.0,0.0,0.0,0.0,0.0,0.0,0.0,0.0,0.0,0.0,0.0,0.0,0.0,0.0,5.7992,5.7992,5.7992,5.83,5.8915,5.9127,5.9646,6.0492,6.0492,5.9935,5.8915,5.9127,5.8781,5.797,5.7603,5.713,5.6545,5.5343,5.4574,5.4069,5.3445,5.3206,5.3188,5.3004,5.3041,5.317,5.2784,5.2894,5.3188,5.2986,5.3059,5.3096,5.2472,5.172,5.1077,5.1077,5.0506,4.9902,4.9902,4.959,4.9212,4.9063,4.9001,4.9001,4.9001,4.9001,4.8923,4.8719,4.808,4.7342,4.6519,4.5536,4.418,4.2217,4.1641,4.0893,3.9571,3.9424,3.9424,3.9424,3.9424,3.9065,3.8227,3.7569,3.6716,3.5579,3.5504,3.5504,3.5504,3.5504,3.5504,3.5504,3.5504,3.5504,3.5504,3.5504,3.5504,3.5504,3.6461,3.7219,3.1395,3.2837,3.4128,3.4197,0.0,0.0,3.9653,0.0,0.0,0.0,0.0,0.0,0.0,0.0,0.0,0.0,0.0,0.0,0.0,0.0,0.0,0.0,0.0,0.0,0.0,0.0,0.0,0.0,0.0,0.0,0.0,0.0,0.0,5.7088,5.7088,5.7107,5.7165,5.7973,5.88,5.9588,5.9588,5.8742,5.7203,5.8011,5.7915,5.7085,5.6975,5.6517,5.5734,5.4806,5.4002,5.3298,5.3225,5.3206,5.3115,5.2362,5.2564,5.3004,5.1499,5.1958,5.3096,5.2325,5.2601,5.3206,5.3133,5.2546,5.1903,5.1903,5.0922,4.9902,4.9902,4.9885,4.9763,4.9152,4.9001,4.9001,4.9001,4.9001,4.8719,4.7868,4.7655,4.729,4.6389,4.493,4.364,4.2838,4.1462,4.0231,3.9499,3.9424,3.9424,3.9424,3.9424,3.8886,3.7584,3.6911,3.6252,3.5549,3.5504,3.5504,3.5504,3.5504,3.5504,3.5504,3.5504,3.5504,3.5504,3.5504,3.5504,3.5569,3.7011,3.7748,3.0794,3.2914,3.5005,3.5007,0.0,0.0,0.0,0.0,0.0,0.0,0.0,0.0,0.0,0.0,0.0,0.0,0.0,0.0,0.0,0.0,0.0,0.0,0.0,0.0,0.0,0.0,0.0,0.0,0.0,0.0,0.0,0.0,0.0,5.6184,5.5945,5.6194,5.6992,5.7319,5.7627,5.7953,5.8492,5.8146,5.6992,5.7338,5.6883,5.5804,5.5807,5.5297,5.4497,5.4147,5.3699,5.317,5.2656,5.2454,5.2362,5.1555,5.1756,5.2362,5.1756,5.194,5.2339,5.1595,5.1871,5.22,5.0941,5.0882,5.1101,5.0218,4.9281,4.8682,4.9655,4.9298,4.8635,4.8386,4.797,4.7477,4.692,4.6841,4.6706,4.6204,4.5672,4.5112,4.4755,4.3707,4.2697,4.203,4.1098,4.007,3.9176,3.8631,3.8144,3.7482,3.7405,3.6892,3.5638,3.5869,3.5667,3.4601,3.5133,3.5504,3.5504,3.5504,3.5504,3.5504,3.5504,3.5504,3.5504,3.5504,3.5504,3.5569,3.7071,3.7822,3.0398,3.2112,3.4082,0.0,0.0,0.0,0.0,0.0,0.0,0.0,0.0,0.0,0.0,0.0,0.0,0.0,0.0,0.0,0.0,0.0,0.0,0.0,0.0,0.0,0.0,0.0,0.0,0.0,0.0,0.0,0.0,0.0,0.0,0.0,5.4973,5.5394,5.6395,5.6006,5.5934,5.6203,5.6549,5.6646,5.6569,5.6319,5.5662,5.4688,5.4294,5.3704,5.305,5.2883,5.2687,5.2399,5.183,5.161,5.1518,5.071,5.093,5.1555,5.1022,5.1169,5.1472,5.0514,5.0711,5.0987,4.9401,4.9493,4.9999,4.9078,4.8264,4.7904,4.8941,4.8428,4.7564,4.7564,4.7175,4.6574,4.5682,4.5676,4.5635,4.4899,4.4423,4.3948,4.3451,4.2849,4.2132,4.1474,4.0576,3.9662,3.9131,3.801,3.7021,3.629,3.6198,3.5714,3.4499,3.5026,3.5025,3.4031,3.4624,3.5133,3.5504,3.5504,3.5504,3.5504,3.5504,3.5504,3.5504,3.5504,3.5504,3.5504,3.6829,3.7573,3.0398,3.0417,0.0,0.0,0.0,0.0,0.0,0.0,0.0,0.0,0.0,0.0,0.0,0.0,0.0,0.0,0.0,0.0,0.0,0.0,0.0,0.0,0.0,0.0,0.0,0.0,0.0,0.0,0.0,0.0,0.0,0.0,0.0,0.0,5.4219,5.4664,5.5069,5.382,5.3626,5.4472,5.3606,5.4068,5.5645,5.4857,5.4261,5.3811,5.2531,5.1775,5.1374,5.0966,5.0802,5.0802,5.0802,5.0802,5.0692,4.9866,5.0086,5.0545,4.8893,4.9407,5.0556,4.9057,4.9117,4.964,4.9061,4.8866,4.8884,4.8866,4.8363,4.78,4.7746,4.7261,4.6769,4.6786,4.6769,4.6498,4.5665,4.5975,4.5879,4.4147,4.4301,4.4279,4.2694,4.2357,4.2132,4.1489,3.9909,3.8995,3.9455,3.7611,3.6198,3.6198,3.6198,3.5714,3.4499,3.4402,3.4259,3.3962,3.3959,3.4461,3.5439,3.5504,3.5504,3.5504,3.5504,3.5504,3.5504,3.5504,3.5504,3.5504,3.6275,3.7024,3.0564,0.0,0.0,0.0,0.0,0.0,0.0,0.0,0.0,0.0,0.0,0.0,0.0,0.0,0.0,0.0,0.0,0.0,0.0,0.0,0.0,0.0,0.0,0.0,0.0,0.0,0.0,0.0,0.0,0.0,0.0,0.0,5.305,5.2978,5.2531,5.2526,5.2901,5.2819,5.2915,5.3164,5.3196,5.3472,5.3933,5.3683,5.3226,5.2531,5.2149,5.1597,5.0984,5.0864,5.0802,5.0747,5.0178,4.9958,4.9848,4.9003,4.9224,4.9866,4.937,4.9222,4.9112,4.8243,4.8128,4.8027,4.636,4.6915,4.7841,4.6911,4.6406,4.6202,4.6332,4.5773,4.5365,4.5906,4.5161,4.4131,4.3199,4.27,4.2213,4.1568,4.1926,4.2259,4.1775,4.1376,4.0946,4.0383,3.876,3.7215,3.6253,3.4861,3.4024,3.4024,3.4024,3.3545,3.2393,3.2895,3.293,3.2101,3.2664,3.3754,3.5439,3.5504,3.5504,3.5504,3.5504,3.5504,3.5504,3.5504,3.5504,3.5504,3.6275,3.6737,3.0979,0.0,0.0,0.0,0.0,0.0,0.0,0.0,0.0,0.0,0.0,0.0,0.0,0.0,0.0,0.0,0.0,0.0,0.0,0.0,0.0,0.0,0.0,0.0,0.0,0.0,0.0,0.0,0.0,0.0,0.0,5.2303,5.203,5.1613,5.1299,5.119,5.1281,5.132,5.1361,5.1406,5.1623,5.1567,5.1281,5.2085,5.2119,5.1484,5.082,5.0248,4.9811,4.9811,4.9811,4.9756,4.926,4.9077,4.9022,4.8489,4.8636,4.9022,4.8477,4.8206,4.7921,4.6754,4.6586,4.6562,4.5043,4.5468,4.6326,4.5495,4.521,4.5155,4.5224,4.4663,4.4181,4.4633,4.4012,4.2986,4.1739,4.1299,4.097,4.0528,4.0935,4.1217,4.079,4.024,3.9699,3.9169,3.7827,3.6149,3.4295,3.3674,3.3319,3.3106,3.2867,3.2365,3.1461,3.1724,3.1733,3.1233,3.1742,3.2749,3.4259,3.4341,3.4558,3.4905,3.4905,3.5133,3.5504,3.5504,3.5504,3.5504,3.5943,3.6337,3.1569,0.0,0.0,0.0,0.0,0.0,0.0,0.0,0.0,0.0,0.0,0.0,0.0,0.0,0.0,0.0,0.0,0.0,0.0,0.0,0.0,0.0,0.0,0.0,0.0,0.0,0.0,0.0,0.0,0.0,0.0,5.1675,5.1367,4.9809,5.0153,5.0185,4.9793,4.9434,4.9267,4.9325,4.9277,4.8881,4.8258,5.0171,5.084,5.0444,4.8936,4.8306,4.8306,4.8306,4.8306,4.8306,4.8306,4.8269,4.8196,4.8196,4.8102,4.7842,4.6599,4.6549,4.6739,4.49,4.4732,4.5113,4.4555,4.4367,4.4367,4.4367,4.4418,4.4468,4.4384,4.3848,4.329,4.3103,4.3059,4.2645,4.1013,4.1133,4.126,4.0439,4.0756,4.0808,3.978,3.9111,3.8465,3.7854,3.69,3.5448,3.3366,3.352,3.3633,3.3131,3.2604,3.2039,3.1436,3.0959,3.0788,3.1084,3.1031,3.1462,3.2321,3.2536,3.3031,3.3876,3.3876,3.4327,3.5228,3.5228,3.5228,3.5228,3.5228,3.5608,0.0,3.3397,0.0,0.0,0.0,0.0,0.0,0.0,0.0,0.0,0.0,0.0,0.0,0.0,0.0,0.0,0.0,0.0,0.0,0.0,0.0,0.0,0.0,0.0,0.0,0.0,0.0,0.0,0.0,0.0,4.8461,4.827,4.7938,4.7271,4.7061,4.6906,4.6837,4.7057,4.7149,0.0,4.7476,4.754,4.7389,4.8445,4.8729,4.8357,4.831,4.8306,4.8306,4.8306,4.8306,4.8306,4.8306,4.7921,4.737,4.737,4.6702,4.5747,4.5486,4.4856,4.4113,4.3684,4.3305,4.2957,4.2831,4.2777,4.2777,4.2777,4.32,4.3521,4.2929,4.3046,4.2977,4.1717,4.1358,4.1147,4.0758,4.0307,3.982,3.9619,3.9519,3.9373,3.9535,3.8505,3.7097,3.5607,3.4474,3.3665,3.3192,3.3181,3.3206,3.3093,3.2968,3.2478,3.1474,3.1286,3.0889,3.0126,3.0075,3.0216,3.0432,3.1829,3.2678,3.289,3.289,3.3031,3.3255,3.3255,3.3255,3.3255,3.3255,3.3296,0.0,0.0,0.0,0.0,0.0,0.0,0.0,0.0,0.0,0.0,0.0,0.0,0.0,0.0,0.0,0.0,0.0,0.0,0.0,0.0,0.0,0.0,0.0,0.0,0.0,0.0,0.0,0.0,0.0,4.8353,4.7365,4.7103,4.6757,4.6231,4.6009,4.5718,4.5333,4.5912,4.6012,4.5642,4.6225,4.6315,4.5979,4.6979,4.7217,4.6829,4.7059,4.715,4.715,4.715,4.715,4.715,4.715,4.6893,4.6544,4.6544,4.5913,4.5007,4.4324,4.3739,4.319,4.2498,4.2296,4.2286,4.2286,4.2286,4.2286,4.2286,4.2574,4.2753,4.2356,4.2202,4.194,4.1021,4.0763,4.0569,4.0185,3.9737,3.9265,3.8708,3.8495,3.821,3.7754,3.6564,3.5326,3.4098,3.3445,3.3081,3.3081,3.3081,3.2884,3.2239,3.2462,3.1868,2.9893,3.0022,2.9873,2.9077,2.9028,2.9197,2.9792,3.0709,3.1476,3.1888,3.196,3.2177,3.2593,3.2593,3.2593,3.2593,3.2593,3.2593,0.0,0.0,0.0,0.0,0.0,0.0,0.0,0.0,0.0,0.0,0.0,0.0,0.0,0.0,0.0,0.0,0.0,0.0,0.0,0.0,0.0,0.0,0.0,0.0,0.0,0.0,0.0,0.0,0.0,4.7503,4.6625,4.6598,4.6255,4.5516,4.548,4.5168,4.4507,4.5149,4.5149,4.4507,4.5168,4.5149,4.4525,4.5508,4.5864,4.57,4.5847,4.5902,4.5902,4.5902,4.5902,4.5902,4.5902,4.581,4.5681,4.5681,4.5275,4.4475,4.3237,4.2833,4.2691,4.1444,4.1407,4.1914,4.1914,4.1914,4.1914,4.1914,4.1946,4.1896,4.1848,4.1274,4.0673,4.0515,4.0476,4.0309,3.9538,3.9424,3.9104,3.7994,3.761,3.6967,3.5442,3.4472,3.3746,3.3282,3.3131,3.3081,3.3081,3.2896,3.2339,3.1311,3.1551,3.0675,2.8147,2.8399,2.8492,2.7891,2.7844,2.8267,2.9209,2.9209,2.9716,3.0644,3.0882,3.1328,3.2105,3.2105,3.2105,3.2105,3.2105,3.2105,0.0,0.0,0.0,0.0,0.0,0.0,0.0,0.0,0.0,0.0,0.0,0.0,0.0,0.0,0.0,0.0,0.0,0.0,0.0,0.0,0.0,0.0,0.0,0.0,0.0,0.0,0.0,0.0,4.7067,4.6412,4.5009,4.49,4.457,4.3844,4.3809,4.3754,4.3644,4.3754,4.3754,4.3644,4.3754,4.3754,4.3663,4.3823,4.4246,4.4911,4.5608,4.5902,4.5902,4.5902,4.5902,4.5902,4.5902,4.548,4.4874,4.4874,4.409,4.2904,4.2216,4.163,4.1121,4.0474,4.029,4.0375,4.0375,4.0375,4.0375,4.0375,4.0381,4.036,4.0259,3.9998,3.9831,3.974,3.9634,3.9538,3.9424,3.9424,3.9104,3.7994,3.6747,3.5442,3.4297,3.3985,3.3872,3.3796,3.3382,3.3081,3.3081,3.2152,3.14,3.1223,3.0337,2.9296,2.8007,2.7948,2.7691,2.6775,2.6719,2.6801,2.6894,2.6976,2.7452,2.8469,2.9496,3.0075,3.0139,3.0139,3.0139,3.0139,3.0139,3.0139,3.34,0.0,0.0,0.0,0.0,0.0,0.0,0.0,0.0,0.0,0.0,0.0,0.0,0.0,0.0,0.0,0.0,0.0,0.0,0.0,0.0,0.0,0.0,0.0,0.0,0.0,0.0,0.0,4.6163,4.5724,4.4669,4.458,4.4252,4.3513,4.3497,4.3497,4.3497,4.3497,4.3259,4.2818,4.2378,4.2158,4.2158,4.2158,4.2837,4.4048,4.4397,4.4562,4.4562,4.4562,4.4562,4.4562,4.4562,4.4342,4.403,4.403,4.3249,4.2162,4.1895,4.1196,4.0417,4.0171,4.007,4.007,4.007,4.007,4.002,3.9542,3.9686,3.987,3.931,3.9375,3.9591,3.9527,3.947,3.9265,3.862,3.8472,3.7994,3.6411,3.5027,3.4011,3.3519,3.3432,3.3432,3.3432,3.3232,3.2797,3.2152,3.1589,3.0676,2.9315,2.9315,2.8459,2.6166,2.6608,2.6563,2.5611,2.5546,2.5797,2.6483,2.6483,2.6719,2.7197,2.7706,2.8542,2.9792,2.8554,2.8621,2.9792,2.9106,2.9197,0.0,0.0,0.0,0.0,0.0,0.0,0.0,0.0,0.0,0.0,0.0,0.0,0.0,0.0,0.0,0.0,0.0,0.0,0.0,0.0,0.0,0.0,0.0,0.0,0.0,0.0,0.0,0.0,4.5513,4.5222,4.4631,4.4501,4.4154,4.3513,4.3497,4.3387,4.3185,4.2983,4.2598,4.1992,4.1405,4.1111,4.1111,4.1111,4.1882,4.3185,4.3185,4.3296,4.3497,4.3497,4.3497,4.3497,4.3497,4.3497,4.3479,4.3339,4.2752,4.1979,4.1664,4.1013,4.0286,4.0171,4.007,4.007,4.007,3.9952,3.9662,3.9086,3.9011,3.8937,3.8465,3.8554,3.8901,3.9088,3.879,3.8369,3.7922,3.7357,3.6568,3.4979,3.3797,3.3081,3.3081,3.3081,3.3081,3.3081,3.3081,3.2562,3.1221,3.0755,2.976,2.7681,2.795,2.7239,2.4657,2.529,2.543,2.4433,2.4372,2.4713,2.5557,2.5641,2.5808,2.6058,2.5808,2.6719,2.8961,2.7302,2.7464,2.9365,2.8518,2.8688,0.0,0.0,0.0,0.0,0.0,0.0,0.0,0.0,0.0,0.0,0.0,0.0,0.0,0.0,0.0,0.0,0.0,0.0,0.0,0.0,0.0,0.0,0.0,0.0,0.0,0.0,0.0,0.0,4.5302,4.4966,4.4606,4.4233,4.3881,4.3513,4.3497,4.313,4.2378,4.1625,4.1203,4.1167,4.113,4.1111,4.1111,4.1111,4.157,4.2359,4.2359,4.28,4.3497,4.3497,4.3497,4.3497,4.3497,4.3497,4.3444,4.2939,4.2693,4.248,4.1358,4.0903,4.078,4.0254,4.007,4.007,4.007,3.9558,3.8962,3.8908,3.7905,3.6939,3.7498,3.7136,3.6963,3.8153,3.7281,3.649,3.7569,3.6253,3.4828,3.4746,3.3797,3.3081,3.3081,3.3081,3.3081,3.3081,3.3081,3.2512,3.0829,2.9612,2.8454,2.7112,2.602,2.51,2.4453,2.4414,2.4134,2.3271,2.3222,2.3222,2.3299,2.3309,2.38,2.4872,2.38,2.4392,2.6648,2.6565,2.7046,2.8176,2.8096,2.8688,0.0,0.0,0.0,0.0,0.0,0.0,0.0,0.0,0.0,0.0,0.0,0.0,0.0,0.0,0.0,0.0,0.0,0.0,0.0,0.0,0.0,0.0,0.0,0.0,0.0,0.0,0.0,0.0,0.0,4.3938,4.3039,4.266,4.231,4.1956,4.1974,4.1827,4.1534,4.0726,4.0322,4.0322,3.9808,3.957,3.957,3.957,4.0286,4.1534,4.1534,4.2286,4.3497,4.3497,4.3497,4.3497,4.3497,4.3286,4.2976,4.2788,4.2203,4.149,4.1041,4.0655,4.0368,4.0171,4.007,4.002,3.9489,3.9139,3.8674,3.77,3.7338,3.7202,3.6934,3.7014,3.7044,3.6887,3.6243,3.5479,3.4849,3.4097,3.3513,3.3155,3.2756,3.2516,3.2516,3.1994,3.1454,3.1368,3.0735,2.99,2.8774,2.8348,2.7524,2.6235,2.552,2.4893,2.4453,2.417,2.376,2.3174,2.3135,2.3135,2.3135,2.3135,2.3299,2.3714,2.3299,2.4221,2.6483,2.5062,2.5305,2.7046,2.6284,2.6942,2.91,0.0,0.0,0.0,0.0,0.0,0.0,0.0,0.0,0.0,0.0,0.0,0.0,0.0,0.0,0.0,0.0,0.0,0.0,0.0,0.0,0.0,0.0,0.0,0.0,0.0,0.0,0.0,0.0,0.0,4.2152,4.1798,4.1456,4.1111,4.0598,4.0304,4.0304,3.9239,3.8817,3.9074,3.8542,3.8432,3.8707,3.8707,3.9441,4.0708,4.0708,4.1754,4.3497,4.3497,4.3497,4.3497,4.3497,4.3178,4.2673,4.248,4.175,4.0856,4.0703,4.0417,4.007,4.007,4.007,3.9952,3.9139,3.8745,3.823,3.6948,3.677,3.6774,3.6265,3.6395,3.6285,3.5167,3.459,3.391,3.2267,3.2215,3.2352,3.2028,3.1938,3.1855,3.1413,3.081,3.026,2.9893,2.9224,2.8453,2.7503,2.7358,2.6837,2.5398,2.5029,2.4668,2.4238,2.3945,2.3603,2.3164,2.3135,2.3135,2.3135,2.3135,2.3135,2.3135,2.3135,2.381,2.5389,2.381,2.4059,2.588,2.5126,2.5786,0.0,0.0,0.0,0.0,0.0,0.0,0.0,0.0,0.0,0.0,0.0,0.0,0.0,0.0,0.0,0.0,0.0,0.0,0.0,0.0,0.0,0.0,0.0,0.0,0.0,0.0,0.0,0.0,4.2661,4.2316,4.1995,4.1632,4.1297,4.0965,3.9441,3.8634,3.8634,3.7074,3.6688,3.7441,3.7441,3.7881,3.867,3.867,3.9129,3.99,3.99,4.124,4.3424,4.3442,4.3461,4.3497,4.3497,4.3178,4.2616,4.2038,4.1402,4.0827,4.0286,4.007,4.007,4.007,4.007,3.9952,3.9139,3.8358,3.7632,3.6798,3.6054,3.5504,3.5504,3.5242,3.4581,3.2959,3.2361,3.178,3.0125,3.0608,3.1348,3.1361,3.1361,3.1021,2.9918,2.9749,2.9491,2.8867,2.8656,2.8219,2.6988,2.6886,2.6249,2.4565,2.4414,2.4228,2.3828,2.3779,2.3584,2.3164,2.3135,2.3135,2.3135,2.3135,2.3135,2.3135,2.3135,2.3135,2.3135,2.3135,2.3637,2.4787,2.4787,2.5378,2.861,0.0,0.0,0.0,0.0,0.0,0.0,0.0,0.0,0.0,0.0,0.0,0.0,0.0,0.0,0.0,0.0,0.0,0.0,0.0,0.0,0.0,0.0,0.0,0.0,0.0,0.0,0.0,4.0957,4.0791,3.949,3.8383,3.7724,3.7624,3.7202,3.6964,3.6964,3.6523,3.6413,3.6615,3.6615,3.7037,3.7826,3.7826,3.8579,3.99,3.99,4.0598,4.1809,4.2396,4.2965,4.3497,4.3497,4.2903,4.2021,4.1853,4.115,4.0286,4.0171,4.007,4.007,4.007,4.007,3.985,3.8486,3.7978,3.7531,3.6196,3.5683,3.5504,3.5504,3.5242,3.4581,3.2959,3.2361,3.178,3.0125,3.003,3.0357,3.0746,3.0126,2.9518,2.9177,2.7804,2.678,2.6847,2.593,2.5371,2.5984,2.5441,2.503,2.4957,2.4336,2.3916,2.3799,2.3496,2.3271,2.3144,2.3135,2.3135,2.3135,2.3135,2.3135,2.3135,2.3135,2.3135,2.3135,2.3135,2.3222,2.3551,2.4457,2.4957,0.0,0.0,0.0,0.0,0.0,0.0,3.1217,3.1903,0.0,0.0,0.0,0.0,0.0,0.0,0.0,0.0,0.0,0.0,0.0,0.0,0.0,0.0,0.0,0.0,0.0,3.9642,3.9811,3.8839,3.9354,3.9161,3.7904,3.6864,3.6303,3.6303,3.5954,3.5771,3.5771,3.5422,3.5422,3.5771,3.5771,3.6376,3.7477,3.7129,3.7679,3.8891,3.8891,3.935,4.0175,4.0965,4.1956,4.2983,4.272,4.2294,4.175,4.1534,4.0844,4.007,4.007,4.007,4.007,4.007,3.9885,3.9385,3.8149,3.7573,3.7055,3.5846,3.5504,3.5424,3.4986,3.4452,3.3677,3.2331,3.1607,3.0907,3.0009,2.9792,2.9892,3.0218,2.9321,2.8385,2.7976,2.6455,2.5267,2.5145,2.4386,2.4189,2.5312,2.4853,2.4512,2.4775,2.4189,2.3721,2.3535,2.3291,2.3135,2.3135,2.3135,2.3135,2.3135,2.3135,2.3135,2.3135,2.3135,2.3164,2.3388,2.3388,2.3506,2.3634,2.4301,2.4502,0.0,0.0,0.0,0.0,0.0,0.0,3.1014,3.1066,3.1238,0.0,0.0,0.0,0.0,0.0,0.0,0.0,0.0,0.0,0.0,0.0,0.0,0.0,0.0,0.0,3.7813,3.7709,3.7719,3.7723,3.7751,3.7521,3.6949,3.6348,3.6009,3.6009,3.5275,3.4862,3.4862,3.4174,3.4174,3.4862,3.4862,3.5697,3.7184,3.6468,3.6597,3.7349,3.7349,3.7808,3.8615,3.9331,4.0634,4.2142,4.1615,4.1497,4.1601,4.1098,4.0577,4.007,4.007,4.002,3.9969,3.9969,3.9437,3.8635,3.7905,3.7144,3.643,3.5589,3.5359,3.5133,3.4095,3.3171,3.2249,3.1389,3.0482,2.9792,2.9624,2.9624,2.9546,2.9456,2.8609,2.7626,2.655,2.5421,2.4461,2.3959,2.3779,2.4023,2.4883,2.457,2.4297,2.4346,2.3975,2.3555,2.3174,2.3135,2.3135,2.3135,2.3135,2.3135,2.3135,2.3135,2.3135,2.3135,2.3135,2.3368,2.3847,2.3809,2.4019,2.4424,2.4352,2.4173,0.0,0.0,0.0,0.0,0.0,0.0,3.0429,3.0692,3.1238,0.0,0.0,0.0,0.0,0.0,0.0,0.0,0.0,0.0,0.0,0.0,0.0,0.0,0.0,0.0,3.607,3.5993,3.5988,3.5993,3.6198,3.6153,3.5824,3.4843,3.4284,3.4284,3.4119,3.4027,3.4027,3.388,3.388,3.4027,3.4027,3.4541,3.5495,3.5349,3.5734,3.6523,3.6523,3.6982,3.7734,3.7881,3.9294,4.1339,4.1397,4.1175,4.0835,4.0861,4.0577,4.007,4.007,3.9662,3.9139,3.9139,3.8652,3.7863,3.7084,3.6722,3.6291,3.4765,3.4312,3.4095,3.3101,3.2177,3.1462,3.1254,3.0482,2.9534,2.8597,2.8426,2.8187,2.7302,2.6964,2.6595,2.5722,2.438,2.3653,2.418,2.3711,2.3574,2.4434,2.3867,2.3525,2.3877,2.3525,2.3232,2.3144,2.3135,2.3135,2.3135,2.3135,2.3135,2.3135,2.3135,2.3135,2.3135,2.3135,2.3368,2.3847,2.4108,2.4274,2.4355,2.4365,2.4339,0.0,0.0,0.0,3.2301,0.0,0.0,0.0,3.0859,3.089,0.0,0.0,0.0,0.0,0.0,0.0,0.0,0.0,0.0,0.0,0.0,0.0,0.0,0.0,0.0,3.4283,3.4186,3.4173,3.4049,3.4052,3.4112,3.4247,3.3584,3.3386,3.3788,3.3421,3.3385,3.3807,3.3403,3.3403,3.3807,3.3807,3.4229,3.4972,3.4568,3.4871,3.5661,3.5661,3.6138,3.6909,3.7064,3.8045,3.9577,4.0161,4.0491,4.0581,4.0521,4.0336,4.007,4.007,3.9558,3.8908,3.8908,3.8117,3.716,3.6722,3.6337,3.5785,3.4365,3.4027,3.3671,3.2249,3.1536,3.1106,3.062,3.0139,2.9456,2.8347,2.8096,2.7602,2.5964,2.563,2.5538,2.5188,2.3951,2.3281,2.3711,2.3408,2.3369,2.4023,2.3535,2.3301,2.374,2.3398,2.3135,2.3135,2.3135,2.2862,2.2217,2.2217,2.2217,2.2217,2.2217,2.2492,2.3057,2.3368,2.3515,2.3847,2.4466,2.4766,2.4716,2.4737,2.4794,0.0,0.0,0.0,0.0,0.0,3.2972,0.0,0.0,0.0,0.0,0.0,0.0,0.0,0.0,0.0,0.0,0.0,0.0,0.0,0.0,0.0,0.0,0.0,0.0,0.0,3.2702,3.2531,3.2365,3.2206,3.2312,3.275,3.2514,3.2655,3.3303,3.2724,3.2761,3.3568,3.2926,3.2999,3.3807,3.3807,3.4137,3.4761,3.41,3.4156,3.4752,3.4752,3.52,3.5937,3.6327,3.6888,3.763,3.8642,3.9447,3.9972,3.9782,3.9665,3.9665,3.9531,3.8952,3.8297,3.8264,3.7414,3.6384,3.6166,3.5706,3.4986,3.3808,3.3449,3.3101,3.1402,3.0895,3.0758,3.0011,2.9624,2.9197,2.8016,2.7602,2.6849,2.4872,2.4457,2.4488,2.4571,2.3774,2.3164,2.3252,2.3193,2.3271,2.3623,2.3359,2.3271,2.3623,2.335,2.3135,2.3135,2.2862,2.2306,2.1382,2.1114,2.1025,2.1293,2.148,2.212,2.3047,2.3495,2.3702,2.3762,2.4526,2.4927,2.5119,2.5199,2.5227,0.0,0.0,0.0,0.0,3.4808,0.0,0.0,0.0,0.0,0.0,0.0,0.0,0.0,0.0,0.0,0.0,0.0,0.0,0.0,0.0,0.0,0.0,0.0,0.0,0.0,3.2042,3.1472,3.146,3.1693,3.1883,3.1941,3.1697,3.1576,3.1675,3.1579,3.1916,3.2742,3.2669,3.2999,3.3807,3.3807,3.3844,3.3935,3.3844,3.3844,3.3935,3.3935,3.4181,3.4684,3.5349,3.5874,3.6326,3.733,3.7758,3.7888,3.8074,3.8159,3.8046,3.7386,3.6669,3.603,3.6012,3.5799,3.5459,3.4581,3.423,3.3808,3.2033,3.1536,3.1254,3.0203,2.9934,2.9934,2.9869,2.9028,2.8016,2.6883,2.588,2.4787,2.3551,2.3299,2.3427,2.3821,2.3477,2.3271,2.3662,2.3389,2.3154,2.3203,2.3164,2.3154,2.3213,2.3164,2.3135,2.3135,2.2129,2.148,2.1293,2.0305,2.0215,2.1293,2.2306,2.296,2.3135,2.3154,2.3397,2.3794,2.387,2.4313,2.5071,2.5421,2.5625,0.0,0.0,0.0,0.0,0.0,0.0,3.4309,0.0,3.3646,0.0,0.0,0.0,0.0,0.0,0.0,0.0,3.07,0.0,0.0,0.0,0.0,0.0,0.0,0.0,0.0,0.0,0.0,0.0,3.0506,3.0651,3.0859,3.0765,3.0913,3.1391,3.0944,3.1091,3.1898,3.1439,3.1861,3.3109,3.3109,3.3348,3.3807,3.3807,3.3807,3.3807,3.355,3.3833,3.4362,3.4143,3.4673,3.5605,3.5734,3.6466,3.7543,3.7819,3.7905,3.7793,3.707,3.632,3.5602,3.5093,3.4951,3.4822,3.4196,3.4027,3.3602,3.1742,3.118,3.097,3.0075,2.9792,2.9624,2.8937,2.8426,2.7602,2.587,2.5126,2.4457,2.3299,2.3135,2.3193,2.3379,2.3262,2.3203,2.3389,2.3262,2.3135,2.3135,2.3135,2.3135,2.3135,2.2492,2.2031,2.2031,2.0935,1.9943,1.9222,1.9396,1.9712,2.0261,2.2097,2.3252,2.3519,2.3502,2.3677,2.4171,2.4424,2.4764,2.5066,2.5275,2.5489,3.6535,0.0,0.0,0.0,0.0,0.0,0.0,0.0,0.0,0.0,0.0,0.0,0.0,0.0,0.0,0.0,0.0,0.0,0.0,0.0,0.0,0.0,0.0,0.0,0.0,0.0,0.0,2.9699,2.9422,2.9448,2.9863,2.9881,3.0157,3.0722,3.0178,3.0265,3.1054,3.0485,3.1017,3.2614,3.2614,3.3036,3.3807,3.3807,3.3807,3.378,3.3361,3.3448,3.3831,3.3229,3.3706,3.4754,3.4559,3.5513,3.7016,3.7182,3.7168,3.6896,3.6157,3.5444,3.4773,3.4333,3.4196,3.405,3.369,3.3336,3.2681,3.1214,3.0716,3.0413,2.996,2.9534,2.9118,2.8267,2.7671,2.6767,2.5115,2.4542,2.4125,2.3222,2.3135,2.3135,2.3135,2.3135,2.3135,2.3135,2.3135,2.3135,2.3135,2.3135,2.3135,2.3135,2.2031,2.1293,2.1293,1.9852,1.8495,1.7225,1.8319,1.9184,1.9504,2.1607,2.3022,2.3582,2.3683,2.3837,2.3839,2.4585,2.4873,2.4723,2.5101,2.5373,0.0,0.0,0.0,3.7168,0.0,0.0,0.0,0.0,3.6784,0.0,0.0,0.0,0.0,0.0,0.0,0.0,0.0,0.0,0.0,0.0,0.0,0.0,0.0,0.0,0.0,0.0,0.0,2.9658,2.8727,2.8411,2.8994,2.9053,2.9053,2.909,2.903,2.9439,3.0228,3.021,3.1017,3.2614,3.2614,3.3036,3.3807,3.3807,3.3807,3.378,3.3361,3.297,3.2573,3.2875,3.3179,3.3508,3.4218,3.4962,3.5656,3.5673,3.5274,3.461,3.3951,3.3216,3.2706,3.3305,3.3368,3.3102,3.2779,3.1653,3.0434,2.9999,2.9454,2.9076,2.9641,2.8937,2.8176,2.8084,2.6438,2.4872,2.4787,2.3963,2.3135,2.3135,2.3135,2.3135,2.3135,2.3135,2.3135,2.3135,2.3135,2.3135,2.3135,2.3135,2.3135,2.3135,2.2031,2.1293,2.1293,1.9131,1.7225,1.592,1.7037,1.8264,1.9462,2.1121,2.2339,2.3096,2.3602,2.336,2.251,2.3756,2.4145,2.3828,2.5101,2.5732,0.0,0.0,3.9935,3.9362,0.0,0.0,0.0,0.0,0.0,0.0,0.0,0.0,0.0,0.0,0.0,0.0,0.0,0.0,0.0,0.0,0.0,0.0,0.0,0.0,0.0,0.0,0.0,2.9687,2.9251,2.8957,2.8994,2.8994,2.8994,2.8994,2.8994,2.9122,2.9402,2.9934,3.0742,3.1806,3.2357,3.3036,3.3807,3.3807,3.3634,3.3361,3.2952,3.2466,3.2021,3.1857,3.2434,3.3423,3.3677,3.4225,3.4941,3.4941,3.4783,3.4431,3.3339,3.2465,3.1841,3.1953,3.1903,3.1668,3.0814,3.0463,3.0256,2.9453,2.9352,2.9374,2.8809,2.8426,2.7763,2.6273,2.5368,2.4628,2.38,2.3387,2.3135,2.3135,2.3135,2.3135,2.3135,2.2403,2.1933,2.1933,2.1933,2.1578,2.0854,2.0683,2.0683,2.0683,1.9679,1.8956,1.8956,1.7397,1.6298,1.5832,1.6964,1.7849,1.8256,2.0403,2.1889,2.2749,2.2852,2.2966,2.3295,2.2779,2.2504,2.2364,2.285,2.3578,3.8535,3.9865,0.0,4.0213,4.0138,0.0,3.7242,0.0,0.0,0.0,0.0,0.0,0.0,0.0,0.0,0.0,0.0,0.0,0.0,3.0198,0.0,0.0,0.0,0.0,0.0,0.0,2.9602,2.9689,2.9247,2.8957,0.0,0.0,2.8994,2.8994,2.8994,2.8994,2.8994,2.9806,3.0595,3.1403,3.2228,3.2938,3.3578,3.3578,3.3361,3.2903,3.2433,3.2057,3.1806,3.1662,3.2307,3.3381,3.3419,3.3894,3.4576,3.4576,3.4284,3.3735,3.2571,3.1709,3.1073,3.1159,3.0757,3.0165,2.9669,2.9385,2.9189,2.8474,2.8494,2.8435,2.7537,2.7002,2.6343,2.4954,2.4303,2.3856,2.327,2.3135,2.3135,2.3135,2.3135,2.3135,2.3135,2.212,2.1293,2.1293,2.0935,2.0395,1.9579,1.9497,1.9497,1.9497,1.8411,1.7505,1.7037,1.6292,1.6015,1.648,1.6869,1.7399,1.8318,2.0004,2.1212,2.1786,2.2088,2.2276,2.2165,2.1636,2.1219,2.0929,2.0929,2.1412]},{"header":{"parameterUnit":"m.s-1","parameterCategory":1,"la1":30.6,"la2":29.2853,"lo1":-89.7004,"lo2":-87.6739,"dy":0.0162,"dx":0.0183,"nx":112,"ny":82,"refTime":"2023-09-16T00:00:00:Z","depth":0,"parameterNumber":3,"parameterNumberName":"V-component_of_WINDS"},"data":[0.0,0.0,0.0,0.0,0.0,0.0,0.0,0.0,0.0,0.0,0.0,0.0,0.0,0.0,0.0,0.0,0.0,0.0,0.0,0.0,0.0,0.0,0.0,0.0,0.0,0.0,0.0,0.0,0.0,0.0,0.0,0.0,0.0,0.0,0.0,0.0,0.0,0.0,0.0,0.0,0.0,0.0,0.0,0.0,0.0,0.0,0.0,0.0,0.0,0.0,0.0,0.0,0.0,0.0,0.0,0.0,0.0,0.0,0.0,0.0,0.0,0.0,0.0,0.0,0.0,0.0,0.0,0.0,0.0,0.0,0.0,0.0,0.0,0.0,0.0,0.0,0.0,0.0,0.0,0.0,0.0,0.0,0.0,0.0,0.0,0.0,0.0,0.0,0.0,0.0,-0.8103,-0.7774,-0.7199,-0.663,-0.6122,-0.5895,-0.5866,-0.6197,0.0,0.0,0.0,0.0,0.0,0.0,0.0,0.0,0.0,0.0,0.0,0.0,0.0,0.0,0.0,0.0,0.0,0.0,0.0,0.0,0.0,0.0,0.0,0.0,0.0,0.0,0.0,0.0,0.0,0.0,0.0,0.0,0.0,0.0,0.0,0.0,0.0,0.0,0.0,0.0,0.0,0.0,0.0,0.0,0.0,0.0,0.0,0.0,0.0,0.0,0.0,0.0,0.0,0.0,0.0,0.0,0.0,0.0,0.0,0.0,0.0,0.0,0.0,0.0,0.0,0.0,0.0,0.0,0.0,0.0,0.0,0.0,0.0,0.0,0.0,0.0,0.0,0.0,0.0,0.0,0.0,0.0,0.0,0.0,0.0,0.0,0.0,0.0,0.0,0.0,0.0,0.0,0.0,0.0,0.0,0.0,0.0,0.0,0.0,0.0,0.0,0.0,0.0,0.0,-0.817,-0.8117,-0.8141,-0.7631,-0.6496,-0.5922,-0.5874,-0.6306,0.0,0.0,0.0,0.0,0.0,0.0,0.0,0.0,0.0,0.0,0.0,0.0,0.0,0.0,0.0,0.0,0.0,0.0,0.0,0.0,0.0,0.0,0.0,0.0,0.0,0.0,0.0,0.0,0.0,0.0,0.0,0.0,0.0,0.0,0.0,0.0,0.0,0.0,0.0,0.0,0.0,0.0,0.0,0.0,0.0,0.0,0.0,0.0,0.0,0.0,0.0,0.0,0.0,0.0,0.0,0.0,0.0,0.0,0.0,0.0,0.0,0.0,0.0,0.0,0.0,0.0,0.0,0.0,0.0,0.0,0.0,0.0,0.0,0.0,0.0,0.0,0.0,0.0,0.0,0.0,0.0,0.0,0.0,0.0,0.0,0.0,0.0,0.0,0.0,0.0,0.0,0.0,0.0,0.0,0.0,0.0,0.0,0.0,0.0,0.0,0.0,0.0,0.0,-0.8789,-0.8639,-0.8344,-0.8241,-0.7701,-0.6527,-0.581,-0.5896,-0.692,-0.6902,0.0,0.0,0.0,0.0,0.0,0.0,0.0,0.0,0.0,0.0,0.0,0.0,0.0,0.0,0.0,0.0,0.0,0.0,0.0,0.0,0.0,0.0,0.0,0.0,0.0,0.0,0.0,0.0,0.0,0.0,0.0,0.0,0.0,0.0,0.0,0.0,0.0,0.0,0.0,0.0,0.0,0.0,0.0,0.0,0.0,0.0,0.0,0.0,0.0,0.0,0.0,0.0,0.0,0.0,0.0,0.0,0.0,0.0,0.0,0.0,0.0,0.0,0.0,0.0,0.0,0.0,0.0,0.0,0.0,0.0,0.0,0.0,0.0,0.0,0.0,0.0,0.0,0.0,0.0,0.0,0.0,0.0,0.0,0.0,0.0,0.0,0.0,0.0,0.0,0.0,0.0,0.0,0.0,0.0,0.0,0.0,0.0,0.0,0.0,0.0,0.0,0.0,-0.9724,-0.9491,-0.8946,-0.8566,-0.7898,-0.6732,-0.588,-0.5926,-0.692,-0.6768,0.0,0.0,0.0,0.0,0.0,0.0,0.0,0.0,0.0,0.0,0.0,0.0,0.0,0.0,0.0,0.0,0.0,0.0,0.0,0.0,0.0,0.0,0.0,0.0,0.0,0.0,0.0,0.0,0.0,0.0,0.0,0.0,0.0,0.0,0.0,0.0,0.0,0.0,0.0,0.0,0.0,0.0,0.0,0.0,0.0,0.0,0.0,0.0,0.0,0.0,0.0,0.0,0.0,0.0,0.0,0.0,0.0,0.0,0.0,0.0,0.0,0.0,0.0,0.0,0.0,0.0,0.0,0.0,0.0,0.0,0.0,0.0,0.0,0.0,0.0,0.0,0.0,0.0,0.0,0.0,0.0,0.0,0.0,0.0,0.0,0.0,0.0,0.0,0.0,0.0,0.0,0.0,0.0,0.0,0.0,0.0,0.0,0.0,0.0,0.0,0.0,0.0,-1.0551,-1.0725,-1.0325,-0.9873,-0.9067,-0.7795,-0.641,-0.5579,-0.5568,-0.6362,0.0,0.0,0.0,0.0,0.0,0.0,0.0,0.0,0.0,0.0,0.0,0.0,0.0,0.0,0.0,0.0,0.0,0.0,0.0,0.0,0.0,0.0,0.0,0.0,0.0,0.0,0.0,0.0,0.0,0.0,0.0,0.0,0.0,0.0,0.0,0.0,0.0,0.0,0.0,0.0,0.0,0.0,0.0,0.0,0.0,0.0,0.0,0.0,0.0,0.0,0.0,0.0,0.0,0.0,0.0,0.0,0.0,0.0,0.0,0.0,0.0,0.0,0.0,0.0,0.0,0.0,0.0,0.0,0.0,0.0,0.0,0.0,0.0,0.0,0.0,0.0,0.0,0.0,0.0,0.0,0.0,0.0,0.0,0.0,0.0,0.0,0.0,0.0,0.0,0.0,0.0,0.0,0.0,0.0,0.0,0.0,0.0,0.0,0.0,0.0,0.0,0.0,-1.0361,-1.0337,0.0,-0.9238,-0.8576,-0.6791,-0.5821,-0.5473,-0.5857,0.0,0.0,0.0,0.0,0.0,0.0,0.0,0.0,0.0,0.0,0.0,0.0,0.0,0.0,0.0,0.0,0.0,0.0,0.0,0.0,0.0,0.0,0.0,0.0,0.0,0.0,0.0,0.0,0.0,0.0,0.0,0.0,0.0,0.0,0.0,0.0,0.0,0.0,0.0,0.0,0.0,0.0,0.0,0.0,0.0,0.0,0.0,0.0,0.0,0.0,0.0,0.0,0.0,0.0,0.0,0.0,0.0,0.0,0.0,0.0,0.0,0.0,0.0,0.0,0.0,0.0,0.0,0.0,0.0,0.0,0.0,0.0,0.0,0.0,0.0,0.0,0.0,0.0,0.0,0.0,0.0,0.0,0.0,0.0,0.0,0.0,0.0,0.0,0.0,0.0,0.0,0.0,0.0,0.0,0.0,0.0,0.0,0.0,0.0,0.0,0.0,0.0,-0.9733,-1.0001,-0.9813,0.0,-0.8789,-0.801,-0.6615,-0.5609,-0.5318,-0.5813,0.0,0.0,0.0,0.0,0.0,0.0,0.0,0.0,0.0,0.0,0.0,0.0,0.0,0.0,0.0,0.0,0.0,0.0,0.0,0.0,0.0,0.0,0.0,0.0,0.0,0.0,0.0,0.0,0.0,0.0,0.0,0.0,0.0,0.0,0.0,0.0,0.0,0.0,0.0,0.0,0.0,0.0,0.0,0.0,0.0,0.0,0.0,0.0,0.0,0.0,0.0,0.0,0.0,0.0,0.0,0.0,0.0,0.0,0.0,0.0,0.0,0.0,0.0,0.0,0.0,0.0,0.0,0.0,0.0,0.0,0.0,0.0,0.0,0.0,0.0,0.0,0.0,0.0,0.0,0.0,0.0,0.0,0.0,0.0,0.0,0.0,0.0,0.0,0.0,0.0,0.0,0.0,0.0,0.0,0.0,0.0,0.0,0.0,0.0,0.0,0.0,0.0,-1.0,-0.9468,-0.934,-1.0242,-0.8651,-0.7491,-0.7491,-0.6007,-0.5128,0.0,0.0,0.0,0.0,0.0,0.0,0.0,0.0,0.0,0.0,0.0,0.0,0.0,0.0,0.0,0.0,0.0,0.0,0.0,0.0,0.0,0.0,0.0,0.0,0.0,0.0,0.0,0.0,0.0,0.0,0.0,0.0,0.0,0.0,0.0,0.0,0.0,0.0,0.0,0.0,0.0,0.0,0.0,0.0,0.0,0.0,0.0,0.0,0.0,0.0,0.0,0.0,0.0,0.0,0.0,0.0,0.0,0.0,0.0,0.0,0.0,0.0,0.0,0.0,0.0,0.0,0.0,0.0,0.0,0.0,0.0,0.0,0.0,0.0,0.0,0.0,0.0,0.0,0.0,0.0,0.0,0.0,0.0,0.0,0.0,0.0,0.0,0.0,0.0,0.0,0.0,0.0,0.0,0.0,0.0,0.0,0.0,0.0,0.0,0.0,0.0,0.0,0.0,-0.9753,-0.9254,-0.8882,-0.899,-0.7953,-0.695,-0.636,-0.5453,-0.4982,-0.4982,0.0,0.0,0.0,0.0,0.0,0.0,0.0,0.0,0.0,0.0,0.0,0.0,0.0,0.0,0.0,0.0,0.0,0.0,0.0,0.0,0.0,0.0,0.0,0.0,0.0,0.0,0.0,0.0,0.0,0.0,0.0,0.0,0.0,0.0,0.0,0.0,0.0,0.0,0.0,0.0,0.0,0.0,0.0,0.0,0.0,0.0,0.0,0.0,0.0,0.0,0.0,0.0,0.0,0.0,0.0,0.0,0.0,0.0,0.0,0.0,0.0,0.0,0.0,0.0,0.0,0.0,0.0,0.0,0.0,0.0,0.0,0.0,0.0,0.0,0.0,0.0,0.0,0.0,0.0,0.0,0.0,0.0,0.0,0.0,0.0,0.0,0.0,0.0,0.0,0.0,0.0,0.0,0.0,0.0,0.0,0.0,0.0,0.0,0.0,0.0,0.0,0.0,-0.98,-0.8918,-0.8259,-0.8299,-0.7281,-0.6352,-0.5696,-0.5192,-0.4894,-0.483,0.0,0.0,0.0,0.0,0.0,0.0,0.0,0.0,0.0,0.0,0.0,0.0,0.0,0.0,0.0,0.0,0.0,0.0,0.0,0.0,0.0,0.0,0.0,0.0,0.0,0.0,0.0,0.0,0.0,0.0,0.0,0.0,0.0,0.0,0.0,0.0,0.0,0.0,0.0,0.0,0.0,0.0,0.0,0.0,0.0,0.0,0.0,0.0,0.0,0.0,0.0,0.0,0.0,0.0,0.0,0.0,0.0,0.0,0.0,0.0,0.0,0.0,0.0,0.0,0.0,0.0,0.0,0.0,0.0,0.0,0.0,0.0,0.0,0.0,0.0,0.0,0.0,0.0,0.0,0.0,0.0,0.0,0.0,0.0,0.0,0.0,0.0,0.0,0.0,0.0,0.0,0.0,0.0,0.0,0.0,0.0,0.0,0.0,0.0,0.0,0.0,0.0,-1.004,-0.8606,-0.7736,-0.8135,-0.6798,-0.572,-0.5452,-0.5087,-0.4853,-0.4701,0.0,0.0,0.0,0.0,0.0,0.0,0.0,0.0,0.0,0.0,0.0,0.0,0.0,0.0,0.0,0.0,0.0,0.0,0.0,0.0,0.0,0.0,0.0,0.0,0.0,0.0,0.0,0.0,0.0,0.0,0.0,0.0,0.0,0.0,0.0,0.0,0.0,0.0,0.0,0.0,0.0,0.0,0.0,0.0,0.0,0.0,0.0,0.0,0.0,0.0,0.0,0.0,0.0,0.0,0.0,0.0,0.0,0.0,0.0,0.0,-0.5206,0.0,0.0,0.0,0.0,0.0,0.0,0.0,0.0,0.0,0.0,0.0,0.0,0.0,0.0,0.0,0.0,0.0,0.0,0.0,0.0,0.0,0.0,0.0,0.0,0.0,0.0,0.0,0.0,0.0,0.0,0.0,0.0,0.0,0.0,0.0,0.0,0.0,0.0,0.0,0.0,0.0,-0.9946,-0.8981,-0.8213,-0.8168,-0.7176,-0.6219,-0.5432,-0.5087,-0.4853,-0.4701,-0.4548,0.0,0.0,0.0,0.0,0.0,0.0,0.0,0.0,0.0,0.0,0.0,0.0,0.0,0.0,0.0,0.0,0.0,0.0,0.0,0.0,0.0,0.0,0.0,0.0,0.0,0.0,0.0,0.0,0.0,0.0,0.0,0.0,0.0,0.0,0.0,0.0,0.0,0.0,0.0,0.0,0.0,0.0,0.0,0.0,0.0,0.0,0.0,0.0,0.0,0.0,0.0,0.0,0.0,0.0,0.0,0.0,0.0,0.0,0.0,0.0,-0.5302,0.0,0.0,0.0,0.0,0.0,0.0,0.0,0.0,0.0,0.0,0.0,0.0,0.0,0.0,0.0,0.0,0.0,0.0,0.0,0.0,0.0,0.0,0.0,0.0,0.0,0.0,0.0,0.0,0.0,0.0,0.0,0.0,0.0,0.0,0.0,0.0,0.0,0.0,0.0,0.0,-0.9581,-0.9016,-0.8371,-0.8154,-0.7327,-0.639,-0.5325,-0.5047,-0.4853,-0.4701,-0.4878,0.0,0.0,0.0,0.0,0.0,0.0,0.0,0.0,0.0,0.0,0.0,0.0,0.0,0.0,0.0,0.0,0.0,0.0,0.0,0.0,0.0,0.0,0.0,0.0,0.0,0.0,0.0,0.0,0.0,0.0,0.0,0.0,0.0,0.0,0.0,0.0,0.0,0.0,0.0,0.0,0.0,0.0,0.0,0.0,0.0,0.0,0.0,0.0,0.0,0.0,0.0,0.0,0.0,-0.6658,-0.6742,-0.6729,-0.6496,-0.627,-0.6062,-0.6109,-0.5644,-0.4968,0.0,0.0,0.0,0.0,0.0,0.0,0.0,0.0,0.0,0.0,0.0,0.0,0.0,0.0,0.0,0.0,0.0,0.0,0.0,0.0,0.0,0.0,0.0,0.0,0.0,-0.837,-0.7698,0.0,0.0,0.0,0.0,0.0,0.0,0.0,0.0,0.0,0.0,0.0,0.0,-0.9012,-0.8845,-0.8414,-0.7862,-0.7216,-0.6352,-0.5216,-0.5023,-0.488,-0.4701,-0.5125,-0.5428,0.0,0.0,0.0,0.0,0.0,0.0,0.0,0.0,0.0,0.0,0.0,0.0,0.0,0.0,0.0,0.0,0.0,0.0,0.0,0.0,0.0,0.0,0.0,0.0,0.0,0.0,0.0,0.0,0.0,0.0,0.0,0.0,-0.6952,-0.5272,0.0,0.0,0.0,0.0,0.0,0.0,0.0,0.0,0.0,0.0,0.0,0.0,0.0,-0.643,-0.658,-0.699,-0.7085,-0.6875,-0.739,-0.732,-0.6821,-0.6948,-0.6713,-0.6319,-0.7253,0.0,-0.5578,-0.4921,0.0,0.0,0.0,0.0,0.0,0.0,0.0,0.0,0.0,0.0,0.0,0.0,0.0,0.0,0.0,0.0,0.0,0.0,0.0,0.0,0.0,0.0,-0.7732,-0.8915,-0.9155,-0.9025,0.0,-0.7785,-0.6623,-0.5589,-0.5446,0.0,0.0,0.0,0.0,0.0,0.0,0.0,-0.8125,-0.8515,-0.8348,-0.7198,-0.6843,-0.6282,-0.5205,-0.5111,-0.4986,-0.4707,-0.4786,-0.5113,-0.5734,-0.5273,0.0,0.0,0.0,0.0,0.0,0.0,0.0,0.0,0.0,0.0,0.0,0.0,0.0,0.0,0.0,0.0,0.0,0.0,0.0,0.0,0.0,0.0,0.0,0.0,0.0,0.0,0.0,0.0,0.0,-0.8261,-0.7056,-0.5304,-0.5549,-0.5711,0.0,0.0,0.0,0.0,0.0,0.0,0.0,0.0,0.0,-0.663,-0.6943,-0.7177,-0.7322,-0.7692,-0.7851,-0.7804,-0.8065,-0.8016,-0.769,-0.7859,-0.7785,-0.7582,-0.8264,-0.8185,-0.7447,-0.6439,-0.5737,-0.5413,0.0,0.0,0.0,0.0,-0.5883,-0.5822,-0.5916,-0.6202,0.0,0.0,0.0,0.0,0.0,0.0,0.0,0.0,0.0,0.0,0.0,0.0,0.0,-0.93,-0.9682,-0.9627,-0.8857,-0.8129,-0.7228,0.0,-0.6087,-0.6314,-0.5765,0.0,0.0,0.0,0.0,-0.6926,-0.7309,-0.7822,-0.7867,-0.6975,-0.6861,-0.641,-0.5336,-0.5179,-0.5077,-0.4945,-0.5188,-0.5657,-0.6397,-0.6302,-0.6344,0.0,0.0,0.0,0.0,0.0,0.0,0.0,0.0,0.0,0.0,0.0,0.0,0.0,0.0,0.0,0.0,0.0,0.0,0.0,0.0,0.0,0.0,0.0,0.0,0.0,0.0,0.0,0.0,-0.7903,-0.6978,-0.5328,-0.5762,-0.601,0.0,0.0,0.0,0.0,0.0,0.0,-0.6627,-0.697,-0.719,-0.7268,-0.7672,-0.7953,-0.8099,-0.8364,-0.855,-0.8652,-0.8693,-0.871,-0.8491,-0.8562,-0.8652,-0.8648,-0.8831,-0.8952,-0.8866,-0.7733,-0.6821,-0.6076,-0.6559,-0.6668,-0.6533,-0.6489,-0.6306,-0.6152,-0.6584,-0.6748,-0.6681,-0.6207,0.0,-0.748,-0.6994,0.0,0.0,0.0,0.0,-0.6972,-0.7586,-0.807,-0.8541,-0.9326,-0.9742,-0.9625,-0.8756,-0.8565,-0.8102,0.0,-0.6676,-0.6857,-0.6356,0.0,0.0,0.0,0.0,-0.6494,-0.6631,-0.7162,-0.7346,-0.6716,-0.6622,-0.6325,-0.55,-0.5315,-0.5213,-0.5135,-0.5642,-0.6299,-0.6989,-0.7254,-0.7435,-0.756,0.0,0.0,0.0,0.0,0.0,0.0,0.0,0.0,0.0,0.0,0.0,0.0,0.0,0.0,0.0,0.0,0.0,0.0,0.0,0.0,0.0,0.0,0.0,0.0,0.0,0.0,0.0,0.0,0.0,-0.5264,-0.604,0.0,0.0,0.0,0.0,-0.6437,-0.6715,-0.6949,-0.7099,-0.7526,-0.7902,-0.8194,-0.8496,-0.8726,-0.8879,-0.9032,-0.9113,-0.912,-0.9266,-0.9334,-0.9096,-0.895,-0.8884,-0.8878,-0.8863,-0.8941,-0.8862,-0.824,-0.7876,-0.7907,-0.7926,-0.7563,-0.7015,-0.7021,-0.7362,-0.7851,-0.7941,-0.7937,-0.7923,-0.7855,-0.7182,-0.6482,-0.6898,-0.6943,0.0,0.0,-0.7014,-0.7088,-0.6953,-0.7221,-0.7706,-0.8849,-0.9118,-0.9076,-0.8899,-0.9478,-0.9645,0.0,-0.6934,-0.6385,-0.7474,0.0,-0.5735,-0.561,-0.6456,-0.6762,-0.5929,-0.6631,-0.6837,-0.6138,-0.5947,-0.5803,-0.5589,-0.5569,-0.544,-0.5148,-0.5931,-0.6643,-0.7279,-0.7542,-0.803,-0.8711,-0.7984,0.0,0.0,0.0,0.0,0.0,0.0,0.0,0.0,0.0,0.0,0.0,0.0,0.0,0.0,0.0,0.0,0.0,0.0,0.0,0.0,0.0,0.0,0.0,0.0,0.0,0.0,0.0,0.0,-0.6645,-0.6989,0.0,-0.6576,-0.6671,-0.6844,-0.7037,-0.7421,-0.7709,-0.7858,-0.8381,-0.8682,-0.8699,-0.9083,-0.9317,-0.9371,-0.951,-0.9537,-0.9449,-0.9503,-0.9476,-0.9378,-0.9323,-0.93,-0.9296,-0.9245,-0.9191,-0.9233,-0.8801,-0.8611,-0.8533,-0.8579,-0.8203,-0.7635,-0.7634,-0.7858,-0.8048,-0.8441,-0.8307,-0.8035,-0.7953,-0.7752,-0.7389,-0.761,-0.7441,-0.7205,-0.7252,-0.7302,-0.7444,-0.7485,-0.8055,-0.8517,-0.8247,-0.8702,-0.9046,-0.8268,-0.8295,-0.852,-0.8725,-0.7902,-0.7274,-0.7149,-0.6478,-0.5966,-0.6013,-0.6186,-0.6194,-0.5935,-0.6166,-0.6261,-0.6023,-0.5979,-0.585,-0.561,-0.5589,-0.546,-0.5148,-0.5782,-0.6422,-0.7029,-0.7828,-0.8377,-0.855,-0.8635,-0.8159,0.0,0.0,0.0,0.0,0.0,0.0,0.0,0.0,0.0,0.0,0.0,0.0,0.0,0.0,0.0,0.0,0.0,0.0,0.0,0.0,0.0,0.0,0.0,0.0,0.0,0.0,-0.7225,-0.7573,-0.7852,-0.7839,-0.7343,-0.7441,-0.7611,-0.7807,-0.8191,-0.8459,-0.8564,-0.9039,-0.9262,-0.9167,-0.95,-0.968,-0.968,-0.9774,-0.9774,-0.968,-0.968,-0.9629,-0.9648,-0.96,-0.9576,-0.9573,-0.9405,-0.9381,-0.9374,-0.9154,-0.9022,-0.9026,-0.9097,-0.8786,-0.831,-0.831,-0.831,-0.8327,-0.8744,-0.8539,-0.8011,-0.8024,-0.7984,-0.7991,-0.8033,-0.784,-0.7587,-0.7634,-0.765,-0.7756,-0.7801,-0.8346,-0.8669,-0.7868,-0.823,-0.86,-0.7858,-0.7594,-0.7766,-0.8375,-0.8111,-0.7593,-0.7349,-0.669,-0.6274,-0.6325,-0.6159,-0.6064,-0.6166,-0.6139,-0.6108,-0.6108,-0.6108,-0.5986,-0.5688,-0.5708,-0.5566,-0.5155,-0.5833,-0.6363,-0.6624,-0.8005,-0.8676,-0.861,-0.9127,-0.8799,-0.7739,0.0,0.0,0.0,0.0,0.0,0.0,0.0,0.0,0.0,0.0,0.0,0.0,0.0,0.0,0.0,0.0,0.0,0.0,0.0,0.0,0.0,0.0,0.0,-0.5513,-0.6417,-0.7323,-0.7971,-0.8579,-0.8709,-0.8102,-0.8469,-0.8723,-0.8723,-0.8998,-0.9164,-0.9161,-0.9449,-0.9615,-0.9608,-0.9747,-0.9822,-0.9822,-0.9822,-0.9822,-0.9822,-0.9822,-0.9822,-0.9815,-0.968,-0.9615,-0.9608,-0.9459,-0.9395,-0.9395,-0.9391,-0.93,-0.9267,-0.9349,-0.9191,-0.8939,-0.8946,-0.8946,-0.8946,-0.8942,-0.8526,-0.8071,-0.7965,-0.7962,-0.8037,-0.7995,-0.8049,-0.8028,-0.7985,-0.8041,-0.8007,-0.7858,-0.7929,-0.8001,-0.7851,-0.7818,-0.7818,-0.7818,-0.759,-0.7383,-0.738,-0.7255,-0.7396,-0.8234,-0.7443,-0.6658,-0.6508,-0.6481,0.0,-0.6471,-0.6352,-0.6268,-0.6268,-0.6268,-0.6142,-0.5833,-0.5942,-0.5772,-0.5169,-0.6092,-0.654,-0.6237,-0.7989,-0.8991,-0.9009,-0.925,-0.9504,-0.9722,0.0,0.0,0.0,0.0,0.0,0.0,0.0,0.0,0.0,0.0,0.0,0.0,0.0,0.0,0.0,0.0,0.0,0.0,0.0,0.0,0.0,0.0,-0.657,-0.7163,-0.7594,-0.8069,-0.8953,-0.9201,-0.9165,-0.8855,-0.8957,-0.9032,-0.9032,-0.9313,-0.9435,-0.9323,-0.9602,-0.9717,-0.9612,-0.9747,-0.9822,-0.9822,-0.9822,-0.9822,-0.9822,-0.9822,-0.9822,-0.9819,-0.9781,-0.9764,-0.9761,-0.972,-0.97,-0.9693,-0.9588,-0.952,-0.9459,-0.9195,-0.9119,-0.9116,-0.8991,-0.8913,-0.89,-0.891,-0.8754,-0.857,-0.8138,-0.7994,-0.8095,-0.8481,-0.8319,-0.8047,-0.8008,-0.8022,-0.8028,-0.7987,-0.8007,-0.8028,-0.7987,-0.7977,-0.7977,-0.7977,-0.7824,-0.7658,-0.7556,-0.7414,-0.7334,-0.748,-0.71,-0.6851,-0.681,-0.6709,0.0,-0.6485,-0.6437,-0.6413,-0.6413,-0.6413,-0.6291,-0.5993,-0.6006,-0.5772,-0.5169,-0.581,-0.6153,-0.6053,-0.7779,-0.8896,-0.922,-0.8149,-0.829,0.0,0.0,0.0,0.0,0.0,0.0,0.0,0.0,0.0,0.0,0.0,0.0,0.0,0.0,0.0,0.0,0.0,0.0,0.0,0.0,0.0,0.0,-0.6412,-0.7279,-0.8618,-0.8734,-0.8984,-0.955,-0.9609,-0.9606,-0.9429,-0.9432,-0.9459,-0.9523,-0.9693,-0.9754,-0.9666,-0.9825,-0.9849,-0.9703,-0.9778,-0.9822,-0.9822,-0.9822,-0.9822,-0.9822,-0.9822,-0.9856,-0.9914,-0.9852,-0.9856,0.0,-0.9849,-0.9822,-0.9815,-0.9734,-0.9663,0.0,0.0,0.0,0.0,0.0,-0.9229,-0.9279,-0.8967,-0.8951,-0.8807,-0.8498,-0.8358,-0.8458,-0.8825,-0.8685,-0.832,-0.8094,-0.7998,-0.8019,-0.7955,-0.8038,-0.8038,-0.8038,-0.8038,-0.8038,-0.8038,-0.7919,-0.7787,-0.7702,-0.7516,0.0,-0.7251,-0.7115,-0.7017,-0.7017,-0.6892,-0.6763,-0.6675,-0.6607,-0.6542,-0.6478,-0.6471,-0.6325,-0.5966,-0.5993,0.0,0.0,0.0,-0.656,-0.7259,-0.8226,0.0,0.0,0.0,-0.8858,-1.0255,0.0,0.0,0.0,-1.247,-1.2788,0.0,0.0,0.0,0.0,0.0,0.0,0.0,0.0,0.0,0.0,0.0,0.0,0.0,0.0,0.0,0.0,-0.6926,-0.7874,-0.9592,-0.9831,-0.9799,-0.9806,-0.9839,-0.9858,-0.9859,-0.9873,-0.9927,-1.0066,-1.0076,-1.0076,-1.0076,0.0,0.0,0.0,0.0,-0.9856,-0.9822,-0.9856,-0.9863,-0.9849,-0.9863,-0.9944,-1.0073,-0.9917,-0.992,-0.9915,-0.9886,-0.9822,-0.9822,-0.9822,-0.9747,-0.9632,-0.9598,-0.951,-0.9391,-0.9373,-0.9462,-0.9676,-0.9102,0.0,0.0,-0.8852,-0.8862,-0.8953,-0.891,-0.8849,-0.8786,-0.827,-0.8071,-0.8024,-0.7979,-0.8038,-0.8038,-0.8038,-0.8038,-0.8038,-0.8038,-0.7919,-0.7811,-0.7811,-0.7587,-0.7397,-0.7397,-0.7255,-0.7139,-0.7139,-0.7034,-0.6946,-0.6929,-0.681,-0.6675,-0.6539,0.0,0.0,-0.6058,-0.6131,-0.6018,-0.5535,-0.6331,-0.7486,-0.8942,-0.8898,-0.9401,-1.0428,-0.9964,-1.0101,-1.0857,-1.0581,-1.1121,-1.2579,-1.2908,-1.318,0.0,0.0,0.0,0.0,0.0,0.0,0.0,0.0,0.0,0.0,0.0,0.0,0.0,0.0,0.0,-0.6986,-0.7689,-0.8627,-0.9599,-0.9751,-0.9898,-1.0187,-1.0184,-1.0164,-1.0188,-1.0192,-1.0205,-1.0236,-1.0236,-1.0236,-1.0236,-1.0236,0.0,-1.0012,-1.0127,-1.0073,-0.9822,-1.0066,-1.0127,-1.0008,0.0,0.0,-1.0232,-1.0204,-1.0025,-0.9787,-0.9764,-0.9822,-0.9822,-0.9822,-0.9805,-0.9754,-0.9517,-0.9483,-0.9442,-0.9291,-0.9185,-0.906,-0.8941,-0.8888,-0.8896,-0.8896,-0.886,-0.8923,-0.8896,-0.8872,0.0,-0.8744,-0.8357,-0.8024,-0.7979,-0.8038,-0.8038,-0.8038,-0.8038,-0.8038,-0.8038,-0.7919,-0.7811,-0.7811,-0.7672,-0.7556,-0.7556,-0.7322,-0.7139,-0.7139,-0.7115,-0.7058,-0.6943,-0.6902,-0.6871,-0.6844,-0.6729,-0.6891,-0.752,-0.7484,-0.7543,-0.7736,-0.7771,-0.8116,-0.8948,-0.8502,-0.8628,-0.953,-0.9083,-0.9209,-0.9922,-1.0231,-1.0845,-1.1696,-1.3161,-1.4097,0.0,0.0,0.0,0.0,0.0,0.0,0.0,0.0,0.0,0.0,0.0,-0.7306,0.0,0.0,-0.814,-0.8266,-0.8826,-0.9569,-1.0124,-1.029,-1.0331,-1.0444,-1.0492,-1.0414,-1.041,-1.041,-1.031,-1.0382,-1.0385,-1.0385,-1.0385,-1.0385,-1.0317,-1.0042,-1.0109,-1.0205,-1.0053,-1.0072,-0.9982,-0.991,-0.9852,-1.0055,-1.0513,-1.0492,-1.0335,-1.0129,-1.0114,-1.0005,-0.993,-0.9852,-0.9822,-0.9805,-0.9659,-0.9605,-0.9489,-0.9489,-0.9392,-0.9142,-0.902,-0.8882,-0.894,-0.8904,-0.8878,-0.893,-0.9276,-0.9113,-0.8876,-0.8895,-0.8431,-0.8007,-0.7995,-0.8038,-0.8038,-0.8038,-0.8038,-0.8038,-0.8038,-0.798,-0.7926,-0.7926,-0.7804,-0.7893,-0.8551,-0.7977,-0.7343,-0.7268,-0.7255,-0.7231,-0.716,-0.7082,-0.7208,-0.7808,-0.7743,-0.7992,-0.8714,-0.8384,-0.8367,-0.8996,-0.8926,-0.9196,-0.9977,-0.9709,-0.9777,-1.0321,-1.0101,-1.0173,-1.0528,-1.0936,-1.1486,-1.2105,-1.3427,-1.4345,0.0,0.0,0.0,0.0,0.0,0.0,0.0,0.0,-0.7541,-0.7826,-0.7966,-0.8112,-0.8433,-0.8706,-0.9103,-0.953,-0.9961,-1.0318,-1.0607,-1.0729,-1.062,-1.0604,-1.0614,-1.0631,-1.0496,-1.0496,-1.0544,-1.0527,-1.0534,-1.0534,-1.0534,-1.0534,-1.047,-1.0193,-1.0216,-1.0206,-1.028,-1.0072,-0.9954,-0.9927,-0.9954,-1.029,-1.0664,-1.0656,-1.0649,-1.0483,-1.0341,-1.0209,-1.0086,-0.9961,-0.9893,-0.9866,-0.9866,-0.9778,-0.9649,-0.9772,-0.9679,-0.9545,-0.9185,-0.9086,-0.9097,-0.898,-0.9003,-0.9195,-0.9486,-0.9325,-0.8954,-0.8948,-0.8503,-0.7991,-0.8049,-0.7962,-0.8038,-0.8038,-0.8038,-0.8038,-0.8038,-0.8038,-0.8038,-0.8038,-0.794,-0.824,-0.9577,-0.8898,-0.7998,-0.7802,-0.7773,-0.7763,-0.7731,-0.7792,-0.8224,-0.9152,-0.9145,-0.921,-0.979,-0.9389,-0.9428,-1.0079,-1.0092,-1.0336,-1.1076,-1.1076,-1.1189,-1.1423,-1.1483,-1.1483,-1.1423,-1.1724,-1.2067,-1.2451,-1.3632,-1.4438,-0.6177,-0.6221,0.0,-0.7541,-0.7069,-0.671,0.0,0.0,-0.7813,-0.8465,-0.8865,-0.9064,-0.9039,-0.9405,-0.9808,-1.0019,-1.0206,-1.0493,-1.0649,-1.0687,-1.0636,-1.0354,-1.0588,-1.0673,-1.067,-1.067,-1.0677,-1.0694,-1.0694,-1.0694,-1.0694,-1.0694,-1.0626,-1.0473,-1.0599,-1.0414,-1.0149,-1.0407,-1.0467,-1.0204,-1.0471,-1.068,-1.069,-1.0671,-1.0743,-1.062,-1.0472,-1.027,-1.0253,-1.0236,-1.0148,-1.0025,-1.0022,-0.993,-0.9798,-0.9798,-0.983,-0.9707,-0.9707,-0.9724,-0.9596,-0.902,-0.9212,-0.9607,-0.9111,-0.9,-0.8889,-0.892,-0.8478,-0.8014,-0.7971,-0.8039,-0.8038,-0.8038,-0.8038,-0.8038,-0.8038,-0.8038,-0.8038,-0.8038,-0.8024,-0.8403,-0.9772,-0.9853,-0.9623,-0.9266,-0.9305,-0.9154,-0.8906,-0.9938,-1.0563,-1.0463,-1.0324,-1.0413,-1.0962,-1.1534,-1.1821,-1.1642,-1.1385,-1.124,-1.1376,-1.1376,-1.1396,-1.1423,-1.1683,-1.169,-1.1423,-1.1724,-1.1787,-1.1567,-1.3658,-1.4874,-0.6428,0.0,0.0,0.0,-0.7419,-0.7469,-0.8262,-0.8481,-0.8693,-0.914,-0.9398,-0.9571,-0.9656,-0.9968,-1.0253,0.0,-1.0527,-1.0646,-1.0711,-1.0643,-1.04,-1.0253,-1.0293,-1.0497,-1.0444,-1.0666,-1.0721,-1.0721,-1.0721,-1.0721,-1.0721,-1.0721,-1.069,-1.0626,-1.0687,-1.066,-1.0404,-1.0656,-1.0687,-1.0491,-1.069,-1.0721,-1.0717,-1.0656,-1.0761,-1.075,-1.0466,-1.0405,-1.0395,-1.0314,-1.0192,-1.0049,-1.0049,-0.9958,-0.9822,-0.9822,-0.9785,-0.9854,-0.9854,-0.9761,-0.9769,-0.9489,-0.9564,-0.9697,-0.9446,-0.9151,-0.8937,-0.8924,-0.8665,-0.8451,-0.8117,-0.8011,-0.8046,-0.7959,-0.8038,-0.8038,-0.8038,-0.8038,-0.8233,-0.9019,-0.8531,-0.892,-1.1741,-1.097,-1.0427,-1.1872,-1.1358,-1.0777,-1.0603,-1.1029,-1.15,-1.1876,-1.2108,-1.2306,-1.2334,-1.2346,-1.2178,-1.1891,-1.175,-1.1683,-1.1683,-1.1683,-1.1764,-1.1931,-1.1891,-1.1891,-1.1937,-1.2627,-1.2906,-1.2777,-1.4858,-1.5883,-0.678,0.0,0.0,-0.7219,-0.7971,-0.8601,-0.894,-0.937,-0.9592,-0.972,-0.9907,-1.0029,-1.01,-1.0321,-1.049,-1.049,-1.0585,-1.0656,-1.0656,-1.0527,-1.0233,-1.0045,-1.0025,-1.0066,-1.0166,-1.0517,-1.0677,-1.0717,-1.0721,-1.0721,-1.0721,-1.0721,-1.0721,-1.0721,-1.0721,-1.0721,-1.0721,-1.0721,-1.0721,-1.0721,-1.0721,-1.0721,-1.0721,-1.0721,-1.0721,-1.0714,-1.0602,-1.0555,-1.0548,-1.0443,-1.029,-1.0114,-1.0114,-0.9995,-0.9822,-0.9822,-0.9822,-0.9822,-0.9822,-0.9754,-0.981,-0.9788,-0.9799,-0.9856,-0.9817,-0.9337,-0.8927,-0.8903,-0.8886,-0.8762,-0.8394,-0.809,-0.8021,-0.7975,-0.8038,-0.8038,-0.8038,-0.8038,-0.8333,-0.9217,-0.892,-0.9604,-1.2813,-1.2037,-1.1843,-1.4076,-1.353,-1.2625,-1.2277,-1.2281,-1.2569,-1.3185,-1.3542,-1.3647,-1.3353,-1.2926,-1.2512,-1.2138,-1.2184,-1.2215,-1.2414,-1.2414,-1.2655,-1.3084,-1.2942,-1.2942,-1.3091,-1.381,-1.3954,-1.3745,-1.572,-1.6498,0.0,0.0,-0.6575,-0.7744,-0.8903,-0.9831,-1.018,-1.0414,-1.0578,-1.0355,-1.0371,-1.0429,-1.0297,-1.0392,-1.049,-1.049,-1.0493,-1.05,-1.05,-1.0378,-1.0175,-0.9869,-0.9585,-0.9585,0.0,-1.0369,-1.0695,-1.0711,-1.0721,-1.0721,-1.0721,-1.0721,-1.0721,-1.0721,-1.0721,-1.0721,-1.0721,-1.0721,-1.0721,-1.0721,-1.0721,-1.0721,-1.0721,-1.0721,-1.0721,-1.0721,-1.0714,-1.0714,-1.0714,-1.0707,-1.0534,-1.0273,-1.0273,-1.0086,-0.9822,-0.9822,-0.9822,-0.9822,-0.9822,-0.9819,-0.9815,-0.9819,-0.9815,-0.9785,-0.9768,-0.9375,-0.8865,-0.8947,-0.893,-0.8894,-0.8843,-0.8477,-0.8021,-0.7975,-0.8038,-0.8038,-0.8038,-0.8038,-0.8038,-0.8038,-0.9118,-1.0386,-1.175,-1.3006,-1.4268,-1.5534,-1.5724,-1.5132,-1.352,-1.3969,-1.4442,-1.4435,-1.4249,-1.3955,-1.3654,-1.3532,-1.3347,-1.2835,-1.2795,-1.3037,-1.36,-1.3658,-1.4091,-1.5092,-1.5084,-1.5084,-1.5092,-1.5163,-1.4665,-1.3745,-1.572,-1.614,-0.7359,0.0,-0.7455,-0.8835,-0.9775,-1.0459,-1.0552,-1.07,-1.0621,-1.0409,-1.03,-1.0151,-1.0002,-0.9937,-0.9971,-1.0164,-1.0287,-1.0385,-1.0477,-1.0453,-1.0236,-0.9741,-0.9602,0.0,0.0,0.0,0.0,-1.0417,-1.0568,-1.0612,-1.0714,-1.0721,-1.0721,-1.0721,-1.0721,-1.0721,-1.0721,-1.0721,-1.0721,-1.0721,-1.0721,-1.0721,-1.0721,-1.0721,-1.0721,-1.0721,-1.0721,-1.0663,-1.0568,-1.0568,-1.0456,-1.027,-1.0168,-1.0063,-0.9961,-0.9859,-0.9822,-0.9822,-0.9822,-0.9822,-0.9822,-0.9822,-0.9822,-0.9795,-0.9775,-0.9624,-0.9456,-0.902,-1.1704,-1.3732,-0.9452,-0.8163,-0.8385,-1.0211,-0.9244,-0.8336,-0.943,-0.8832,-0.8233,-0.9118,-0.9706,-1.0681,-1.2813,-1.3584,-1.4364,-1.5635,-1.5832,-1.5596,-1.5012,-1.5055,-1.503,-1.4836,-1.4549,-1.4175,-1.3599,-1.3559,-1.3474,-1.308,-1.2936,-1.3314,-1.4388,-1.4261,-1.4758,-1.5931,-1.5707,-1.53,-1.4649,-1.5635,-1.5649,-1.4736,-1.6655,-1.7364,-0.7945,-0.8172,-0.8861,-0.9327,-1.0084,-1.0671,-1.076,-1.0664,-1.0596,-1.0226,-0.9968,-0.9704,-0.9618,-0.9422,-0.9384,-0.9683,-0.9812,-0.9964,-1.0215,-1.0209,-1.0076,-0.9798,-0.9592,-0.9609,0.0,0.0,0.0,-1.0466,-1.0541,-1.0616,-1.0714,-1.0721,-1.0721,-1.0721,-1.0721,-1.0721,-1.0721,-1.0721,-1.0721,-1.0721,-1.0721,-1.0721,-1.0721,-1.0721,-1.0721,-1.0717,-1.0663,-1.0582,-1.0487,-1.0436,-1.0331,-1.0188,-1.009,-1.0015,-0.9958,-0.9859,-0.9822,-0.9822,-0.9822,-0.9822,-0.994,-1.0418,-1.066,-1.0638,-1.0882,-1.0801,-1.07,-1.0533,-1.3951,-1.6698,-1.2451,-1.0585,-1.0186,-1.1812,-1.0684,-0.9422,-1.0527,-0.9669,-0.892,-0.9801,-1.0774,-1.194,-1.3584,-1.4268,-1.4854,-1.5635,-1.5832,-1.5832,-1.5832,-1.5578,-1.5324,-1.5137,-1.4856,-1.4482,-1.3995,-1.3955,-1.3788,-1.3394,-1.356,-1.4164,-1.5242,-1.5495,-1.6229,-1.7441,-1.7202,-1.6642,-1.592,-1.7054,-1.6999,-1.5942,-1.7671,-1.8247,-0.9251,-0.9792,-1.0432,-0.9255,-0.9874,-1.0675,-1.068,-1.0719,-1.0513,-0.9948,-0.9519,-0.9215,0.0,0.0,-0.8791,-0.9103,-0.9171,-0.9344,-0.9791,-0.9747,-0.9761,0.0,0.0,0.0,0.0,0.0,0.0,-1.047,0.0,-1.0721,-1.0721,-1.0727,-1.0727,-1.0721,-1.0721,-1.0721,-1.0721,-1.0721,-1.0721,-1.0721,-1.0721,-1.0721,-1.0721,-1.0721,-1.0721,-1.0711,-1.0558,-1.0487,-1.047,-1.0327,-1.0181,-1.0049,-1.0039,-0.9954,-0.9832,-0.9825,-0.9822,-0.9822,-0.9822,-0.9822,-1.0179,-1.1736,-1.2217,-1.2444,-1.2985,-1.2812,-1.2734,-1.3207,-1.5421,-1.7607,-1.7503,-1.52,-1.2975,-1.2864,-1.2054,-1.1318,-1.1318,-1.0644,-1.0096,-1.0096,-1.2129,-1.3872,-1.3974,-1.5045,-1.5832,-1.5832,-1.5832,-1.5832,-1.5832,-1.5585,-1.5418,-1.5398,-1.515,-1.487,-1.4569,-1.4529,-1.4282,-1.3721,-1.4684,-1.5622,-1.6294,-1.7353,-1.8351,-1.9355,-1.9336,-1.9111,-1.863,-1.9092,-1.8556,-1.7297,-1.8648,-1.8839,-1.0124,-1.0117,-1.0012,-1.027,-1.0501,-1.0646,-1.0702,-1.0742,-1.056,-0.9884,-0.925,-0.8676,0.0,0.0,0.0,-0.9069,-0.9432,0.0,-1.0256,-1.0388,0.0,-1.008,0.0,-1.0209,-1.0063,-1.0249,0.0,0.0,-1.0633,-1.0721,-1.0721,-1.0829,-1.0836,-1.0724,-1.0721,-1.0721,-1.0721,-1.0721,-1.0721,-1.0721,-1.0721,-1.0721,-1.0721,-1.0721,-1.0721,-1.0711,-1.0558,-1.0432,-1.0324,-1.0171,-1.0086,-1.0039,-0.9924,-0.9924,-0.9978,-0.9863,-0.9822,-0.9822,-0.9822,-1.0539,-1.1619,-1.2097,-1.3053,-1.4004,-1.4103,-1.4657,-1.5117,-1.4729,-1.651,-1.7967,-1.5822,-1.51,-1.4784,-1.4344,-1.3148,-1.2389,-1.3281,-1.2397,-1.1463,-1.1463,-1.2716,-1.4166,-1.5146,-1.554,-1.5832,-1.5832,-1.5832,-1.5832,-1.5832,-1.5765,-1.5631,-1.5418,-1.5331,-1.517,-1.4877,-1.4643,-1.4788,-1.5452,-1.5323,-1.6238,-1.8241,-1.8362,-1.8974,-2.0234,-1.9922,-1.9314,-1.8517,-1.9081,-1.8781,-1.7779,-1.8781,-1.9131,-0.9888,-1.0045,-1.0241,-1.0675,-1.0635,-1.0764,-1.0686,-1.0486,-1.0066,-0.9168,-0.832,0.0,-0.7604,0.0,0.0,0.0,0.0,0.0,-1.0117,-1.0327,-1.0405,0.0,-1.0432,0.0,-1.0446,-1.0595,-1.0694,0.0,-1.0772,-1.0792,-1.0724,-1.0867,-1.0877,-1.0724,-1.0721,-1.0721,-1.0721,-1.0721,-1.0721,-1.0721,-1.0721,-1.0721,-1.0721,-1.0721,-1.0721,-1.0711,0.0,-1.0412,-1.0266,-1.0114,-1.0008,-0.9941,-0.9852,-0.9873,-0.9937,-0.9852,-0.9822,-0.994,-1.066,-1.1856,-1.3292,-1.3292,-1.4356,-1.5784,-1.6503,-1.7071,-1.7316,-1.6845,-1.7601,-1.8044,-1.6361,-1.6256,-1.6424,-1.611,-1.4794,-1.3796,-1.4505,-1.3896,-1.3292,-1.378,-1.4352,-1.4949,-1.5635,-1.5832,-1.5832,-1.5832,-1.5832,-1.5832,-1.5832,-1.5832,-1.5765,-1.5605,-1.5585,-1.5471,-1.5177,-1.4997,-1.5362,-1.632,-1.6422,-1.7277,-1.92,-1.939,-1.9763,-2.0557,-2.0322,-1.9869,-1.9136,-1.9638,-1.9512,-1.8807,-1.9531,-1.9853,-0.9469,-0.9899,-1.0842,-1.0849,-1.0822,-1.0678,-1.0602,-0.954,-0.8342,-0.7877,0.0,-0.6762,-0.6956,-0.7129,-0.7373,-0.7997,0.0,-0.9035,-0.9802,-1.0025,-1.0259,-1.067,-1.0619,-1.0649,-1.0894,-1.0938,-1.0941,-1.0921,-1.0938,-1.088,-1.0727,-1.0867,-1.0877,-1.0724,-1.0721,-1.0721,-1.0721,-1.0721,-1.0721,-1.0721,-1.0721,-1.0721,-1.0721,-1.0721,-1.0721,-1.0711,0.0,0.0,-1.0293,-1.012,-0.9971,-0.9849,-0.9829,-0.9822,-0.9822,-0.9822,-0.9822,-1.0061,-1.1615,-1.3292,-1.4604,-1.4842,-1.6026,-1.7566,-1.9004,-1.9185,-1.8978,-1.8931,-1.8557,-1.8143,-1.807,-1.7849,-1.7629,-1.7595,-1.6482,-1.5427,-1.5463,-1.5252,-1.5294,-1.6176,-1.6092,-1.5885,-1.5885,-1.5852,-1.5832,-1.5832,-1.5832,-1.5832,-1.5832,-1.5832,-1.5832,-1.5832,-1.5832,-1.5732,-1.5478,-1.5596,-1.6077,-1.7022,-1.7725,-1.8596,-1.9798,-2.0356,-2.0625,-2.0566,-2.0566,-2.0381,-2.0,-2.0381,-2.0371,-2.001,-2.0391,-2.0566,-1.039,-1.096,-1.1417,-1.1431,-1.1045,-1.0544,-1.0093,-0.5705,0.0,0.0,-0.6515,-0.6467,-0.6638,-0.7078,-0.7567,-0.8289,0.0,0.0,0.0,0.0,-1.049,0.0,0.0,0.0,0.0,0.0,0.0,0.0,0.0,-1.088,-1.0727,-1.0867,-1.0877,-1.0724,-1.0721,-1.0721,-1.0721,-1.0721,-1.0721,-1.0721,-1.0721,-1.0721,-1.0721,-1.0721,-1.0721,-1.0711,-1.0558,0.0,-1.0432,-1.0161,-1.0032,-0.9995,-0.9869,-0.9822,-0.9822,-0.9822,-0.9822,-1.0061,-1.1615,-1.3292,-1.4842,-1.6138,-1.7689,-1.9004,-1.9366,-1.9332,-1.9239,-1.8991,-1.8851,-1.8657,-1.8176,-1.8009,-1.7903,-1.7642,-1.6962,-1.6537,-1.678,-1.6603,-1.638,-1.664,-1.6393,-1.6192,-1.6192,-1.5992,-1.5832,-1.5832,-1.5832,-1.5832,-1.5832,-1.5832,-1.5832,-1.5832,-1.5832,-1.5805,-1.5758,-1.6423,-1.7319,-1.8411,-1.9282,-2.0135,-2.0909,-2.0992,-2.0947,-2.0576,-2.0566,-2.0527,-2.0449,-2.0527,-2.0527,-2.0449,-2.0527,-2.0566,-1.1111,-1.143,-1.1657,-1.1583,-0.831,-0.5081,-0.4717,0.0,0.0,0.0,-0.6309,-0.6328,-0.6418,-0.6837,0.0,0.0,0.0,0.0,0.0,0.0,0.0,0.0,0.0,0.0,0.0,0.0,0.0,0.0,0.0,-1.088,-1.0727,-1.0792,-1.0795,-1.0721,-1.0721,-1.0721,-1.0721,-1.0721,-1.0721,-1.0721,-1.0721,-1.0721,-1.0721,-1.0721,-1.0721,-1.0717,-1.0643,0.0,-1.0477,-1.0259,-1.012,-1.0032,-0.988,-0.9822,-0.994,-1.0778,-1.102,-1.1378,-1.388,-1.5187,-1.6138,-1.7689,-1.8765,-1.9366,-1.9366,-1.9366,-1.9339,-1.9192,-1.9038,-1.8824,-1.839,-1.8163,-1.7969,-1.7655,-1.7368,-1.7201,-1.7341,-1.7141,-1.6934,-1.6934,-1.67,-1.65,-1.65,-1.638,-1.6286,-1.6286,-1.6159,-1.6059,-1.6059,-1.5925,-1.5832,-1.5832,-1.6386,-1.6756,-1.6756,-1.7796,-1.8864,-2.003,-2.0297,-2.0782,-2.15,-2.1357,-2.1025,-2.0576,-2.0566,-2.0566,-2.0566,-2.0566,-2.0566,-2.0566,-2.0566,-2.0566,-1.1628,-1.1574,-1.1142,-0.957,-0.4535,0.0,0.0,0.0,0.0,0.0,-0.599,-0.6337,-0.6285,0.0,-0.6949,0.0,0.0,0.0,0.0,0.0,0.0,0.0,0.0,0.0,0.0,0.0,0.0,0.0,0.0,0.0,-1.0727,-1.0721,-1.0721,-1.0721,-1.0721,-1.0721,-1.0721,-1.0721,-1.0721,-1.0721,-1.0721,-1.0721,-1.0721,-1.0721,-1.0721,-1.0721,-1.0721,0.0,0.0,-1.0351,-1.0209,-1.008,-1.0257,-1.0301,-1.0539,-1.2097,-1.2693,-1.3168,-1.6015,-1.6968,-1.7325,-1.8887,-1.9366,-1.9366,-1.9366,-1.9366,-1.9366,-1.9366,-1.9152,-1.8871,-1.8644,-1.8364,-1.8043,-1.7669,-1.7629,-1.7649,-1.7515,-1.7361,-1.7241,-1.7241,-1.7007,-1.68,-1.68,-1.6747,-1.6707,-1.6707,-1.6513,-1.6339,-1.6279,-1.6072,-1.5994,-1.6211,-1.7131,-1.7692,-1.7692,-1.9039,-2.0305,-2.1203,-2.1277,-2.1427,-2.1904,-2.1553,-2.1113,-2.0576,-2.0566,-2.0566,-2.0566,-2.0566,-2.0566,-2.0566,-2.0566,-2.0566,-1.144,-1.1653,-0.9967,-0.2802,-0.053,0.0,0.0,0.0,-0.0635,-0.2898,-0.4957,-0.6305,-0.6268,-0.64,0.0,0.0,0.0,-0.8197,0.0,0.0,0.0,0.0,0.0,0.0,0.0,0.0,0.0,0.0,0.0,0.0,-1.0721,-1.0721,-1.0721,-1.0721,-1.0721,-1.0721,-1.0721,-1.0721,-1.0721,-1.0721,-1.0721,-1.0721,-1.0721,-1.0721,-1.0721,-1.0721,-1.0721,0.0,0.0,-1.0395,-1.0273,-1.0355,-1.1512,-1.1976,-1.2217,-1.3765,-1.4366,-1.4599,-1.6374,-1.6968,-1.7325,-1.8887,-1.9366,-1.9366,-1.9366,-1.9366,-1.9366,-1.9366,-1.9152,-1.8918,-1.8891,-1.8664,-1.8303,-1.7722,-1.7796,-1.7856,-1.7308,-1.7375,-1.7542,-1.7542,-1.7308,-1.7108,-1.7108,-1.6881,-1.6707,-1.6707,-1.6687,-1.6573,-1.6306,-1.6253,-1.6601,-1.7441,-1.7598,-1.7692,-1.7692,-1.9852,-2.1203,-2.1293,-2.2277,-2.2543,-2.1924,-2.1846,-2.1435,-2.0586,-2.0566,-2.0566,-2.0566,-2.0566,-2.0566,-2.0566,-2.0566,-2.0566,-1.1463,-1.1557,-0.9703,-0.1967,0.0,0.0,0.0,0.0,-0.0267,-0.1071,-0.3903,-0.6291,-0.6274,-0.638,-0.658,0.0,0.0,0.0,-0.8577,0.0,0.0,0.0,0.0,0.0,0.0,0.0,0.0,0.0,0.0,0.0,-1.0721,-1.0721,-1.0721,-1.0721,-1.0721,-1.0721,-1.0721,-1.0721,-1.0721,-1.0721,-1.0721,-1.0721,-1.0721,-1.0721,-1.0721,-1.0721,-1.0721,0.0,0.0,-1.0402,-1.0904,-1.174,-1.2121,-1.2813,-1.3899,-1.5584,-1.6142,-1.6279,-1.8109,-1.8542,-1.8525,-1.9243,-1.9366,-1.9366,-1.9366,-1.9366,-1.9366,-1.9366,-1.9279,-1.9152,-1.8971,-1.8704,-1.843,-1.8183,-1.809,-1.7983,-1.7742,-1.7629,-1.7582,-1.7582,-1.7488,-1.7408,-1.7408,-1.7315,-1.7235,-1.7235,-1.7081,-1.6934,-1.682,-1.6493,-1.6704,-1.7801,-1.8443,-1.9039,-1.9761,-2.14,-2.2403,-2.2403,-2.2862,-2.2881,-2.2285,-2.2021,-2.1897,-2.1869,-2.0995,-2.0857,-2.1441,-2.1441,-2.1155,-2.0644,-2.1155,-2.1306,-1.1428,-0.9868,-0.686,-0.139,0.0,0.0,0.0,0.0,-0.0175,-0.0814,-0.3247,-0.5569,-0.6197,-0.6346,-0.6474,0.0,0.0,-0.7275,-0.8089,-0.8316,0.0,0.0,0.0,0.0,0.0,0.0,0.0,0.0,0.0,0.0,0.0,-1.0721,-1.0721,-1.0721,-1.0721,-1.0721,-1.0721,-1.0721,-1.0721,-1.0721,-1.0721,-1.0721,-1.0721,-1.0721,-1.0721,-1.0721,0.0,0.0,0.0,-1.0906,-1.168,-1.2935,-1.3531,-1.4451,-1.5671,-1.741,-1.7909,-1.7948,-1.9233,-1.9539,-1.9366,-1.9366,-1.9366,-1.9366,-1.9366,-1.9366,-1.9366,-1.9366,-1.9366,-1.9319,-1.9112,-1.8905,-1.8731,-1.8637,-1.839,-1.8156,-1.8063,-1.7802,-1.7582,-1.7582,-1.7582,-1.7582,-1.7582,-1.7582,-1.7582,-1.7582,-1.7408,-1.7248,-1.7161,-1.7,-1.7412,-1.8552,-1.9426,-2.0395,-2.1203,-2.2403,-2.3135,-2.3135,-2.3135,-2.2967,-2.2735,-2.2416,-2.2594,-2.3195,-2.205,-2.1883,-2.2681,-2.2542,-2.2187,-2.1722,-2.1873,-2.1696,-1.1324,-0.5965,-0.0138,-0.0,0.0,0.0,0.0,0.0,-0.0597,-0.2617,-0.3124,-0.3748,-0.5944,-0.6264,-0.6359,-0.6654,0.0,0.0,-0.7957,0.0,0.0,0.0,0.0,0.0,0.0,0.0,0.0,0.0,0.0,0.0,0.0,-1.0721,-1.0721,-1.0721,-1.0721,-1.0721,-1.0721,-1.0721,-1.0721,-1.0721,-1.0721,-1.0721,-1.0721,-1.0721,-1.0721,0.0,0.0,0.0,0.0,-1.2163,-1.2872,-1.3383,-1.6192,-1.7343,-1.7589,-1.9186,-1.9619,-1.9366,-1.9372,-1.9372,-1.9366,-1.9366,-1.9366,-1.9366,-1.9366,-1.9366,-1.9366,-1.9366,-1.9366,-1.9366,-1.9366,-1.9359,-1.9285,-1.8991,-1.8698,-1.8404,-1.811,-1.7802,-1.7582,-1.7582,-1.7582,-1.7582,-1.7582,-1.7582,-1.7582,-1.7582,-1.7582,-1.7475,-1.7188,-1.7974,-1.8806,-1.9784,-2.0702,-2.1293,-2.1293,-2.2403,-2.3135,-2.3135,-2.3135,-2.3153,-2.3293,-2.3332,-2.3577,-2.4265,-2.3772,-2.3761,-2.4243,-2.375,-2.3761,-2.4231,-2.2692,-2.1696,-0.9511,-0.5639,0.0,0.0,0.0,0.0,0.0,-0.2192,-0.4531,-0.5113,-0.526,-0.5482,-0.6193,-0.6268,-0.639,-0.6793,-0.7017,0.0,0.0,0.0,0.0,0.0,0.0,0.0,0.0,0.0,0.0,0.0,0.0,0.0,0.0,-1.0721,-1.0721,-1.0721,-1.0721,-1.0721,-1.0721,-1.0721,-1.0721,-1.0721,-1.0721,-1.0721,-1.0721,-1.0721,0.0,0.0,0.0,0.0,0.0,-1.229,-1.362,-1.4906,-1.6691,-1.808,-1.9086,-1.9773,-1.9786,-1.9426,-1.982,-1.97,-1.9366,-1.9366,-1.9366,-1.9366,-1.9366,-1.9366,-1.9366,-1.9366,-1.9366,-1.9366,-1.9366,-1.9366,-1.9345,-1.9252,-1.9612,-1.969,-1.884,-1.8993,-1.9404,-1.9621,-1.8763,-1.8211,-1.924,-1.8443,-1.7891,-1.8812,-1.9013,-1.928,-2.0186,-2.0369,-2.0794,-2.1944,-2.2075,-2.2282,-2.2539,-2.2862,-2.3474,-2.4211,-2.4296,-2.4661,-2.5442,-2.5183,-2.5408,-2.6352,-2.5253,-2.5059,-2.589,-2.53,-2.5137,-2.5312,-2.4081,-2.321,0.0,-0.3395,0.0,0.0,0.0,0.0,0.0,-0.3132,-0.5958,-0.6076,-0.6169,-0.619,-0.6186,-0.6227,-0.639,-0.678,-0.701,0.0,0.0,0.0,0.0,0.0,0.0,0.0,0.0,0.0,0.0,0.0,0.0,0.0,0.0,-1.0721,-1.0721,-1.0721,-1.0721,-1.0721,-1.0721,-1.0721,-1.0721,-1.0721,-1.0721,-1.0721,-1.0721,-1.0721,0.0,0.0,0.0,0.0,0.0,-1.3375,-1.4998,-1.6689,-1.7946,-1.9095,-1.9973,-2.004,-1.9773,-1.9419,-1.978,-1.9673,-1.9366,-1.9366,-1.9366,-1.9366,-1.9366,-1.9366,-1.9366,-1.9366,-1.9366,-1.9366,-1.9366,-1.9366,-1.9591,-2.0148,-2.0525,-2.0743,-2.0625,-2.0899,-2.1176,-2.1254,-2.0369,-1.9879,-2.0682,-1.9858,-1.942,-2.0231,-2.0436,-2.0743,-2.155,-2.1827,-2.2195,-2.2894,-2.3134,-2.3287,-2.3349,-2.3389,-2.3817,-2.4713,-2.4787,-2.5376,-2.676,-2.6531,-2.6843,-2.7876,-2.6823,-2.6645,-2.7454,-2.7113,-2.6698,-2.6051,-2.5655,-2.4843,0.0,0.0,0.0,0.0,0.0,0.0,0.0,0.0,0.0,-0.5692,-0.5882,-0.5972,-0.6061,-0.6179,-0.638,-0.6698,-0.698,0.0,0.0,0.0,0.0,0.0,0.0,0.0,0.0,0.0,0.0,0.0,0.0,0.0,0.0,-1.0721,-1.0721,-1.0721,-1.0721,-1.0721,-1.0721,-1.0721,-1.0721,-1.0721,-1.0721,-1.0721,-1.0721,-1.0721,0.0,0.0,0.0,0.0,0.0,-1.4928,-1.6748,-1.8557,-1.9698,-2.0221,-2.0167,-1.99,-1.9619,-1.9372,-1.9392,-1.9386,-1.9366,-1.9366,-1.9366,-1.9366,-1.9366,-1.9366,-1.9366,-1.9366,-1.9366,-1.9366,-1.9366,-1.9482,-1.9924,-2.1252,-2.1549,-2.1749,-2.3108,-2.3253,-2.3009,-2.2595,-2.252,-2.2275,-2.1995,-2.181,-2.1777,-2.1853,-2.1853,-2.1845,-2.1912,-2.2644,-2.322,-2.3193,-2.3956,-2.4326,-2.3957,-2.3889,-2.4195,-2.4904,-2.4957,-2.5744,-2.7394,-2.7448,-2.7936,-2.8913,-2.8486,-2.8461,-2.8925,-2.8976,-2.8225,-2.6749,-2.7287,-2.6416,-0.0297,0.0,0.0,0.0,0.0,0.0,0.0,0.0,0.0,0.0,0.0,0.0,0.0,-0.6396,-0.6597,-0.7129,0.0,-0.7421,0.0,0.0,0.0,0.0,0.0,0.0,0.0,0.0,0.0,0.0,0.0,0.0,0.0,-1.0721,-1.0721,-1.0721,-1.0721,-1.0721,-1.0721,-1.0721,-1.0721,-1.0721,-1.0721,-1.0721,-1.0721,-1.0721,0.0,0.0,0.0,0.0,-1.3451,-1.5086,-1.6797,-1.8315,-1.962,-2.0094,-1.9893,-1.9826,-1.9619,-1.9399,-1.9619,-1.9553,-1.9366,-1.9366,-1.9366,-1.9366,-1.9366,-1.9366,-1.9366,-1.9366,-1.9366,-1.9366,-1.9366,-2.0256,-2.1137,-2.1472,-2.2981,-2.4222,-2.3742,-2.4282,-2.4943,-2.5156,-2.4093,-2.335,-2.413,-2.3091,-2.2392,-2.312,-2.3276,-2.3476,-2.4256,-2.4726,-2.4948,-2.4612,-2.5082,-2.5476,-2.5581,-2.519,-2.5301,-2.6091,-2.686,-2.7877,-2.918,-2.918,-2.9334,-2.9591,-2.9465,-2.9252,-2.8925,-2.9365,-2.9124,-2.8337,-2.8071,-2.7267,-0.0479,0.0,0.0,0.0,0.0,0.0,0.0,0.0,0.0,0.0,0.0,0.0,0.0,0.0,0.0,0.0,0.0,0.0,0.0,0.0,0.0,0.0,0.0,0.0,0.0,0.0,0.0,0.0,0.0,0.0,0.0,-1.0721,-1.0721,-1.0721,-1.0721,-1.0721,-1.0721,-1.0721,-1.0721,-1.0721,-1.0721,-1.0721,-1.0721,-1.0721,-1.0721,0.0,0.0,0.0,-1.4609,-1.6193,-1.7869,-1.9362,-1.983,-1.994,-1.9786,-1.9653,-1.9499,-1.9392,-1.9546,-1.9499,-1.9366,-1.9366,-1.9366,-1.9339,-1.9205,-1.9165,-1.9192,-1.9332,-1.9924,-2.0371,-2.0371,-2.1479,-2.2814,-2.3479,-2.4766,-2.5784,-2.5891,-2.6325,-2.6733,-2.677,-2.6059,-2.5394,-2.5657,-2.4849,-2.4455,-2.5314,-2.5441,-2.5836,-2.6941,-2.7233,-2.7285,-2.7128,-2.7233,-2.7294,-2.6972,-2.7173,-2.7307,-2.7244,-2.7763,-2.8597,-2.9792,-2.9792,-2.9792,-2.9792,-2.9792,-2.9641,-2.9327,-2.9641,-2.9628,-2.934,-2.9049,-2.8039,-0.1678,-0.0802,-0.0707,-0.0154,0.0,0.0,0.0,0.0,0.0,0.0,0.0,0.0,0.0,0.0,0.0,0.0,0.0,0.0,0.0,0.0,0.0,0.0,0.0,0.0,0.0,0.0,0.0,0.0,0.0,0.0,0.0,-1.0697,-1.0683,-1.0683,-1.0683,-1.0683,-1.0683,-1.0707,-1.0721,-1.0721,-1.0721,-1.0707,-1.0687,-1.0711,-1.0707,-1.0816,0.0,0.0,-1.5982,-1.7449,-1.9094,-2.0494,-1.9993,-1.9773,-1.97,-1.9459,-1.9366,-1.9366,-1.9366,-1.9366,-1.9366,-1.9366,-1.9366,-1.9319,-1.9065,-1.8958,-1.8978,-1.9225,-2.0186,-2.1299,-2.1571,-2.2702,-2.4156,-2.5709,-2.6264,-2.6825,-2.8067,-2.8291,-2.8193,-2.7832,-2.7764,-2.751,-2.6719,-2.6714,-2.7001,-2.7577,-2.782,-2.8193,-2.9215,-2.9362,-2.9385,-2.9306,-2.9362,-2.9094,-2.8268,-2.9048,-2.9213,-2.8407,-2.8347,-2.8767,-2.9792,-2.9792,-2.9792,-2.9792,-2.9792,-2.9792,-2.9792,-2.9792,-2.9792,-2.9792,-2.9624,-2.8462,-0.4694,-0.4577,-0.3862,-0.0778,0.0,0.0,0.0,0.0,0.0,0.0,0.0,0.0,0.0,0.0,0.0,0.0,0.0,0.0,0.0,0.0,0.0,0.0,0.0,0.0,0.0,0.0,0.0,0.0,0.0,0.0,0.0,-1.0599,-1.0527,-1.0527,-1.0527,-1.0527,-1.0527,-1.0656,-1.0721,-1.0721,-1.0721,-1.0653,-1.0531,-1.066,-1.0649,-1.0661,0.0,-1.4137,-1.5635,-1.7382,-1.8871,-1.9927,-1.984,-1.9646,-1.9432,-1.9386,-1.9366,-1.9366,-1.9366,-1.9366,-1.9366,-1.9366,-1.9366,-1.9359,-1.9312,-1.9125,-1.8931,-1.8978,-1.9098,-1.9707,-2.1178,-2.2702,-2.4156,-2.5709,-2.7051,-2.8067,-2.8291,-2.8291,-2.8271,-2.8203,-2.8193,-2.8047,-2.7559,-2.8036,-2.8385,-2.8132,-2.8661,-2.9079,-2.8948,-2.9149,-2.925,-2.8937,-2.9172,-2.9364,-2.9312,-2.9484,-2.9569,-2.9518,-2.9534,-2.9624,-2.9792,-2.9792,-2.9792,-2.9792,-2.9792,-2.9792,-2.9792,-2.9792,-2.9792,-2.9792,-2.8767,-2.7695,-0.5386,-0.5659,-0.5623,-0.4568,-0.218,0.0,0.0,0.0,0.0,0.0,0.0,0.0,0.0,0.0,0.0,0.0,0.0,0.0,0.0,0.0,0.0,0.0,0.0,0.0,0.0,0.0,0.0,0.0,0.0,0.0,0.0,0.0,-1.0378,-1.0378,-1.0378,-1.0415,-1.049,-1.0561,-1.0636,-1.0721,-1.0721,-1.0639,-1.0493,-1.0565,-1.0517,-1.051,0.0,-1.3988,-1.5523,-1.7139,-1.8555,-1.9786,-1.9626,-1.9486,-1.9366,-1.9366,-1.9366,-1.9366,-1.9366,-1.9366,-1.9366,-1.9366,-1.9366,-1.9339,-1.9172,-1.8925,-1.8691,-1.8691,-2.0003,-2.1471,-2.2387,-2.4344,-2.6391,-2.7168,-2.7843,-2.8291,-2.8291,-2.8291,-2.8291,-2.8291,-2.89,-2.9265,-2.8828,-2.9658,-3.0329,-3.0353,-3.0606,-3.0921,-3.1137,-3.128,-3.1328,-3.1101,-3.128,-3.1288,-3.1027,-3.078,-3.0331,-2.9854,-2.9792,-2.9792,-2.9792,-2.9792,-2.9792,-2.9792,-2.9792,-2.9792,-2.9792,-2.9792,-2.9792,-2.9792,-2.8597,-2.7522,-0.5403,-0.5717,-0.6361,-0.7331,0.0,-0.1503,-0.1657,0.0,0.0,0.0,0.0,0.0,0.0,0.0,0.0,0.0,0.0,0.0,0.0,0.0,0.0,0.0,0.0,0.0,0.0,0.0,0.0,0.0,0.0,0.0,0.0,0.0,-1.0226,-1.0226,-1.0226,-1.028,-1.0388,-1.0426,-1.0517,-1.0666,-1.0666,-1.0568,-1.0388,-1.0426,-1.0365,-1.0352,-1.2507,-1.4112,-1.5283,-1.7184,-1.8658,-1.9679,-1.9452,-1.9366,-1.9359,-1.9292,-1.9305,-1.9352,-1.9212,-1.9252,-1.9359,-1.9285,-1.9312,-1.9325,-1.9098,-1.8824,-1.8591,-1.8591,-2.092,-2.3402,-2.3402,-2.5541,-2.7843,-2.8184,-2.8291,-2.8291,-2.8291,-2.8291,-2.8388,-2.8698,-2.9608,-3.0305,-3.0354,-3.1296,-3.2099,-3.2248,-3.2388,-3.2674,-3.3057,-3.3081,-3.3081,-3.3081,-3.3081,-3.278,-3.2077,-3.1524,-3.0809,-2.9854,-2.9792,-2.9792,-2.9792,-2.9792,-2.9792,-2.9792,-2.9792,-2.9792,-2.9792,-2.9792,-2.9792,-2.9792,-2.8359,-2.729,-0.5395,-0.5421,-0.5635,-0.6261,0.0,0.0,-0.6458,0.0,0.0,0.0,0.0,0.0,0.0,0.0,0.0,0.0,0.0,0.0,0.0,0.0,0.0,0.0,0.0,0.0,0.0,0.0,0.0,0.0,0.0,0.0,0.0,0.0,0.0,-1.0066,-1.0066,-1.007,-1.008,-1.0222,-1.0368,-1.0507,-1.0507,-1.0358,-1.0086,-1.0229,-1.0212,-1.0194,-1.3678,-1.5012,-1.5064,-1.8338,-1.9522,-1.9399,-1.9372,-1.9366,-1.9332,-1.9058,-1.9132,-1.9292,-1.8744,-1.8911,-1.9325,-1.9045,-1.9145,-1.9366,-1.9339,-1.9125,-1.8891,-1.8891,-2.1092,-2.3402,-2.3402,-2.4872,-2.6599,-2.795,-2.8291,-2.8291,-2.8291,-2.8291,-2.8698,-2.9911,-3.0214,-3.071,-3.1882,-3.2794,-3.3185,-3.2723,-3.3277,-3.3608,-3.3144,-3.3081,-3.3081,-3.3081,-3.3081,-3.2629,-3.1537,-3.0972,-3.0419,-2.9829,-2.9792,-2.9792,-2.9792,-2.9792,-2.9792,-2.9792,-2.9792,-2.9792,-2.9792,-2.9792,-2.9792,-2.9714,-2.7637,-2.6554,-0.543,-0.5434,-0.5466,-0.5701,0.0,0.0,0.0,0.0,0.0,0.0,0.0,0.0,0.0,0.0,0.0,0.0,0.0,0.0,0.0,0.0,0.0,0.0,0.0,0.0,0.0,0.0,0.0,0.0,0.0,0.0,0.0,0.0,0.0,-0.9907,-1.0875,-1.0923,-1.0049,-1.0107,-1.0161,-1.0219,-1.0314,-1.0253,-1.0049,-1.011,-1.0543,-1.148,-1.2756,-1.4429,-1.6272,-1.7593,-1.8621,-1.9352,-1.9165,-1.9092,-1.9058,-1.8764,-1.8838,-1.9058,-1.8838,-1.8905,-1.9179,-1.9935,-1.9652,-1.9387,-2.084,-2.0043,-1.8979,-2.0801,-2.1941,-2.283,-2.3286,-2.5254,-2.7237,-2.7795,-2.7695,-2.7688,-2.8472,-2.8564,-2.9044,-3.0727,-3.1684,-3.2476,-3.2966,-3.3994,-3.4576,-3.4035,-3.3879,-3.4072,-3.4508,-3.4328,-3.4345,-3.4952,-3.5034,-3.4553,-3.3378,-3.2581,-3.1695,-3.0748,-3.0139,-2.9792,-2.9792,-2.9792,-2.9792,-2.9792,-2.9792,-2.9792,-2.9792,-2.9792,-2.9792,-2.9714,-2.7557,-2.6483,-0.5428,-0.5374,-0.5551,0.0,0.0,0.0,0.0,0.0,0.0,0.0,0.0,0.0,0.0,0.0,0.0,0.0,0.0,0.0,0.0,0.0,0.0,0.0,0.0,0.0,0.0,0.0,0.0,0.0,0.0,0.0,0.0,0.0,0.0,0.0,-1.1059,-1.1144,-1.0707,-1.0127,-0.9863,-0.991,-0.9971,-0.9988,-0.9975,-0.993,-1.0694,-1.2124,-1.2535,-1.4264,-1.6727,-1.731,-1.8141,-1.9072,-1.8865,-1.8784,-1.8751,-1.8457,-1.8537,-1.8764,-1.8571,-1.8624,-1.8989,-2.0281,-2.0104,-1.9828,-2.1866,-2.1264,-2.0201,-2.2108,-2.2892,-2.3235,-2.3738,-2.5614,-2.7461,-2.7461,-2.7236,-2.7298,-2.8545,-2.8959,-2.9636,-3.1732,-3.3021,-3.3875,-3.41,-3.4854,-3.5353,-3.4801,-3.4502,-3.4783,-3.57,-3.5445,-3.544,-3.6132,-3.6198,-3.5714,-3.4499,-3.3824,-3.2804,-3.132,-3.0633,-3.0139,-2.9792,-2.9792,-2.9792,-2.9792,-2.9792,-2.9792,-2.9792,-2.9792,-2.9792,-2.9792,-2.7879,-2.6801,-0.5428,-0.5432,0.0,0.0,0.0,0.0,0.0,0.0,0.0,0.0,0.0,0.0,0.0,0.0,0.0,0.0,0.0,0.0,0.0,0.0,0.0,0.0,0.0,0.0,0.0,0.0,0.0,0.0,0.0,0.0,0.0,0.0,0.0,0.0,-1.0539,-1.0502,-1.2209,-1.034,-0.9456,-0.9605,-0.9452,-0.9534,-0.9812,-0.9673,-1.0425,-1.193,-1.3341,-1.4724,-1.6198,-1.7798,-1.849,-1.849,-1.849,-1.849,-1.845,-1.815,-1.823,-1.8397,-1.7796,-1.7983,-1.8651,-1.982,-2.0345,-2.0816,-2.21,-2.2527,-2.2536,-2.2527,-2.3588,-2.4751,-2.4855,-2.5928,-2.7002,-2.7012,-2.7002,-2.7389,-2.8535,-2.9289,-3.0511,-3.2966,-3.3993,-3.4595,-3.5351,-3.5542,-3.5353,-3.4813,-3.5153,-3.5732,-3.6472,-3.632,-3.6198,-3.6198,-3.6198,-3.5714,-3.4499,-3.4402,-3.352,-3.1394,-3.1254,-3.0758,-2.9869,-2.9792,-2.9792,-2.9792,-2.9792,-2.9792,-2.9792,-2.9792,-2.9792,-2.9792,-2.8597,-2.7522,-0.5389,0.0,0.0,0.0,0.0,0.0,0.0,0.0,0.0,0.0,0.0,0.0,0.0,0.0,0.0,0.0,0.0,0.0,0.0,0.0,0.0,0.0,0.0,0.0,0.0,0.0,0.0,0.0,0.0,0.0,0.0,0.0,-1.2369,-1.1624,-1.3341,-1.3829,-1.3312,-1.171,-1.0886,-1.0937,-0.9859,-0.9429,-0.951,-0.9466,-1.0829,-1.3341,-1.373,-1.5406,-1.7805,-1.8262,-1.849,-1.847,-1.8263,-1.8183,-1.8143,-1.7836,-1.7916,-1.815,-1.7969,-1.8649,-1.9842,-2.1102,-2.1554,-2.2014,-2.4134,-2.3519,-2.2691,-2.4681,-2.4675,-2.4308,-2.555,-2.6029,-2.6191,-2.6504,-2.7001,-2.771,-2.9001,-3.0038,-3.1378,-3.3362,-3.4255,-3.4681,-3.4898,-3.5968,-3.6545,-3.5885,-3.6302,-3.6892,-3.7377,-3.8045,-3.8457,-3.8457,-3.8457,-3.7916,-3.6614,-3.5899,-3.4853,-3.3241,-3.2522,-3.1476,-2.9869,-2.9792,-2.9792,-2.9792,-2.9792,-2.9792,-2.9792,-2.9792,-2.9792,-2.9792,-2.8597,-2.7936,-0.5393,0.0,0.0,0.0,0.0,0.0,0.0,0.0,0.0,0.0,0.0,0.0,0.0,0.0,0.0,0.0,0.0,0.0,0.0,0.0,0.0,0.0,0.0,0.0,0.0,0.0,0.0,0.0,0.0,0.0,0.0,-1.1955,-1.3093,-1.3228,-1.4468,-1.4921,-1.4463,-1.3034,-1.2212,-1.2105,-1.1327,-1.0843,-1.0783,-1.036,-1.1435,-1.3795,-1.4933,-1.6448,-1.813,-1.813,-1.813,-1.811,-1.7929,-1.7862,-1.7842,-1.7649,-1.7702,-1.7842,-1.8245,-1.911,-2.0218,-2.1926,-2.2596,-2.3089,-2.5096,-2.4687,-2.3859,-2.5609,-2.5319,-2.4773,-2.5848,-2.6309,-2.6547,-2.6818,-2.7236,-2.8049,-2.9772,-3.0839,-3.201,-3.3557,-3.4349,-3.4893,-3.5302,-3.6074,-3.6698,-3.7008,-3.7662,-3.826,-3.8425,-3.9254,-3.9709,-3.9454,-3.917,-3.8571,-3.7494,-3.6655,-3.5554,-3.4085,-3.3449,-3.2464,-3.0983,-3.0921,-3.0709,-3.0343,-3.0343,-3.0139,-2.9792,-2.9792,-2.9792,-2.9792,-2.9106,-2.8518,-0.5424,0.0,0.0,0.0,0.0,0.0,0.0,0.0,0.0,0.0,0.0,0.0,0.0,0.0,0.0,0.0,0.0,0.0,0.0,0.0,0.0,0.0,0.0,0.0,0.0,0.0,0.0,0.0,0.0,0.0,0.0,-1.1456,-1.2926,-1.5705,-1.45,-1.439,-1.5819,-1.4175,-1.3316,-1.3101,-1.3204,-1.3098,-1.2705,-1.1814,-1.2206,-1.3753,-1.6493,-1.7582,-1.7582,-1.7582,-1.7582,-1.7582,-1.7582,-1.7569,-1.7542,-1.7542,-1.7627,-1.7769,-1.8709,-1.94,-2.0202,-2.2264,-2.3286,-2.3987,-2.5208,-2.5615,-2.5615,-2.5615,-2.5644,-2.5674,-2.5625,-2.6607,-2.7579,-2.7725,-2.7829,-2.8495,-3.0765,-3.1705,-3.2527,-3.3633,-3.435,-3.5162,-3.6292,-3.6154,-3.6502,-3.8186,-3.9055,-3.9542,-3.9414,-3.9948,-4.0083,-3.9484,-3.8856,-3.8182,-3.7464,-3.6896,-3.5889,-3.4221,-3.4163,-3.3739,-3.289,-3.2678,-3.2177,-3.1315,-3.1315,-3.0908,-3.0088,-3.0088,-3.0088,-3.0088,-3.0088,-2.9484,0.0,-0.5739,0.0,0.0,0.0,0.0,0.0,0.0,0.0,0.0,0.0,0.0,0.0,0.0,0.0,0.0,0.0,0.0,0.0,0.0,0.0,0.0,0.0,0.0,0.0,0.0,0.0,0.0,0.0,0.0,-1.0522,-1.17,-1.3069,-1.4791,-1.5632,-1.6151,-1.6471,-1.495,-1.419,0.0,-1.3055,-1.2516,-1.2476,-1.2529,-1.3285,-1.4784,-1.6753,-1.7582,-1.7582,-1.7582,-1.7582,-1.7582,-1.7582,-1.7442,-1.7241,-1.7241,-1.7694,-1.8367,-1.8493,-1.9971,-2.1874,-2.2378,-2.3268,-2.4304,-2.4604,-2.4697,-2.4697,-2.4697,-2.4941,-2.5127,-2.4785,-2.6121,-2.7776,-2.8404,-2.95,-3.0586,-3.1134,-3.2062,-3.2972,-3.3244,-3.4353,-3.5607,-3.6386,-3.8171,-3.9782,-4.0602,-4.0009,-3.9416,-3.9382,-3.9544,-3.9574,-3.9439,-3.929,-3.8706,-3.7509,-3.7285,-3.6649,-3.5273,-3.5213,-3.5067,-3.4854,-3.3394,-3.2536,-3.2321,-3.2321,-3.2177,-3.1974,-3.1974,-3.1974,-3.1974,-3.1974,-3.1874,0.0,0.0,0.0,0.0,0.0,0.0,0.0,0.0,0.0,0.0,0.0,0.0,0.0,0.0,0.0,0.0,0.0,0.0,0.0,0.0,0.0,0.0,0.0,0.0,0.0,0.0,0.0,0.0,0.0,-0.9399,-1.1371,-1.2182,-1.3518,-1.5469,-1.6293,-1.664,-1.65,-1.5921,-1.5507,-1.5382,-1.4797,-1.4381,-1.4277,-1.3804,-1.4436,-1.5896,-1.678,-1.7161,-1.7161,-1.7161,-1.7161,-1.7161,-1.7161,-1.7068,-1.6941,-1.6941,-1.7624,-1.8528,-1.9043,-2.0629,-2.2483,-2.2954,-2.3687,-2.4414,-2.4414,-2.4414,-2.4414,-2.4414,-2.458,-2.4933,-2.545,-2.6886,-2.8422,-2.9667,-3.0578,-3.1412,-3.1965,-3.2612,-3.324,-3.3797,-3.451,-3.5632,-3.7263,-3.921,-4.0459,-4.0457,-3.9858,-3.9424,-3.9424,-3.9424,-3.9538,-3.999,-3.938,-3.8832,-3.8608,-3.7912,-3.7056,-3.6067,-3.6006,-3.5894,-3.5504,-3.4558,-3.3754,-3.331,-3.3241,-3.3031,-3.2593,-3.2593,-3.2593,-3.2593,-3.2593,-3.2593,0.0,0.0,0.0,0.0,0.0,0.0,0.0,0.0,0.0,0.0,0.0,0.0,0.0,0.0,0.0,0.0,0.0,0.0,0.0,0.0,0.0,0.0,0.0,0.0,0.0,0.0,0.0,0.0,0.0,-0.9665,-1.2384,-1.2486,-1.3701,-1.6454,-1.6553,-1.644,-1.6199,-1.6433,-1.6433,-1.6199,-1.644,-1.6433,-1.6206,-1.5227,-1.5457,-1.6633,-1.6687,-1.6707,-1.6707,-1.6707,-1.6707,-1.6707,-1.6707,-1.6673,-1.6627,-1.6627,-1.7379,-1.8536,-1.9477,-2.0891,-2.2342,-2.3329,-2.3906,-2.4199,-2.4199,-2.4199,-2.4199,-2.4199,-2.434,-2.4925,-2.6277,-2.7839,-2.9415,-3.0808,-3.134,-3.1777,-3.2884,-3.3081,-3.3398,-3.4511,-3.5072,-3.617,-3.8678,-3.983,-4.0217,-3.9664,-3.9484,-3.9424,-3.9424,-3.9553,-3.9935,-4.0622,-3.9665,-3.9262,-3.9827,-3.8731,-3.7639,-3.6845,-3.6783,-3.6508,-3.591,-3.591,-3.5415,-3.4485,-3.4298,-3.3891,-3.3101,-3.3101,-3.3101,-3.3101,-3.3101,-3.3101,0.0,0.0,0.0,0.0,0.0,0.0,0.0,0.0,0.0,0.0,0.0,0.0,0.0,0.0,0.0,0.0,0.0,0.0,0.0,0.0,0.0,0.0,0.0,0.0,0.0,0.0,0.0,0.0,-0.8299,-0.9443,-1.185,-1.2031,-1.3202,-1.585,-1.5945,-1.5925,-1.5885,-1.5925,-1.5925,-1.5885,-1.5925,-1.5925,-1.5892,-1.5734,-1.5886,-1.6346,-1.66,-1.6707,-1.6707,-1.6707,-1.6707,-1.6707,-1.6707,-1.6553,-1.6333,-1.6333,-1.6924,-1.7991,-1.9128,-2.0417,-2.1635,-2.2782,-2.3262,-2.331,-2.331,-2.331,-2.331,-2.331,-2.4263,-2.5342,-2.5648,-2.8007,-3.0288,-3.0632,-3.181,-3.2884,-3.3081,-3.3081,-3.3398,-3.4511,-3.6587,-3.8678,-3.998,-4.0323,-4.0367,-4.0277,-3.9783,-3.9424,-3.9424,-4.006,-4.0554,-4.069,-4.1185,-4.1071,-3.9998,-3.9729,-3.9001,-3.7711,-3.7632,-3.7573,-3.7531,-3.7472,-3.71,-3.6276,-3.5623,-3.5213,-3.5133,-3.5133,-3.5133,-3.5133,-3.5133,-3.5133,-0.5365,0.0,0.0,0.0,0.0,0.0,0.0,0.0,0.0,0.0,0.0,0.0,0.0,0.0,0.0,0.0,0.0,0.0,0.0,0.0,0.0,0.0,0.0,0.0,0.0,0.0,0.0,0.0,-0.814,-0.9199,-1.176,-1.1945,-1.3108,-1.573,-1.5832,-1.5832,-1.5832,-1.5832,-1.5745,-1.5585,-1.5424,-1.5344,-1.5344,-1.5344,-1.5591,-1.6032,-1.6159,-1.6219,-1.6219,-1.6219,-1.6219,-1.6219,-1.6219,-1.6139,-1.6025,-1.6025,-1.7145,-1.8772,-1.9314,-2.0764,-2.2403,-2.296,-2.3135,-2.3135,-2.3135,-2.3135,-2.3222,-2.3877,-2.4799,-2.5892,-2.7525,-2.9269,-3.0793,-3.1724,-3.2537,-3.324,-3.3869,-3.4037,-3.4511,-3.6094,-3.7892,-3.9298,-3.977,-3.9843,-3.9843,-3.9843,-3.9604,-3.961,-4.006,-4.0432,-4.108,-4.2062,-4.2062,-4.1798,-4.1271,-4.0778,-3.9943,-3.8511,-3.8414,-3.8246,-3.7822,-3.7822,-3.7632,-3.7263,-3.6935,-3.6368,-3.5504,-3.6383,-3.6305,-3.5504,-3.5943,-3.5894,0.0,0.0,0.0,0.0,0.0,0.0,0.0,0.0,0.0,0.0,0.0,0.0,0.0,0.0,0.0,0.0,0.0,0.0,0.0,0.0,0.0,0.0,0.0,0.0,0.0,0.0,0.0,0.0,-0.8333,-0.9509,-1.175,-1.2237,-1.3499,-1.573,-1.5832,-1.5792,-1.5718,-1.5645,-1.5504,-1.5284,-1.507,-1.4963,-1.4963,-1.4963,-1.5244,-1.5718,-1.5718,-1.5758,-1.5832,-1.5832,-1.5832,-1.5832,-1.5832,-1.5832,-1.5825,-1.6204,-1.749,-1.9131,-1.9761,-2.1123,-2.2677,-2.296,-2.3135,-2.3135,-2.3135,-2.3299,-2.3714,-2.4542,-2.5456,-2.676,-2.8986,-3.0122,-3.0943,-3.2509,-3.2984,-3.3354,-3.4446,-3.5142,-3.5935,-3.751,-3.8708,-3.9424,-3.9424,-3.9424,-3.9424,-3.9424,-3.9424,-3.9677,-4.0322,-4.0629,-4.1339,-4.2829,-4.2631,-4.2348,-4.2281,-4.1677,-4.0696,-3.9292,-3.9193,-3.8978,-3.843,-3.8374,-3.8262,-3.8092,-3.8262,-3.7632,-3.6085,-3.7235,-3.7115,-3.5782,-3.6337,-3.6228,0.0,0.0,0.0,0.0,0.0,0.0,0.0,0.0,0.0,0.0,0.0,0.0,0.0,0.0,0.0,0.0,0.0,0.0,0.0,0.0,0.0,0.0,0.0,0.0,0.0,0.0,0.0,0.0,-0.9217,-1.0485,-1.1848,-1.3102,-1.4364,-1.573,-1.5832,-1.5698,-1.5424,-1.515,-1.4997,-1.4983,-1.497,-1.4963,-1.4963,-1.4963,-1.513,-1.5418,-1.5418,-1.5578,-1.5832,-1.5832,-1.5832,-1.5832,-1.5832,-1.5832,-1.592,-1.7131,-1.7684,-1.8141,-2.0395,-2.1293,-2.1569,-2.2775,-2.3135,-2.3135,-2.3135,-2.3887,-2.4702,-2.4787,-2.6295,-2.8089,-2.8773,-2.9805,-3.0879,-3.2014,-3.2551,-3.3146,-3.4426,-3.6253,-3.7677,-3.7753,-3.8708,-3.9424,-3.9424,-3.9424,-3.9424,-3.9424,-3.9424,-3.944,-3.9637,-4.0385,-4.1209,-4.215,-4.2879,-4.304,-4.2354,-4.2286,-4.1591,-4.0104,-4.002,-4.002,-3.9952,-3.9969,-3.961,-3.8854,-3.961,-3.9226,-3.7706,-3.7764,-3.7397,-3.6554,-3.6615,-3.6228,0.0,0.0,0.0,0.0,0.0,0.0,0.0,0.0,0.0,0.0,0.0,0.0,0.0,0.0,0.0,0.0,0.0,0.0,0.0,0.0,0.0,0.0,0.0,0.0,0.0,0.0,0.0,0.0,0.0,-1.0245,-1.1432,-1.2636,-1.3952,-1.5271,-1.5277,-1.5224,-1.5117,-1.4823,-1.4676,-1.4676,-1.4489,-1.4402,-1.4402,-1.4402,-1.4663,-1.5117,-1.5117,-1.5391,-1.5832,-1.5832,-1.5832,-1.5832,-1.5832,-1.6292,-1.7037,-1.7505,-1.868,-2.0124,-2.1025,-2.1845,-2.2492,-2.296,-2.3135,-2.3222,-2.3963,-2.4457,-2.5115,-2.6521,-2.7755,-2.8805,-2.9775,-3.0512,-3.136,-3.2349,-3.3502,-3.4562,-3.5308,-3.6088,-3.6895,-3.7973,-3.8522,-3.8751,-3.8751,-3.9158,-3.9543,-3.9612,-4.0055,-4.0779,-4.1866,-4.2226,-4.2791,-4.3662,-4.3541,-4.3115,-4.2354,-4.1863,-4.1153,-4.0138,-4.007,-4.007,-4.007,-4.007,-3.9952,-3.9662,-3.9952,-3.9332,-3.7822,-3.8778,-3.8596,-3.7397,-3.7889,-3.7424,-0.4674,0.0,0.0,0.0,0.0,0.0,0.0,0.0,0.0,0.0,0.0,0.0,0.0,0.0,0.0,0.0,0.0,0.0,0.0,0.0,0.0,0.0,0.0,0.0,0.0,0.0,0.0,0.0,0.0,0.0,-1.1196,-1.2381,-1.367,-1.4963,-1.4776,-1.4669,-1.4669,-1.4282,-1.4128,-1.4222,-1.4028,-1.3988,-1.4088,-1.4088,-1.4355,-1.4816,-1.4816,-1.5197,-1.5832,-1.5832,-1.5832,-1.5832,-1.5832,-1.6574,-1.7785,-1.8141,-1.9579,-2.1382,-2.1756,-2.2403,-2.3135,-2.3135,-2.3135,-2.3299,-2.4457,-2.5041,-2.5786,-2.7591,-2.8599,-2.9382,-3.0161,-3.0947,-3.1821,-3.2508,-3.3991,-3.5268,-3.5679,-3.6093,-3.6728,-3.7834,-3.8063,-3.8132,-3.8447,-3.8907,-3.9435,-4.0031,-4.0594,-4.1399,-4.2758,-4.2944,-4.3157,-4.377,-4.3352,-4.2726,-4.1982,-4.1474,-4.0882,-4.0121,-4.007,-4.007,-4.007,-4.007,-4.007,-4.007,-4.007,-3.9627,-3.8541,-3.9627,-3.9454,-3.8189,-3.869,-3.823,0.0,0.0,0.0,0.0,0.0,0.0,0.0,0.0,0.0,0.0,0.0,0.0,0.0,0.0,0.0,0.0,0.0,0.0,0.0,0.0,0.0,0.0,0.0,0.0,0.0,0.0,0.0,0.0,-0.8776,-1.0062,-1.1253,-1.253,-1.3718,-1.491,-1.4355,-1.4062,-1.4062,-1.3494,-1.3353,-1.3627,-1.3627,-1.3788,-1.4075,-1.4075,-1.4242,-1.4522,-1.4522,-1.501,-1.5805,-1.5812,-1.5818,-1.5832,-1.5832,-1.6574,-1.787,-1.9047,-2.0305,-2.148,-2.2677,-2.3135,-2.3135,-2.3135,-2.3135,-2.3299,-2.4457,-2.563,-2.6719,-2.7855,-2.8937,-2.9792,-2.9792,-3.0907,-3.2106,-3.253,-3.3804,-3.4987,-3.5428,-3.6477,-3.736,-3.7375,-3.7375,-3.7632,-3.8465,-3.8596,-3.9136,-4.0657,-4.0926,-4.1252,-4.216,-4.2202,-4.2211,-4.2334,-4.2286,-4.1965,-4.1271,-4.1187,-4.0849,-4.0121,-4.007,-4.007,-4.007,-4.007,-4.007,-4.007,-4.007,-4.007,-4.007,-4.007,-3.9731,-3.8908,-3.8908,-3.8525,-0.5109,0.0,0.0,0.0,0.0,0.0,0.0,0.0,0.0,0.0,0.0,0.0,0.0,0.0,0.0,0.0,0.0,0.0,0.0,0.0,0.0,0.0,0.0,0.0,0.0,0.0,0.0,0.0,-0.9268,-1.0454,-1.0489,-1.2194,-1.3359,-1.3694,-1.354,-1.3454,-1.3454,-1.3293,-1.3253,-1.3327,-1.3327,-1.348,-1.3768,-1.3768,-1.4041,-1.4522,-1.4522,-1.4776,-1.5217,-1.5431,-1.5638,-1.5832,-1.5832,-1.7117,-1.9039,-1.9405,-2.0854,-2.2677,-2.296,-2.3135,-2.3135,-2.3135,-2.3135,-2.3474,-2.5473,-2.6224,-2.6894,-2.8791,-2.9546,-2.9792,-2.9792,-3.0907,-3.2106,-3.253,-3.3804,-3.4987,-3.5428,-3.5789,-3.6178,-3.6641,-3.7203,-3.7612,-3.7853,-3.8801,-3.9891,-4.0949,-4.1097,-4.181,-4.3675,-4.2975,-4.2492,-4.301,-4.2151,-4.1424,-4.1221,-4.0696,-4.0307,-4.0087,-4.007,-4.007,-4.007,-4.007,-4.007,-4.007,-4.007,-4.007,-4.007,-4.007,-4.002,-3.9782,-3.9139,-3.8799,0.0,0.0,0.0,0.0,0.0,0.0,-0.7351,-0.7586,0.0,0.0,0.0,0.0,0.0,0.0,0.0,0.0,0.0,0.0,0.0,0.0,0.0,0.0,0.0,0.0,0.0,-0.699,-0.693,-0.6936,-0.8275,-0.9402,-1.0068,-1.2067,-1.3213,-1.3213,-1.3086,-1.3019,-1.3019,-1.2893,-1.2893,-1.3019,-1.3019,-1.324,-1.3641,-1.3514,-1.3714,-1.4155,-1.4155,-1.4322,-1.4623,-1.491,-1.5271,-1.5645,-1.6185,-1.7627,-1.9579,-2.0034,-2.1489,-2.3135,-2.3135,-2.3135,-2.3135,-2.3135,-2.3377,-2.4135,-2.5975,-2.6801,-2.7545,-2.9287,-2.9792,-2.9856,-3.0279,-3.1294,-3.238,-3.3044,-3.4192,-3.5242,-3.5448,-3.5504,-3.5624,-3.6013,-3.6697,-3.7328,-3.7635,-3.8673,-3.9853,-4.1033,-4.1194,-4.1897,-4.3842,-4.3047,-4.2455,-4.2912,-4.1897,-4.1085,-4.0764,-4.0341,-4.007,-4.007,-4.007,-4.007,-4.007,-4.007,-4.007,-4.007,-4.007,-4.0121,-4.0104,-4.0104,-4.0307,-4.0729,-4.0244,-3.9984,0.0,0.0,0.0,0.0,0.0,0.0,-0.9779,-1.0621,-1.0604,0.0,0.0,0.0,0.0,0.0,0.0,0.0,0.0,0.0,0.0,0.0,0.0,0.0,0.0,0.0,-0.7008,-0.6819,-0.6651,-0.6737,-0.6912,-0.7975,-1.016,-1.2074,-1.3106,-1.3106,-1.2839,-1.2775,-1.2775,-1.2438,-1.2438,-1.2775,-1.2775,-1.2993,-1.3534,-1.3273,-1.332,-1.3594,-1.3594,-1.3761,-1.4055,-1.4315,-1.479,-1.5443,-1.6708,-1.8151,-1.962,-2.0828,-2.2031,-2.3135,-2.3135,-2.3222,-2.3309,-2.3309,-2.4049,-2.521,-2.6295,-2.736,-2.8335,-2.9599,-2.9934,-3.0139,-3.1106,-3.2033,-3.2961,-3.3808,-3.4758,-3.5504,-3.5619,-3.5619,-3.5683,-3.5733,-3.629,-3.6995,-3.7918,-3.859,-3.9528,-4.1083,-4.1187,-4.161,-4.3098,-4.2557,-4.2083,-4.2168,-4.1525,-4.0798,-4.0138,-4.007,-4.007,-4.007,-4.007,-4.007,-4.007,-4.007,-4.007,-4.007,-4.007,-4.007,-4.0083,-4.0219,-4.0776,-4.1671,-4.1758,-4.1659,0.0,0.0,0.0,0.0,0.0,0.0,-0.9814,-1.0568,-1.0604,0.0,0.0,0.0,0.0,0.0,0.0,0.0,0.0,0.0,0.0,0.0,0.0,0.0,0.0,0.0,-0.6441,-0.6428,-0.6346,-0.6428,-0.7529,-0.9434,-1.2161,-1.2424,-1.2478,-1.2478,-1.2418,-1.2385,-1.2385,-1.2331,-1.2331,-1.2385,-1.2385,-1.2572,-1.2919,-1.2866,-1.3006,-1.3293,-1.3293,-1.346,-1.3734,-1.3788,-1.4302,-1.5251,-1.6621,-1.801,-1.9368,-2.082,-2.2031,-2.3135,-2.3135,-2.3714,-2.4457,-2.4457,-2.5221,-2.6389,-2.7441,-2.7924,-2.8481,-3.0355,-3.0895,-3.1106,-3.2105,-3.3031,-3.3739,-3.3959,-3.4758,-3.5668,-3.6275,-3.6384,-3.6569,-3.7235,-3.7456,-3.7982,-3.942,-3.9784,-4.0356,-4.188,-4.1068,-4.0832,-4.232,-4.1339,-4.0747,-4.1356,-4.0747,-4.024,-4.0087,-4.007,-4.007,-4.007,-4.007,-4.007,-4.007,-4.007,-4.007,-4.007,-4.007,-4.007,-4.0083,-4.0927,-4.1623,-4.2185,-4.263,-4.2802,0.0,0.0,0.0,-0.5768,0.0,0.0,0.0,-1.0625,-1.0411,0.0,0.0,0.0,0.0,0.0,0.0,0.0,0.0,0.0,0.0,0.0,0.0,0.0,0.0,0.0,-0.5891,-0.5874,-0.5949,-0.6311,-0.7005,-0.8663,-1.1459,-1.2058,-1.2317,-1.2298,-1.2164,-1.2151,-1.2305,-1.2158,-1.2158,-1.2305,-1.2305,-1.2458,-1.2815,-1.2667,-1.2692,-1.2979,-1.2979,-1.3153,-1.3434,-1.4135,-1.4795,-1.549,-1.7255,-1.8346,-1.9356,-2.1432,-2.2589,-2.3135,-2.3135,-2.3887,-2.4787,-2.4787,-2.5953,-2.7371,-2.7924,-2.8518,-2.9238,-3.0807,-3.118,-3.1536,-3.2961,-3.3671,-3.4095,-3.461,-3.5133,-3.5733,-3.6446,-3.6615,-3.6964,-3.8133,-3.8358,-3.8583,-3.9347,-3.9862,-4.0324,-4.1068,-4.0544,-4.0476,-4.161,-4.0764,-4.0358,-4.1119,-4.0527,-4.007,-4.007,-4.007,-4.0204,-4.0497,-4.0497,-4.0497,-4.0497,-4.0497,-4.0368,-4.0138,-4.007,-4.012,-4.0083,-4.1328,-4.2466,-4.3464,-4.3722,-4.3824,0.0,0.0,0.0,0.0,0.0,-0.6633,0.0,0.0,0.0,0.0,0.0,0.0,0.0,0.0,0.0,0.0,0.0,0.0,0.0,0.0,0.0,0.0,0.0,0.0,0.0,-0.5399,-0.559,-0.6072,-0.6772,-0.8056,-1.0248,-1.1514,-1.2209,-1.2204,-1.1911,-1.1924,-1.2218,-1.1984,-1.2011,-1.2305,-1.2305,-1.2425,-1.2652,-1.2412,-1.2432,-1.2735,-1.2735,-1.2986,-1.3526,-1.4677,-1.5468,-1.607,-1.8019,-1.8921,-1.9495,-2.1938,-2.29,-2.29,-2.3054,-2.387,-2.487,-2.5206,-2.6687,-2.8426,-2.8639,-2.9303,-3.0279,-3.1389,-3.1742,-3.2105,-3.3822,-3.4312,-3.4461,-3.5294,-3.5619,-3.5894,-3.6676,-3.6964,-3.7467,-3.8854,-3.9139,-3.9189,-3.9322,-3.9763,-4.0121,-4.0273,-4.0172,-4.0307,-4.0916,-4.046,-4.0307,-4.0916,-4.0443,-4.007,-4.007,-4.0204,-4.0449,-4.0856,-4.0995,-4.1041,-4.0903,-4.0827,-4.0528,-4.0121,-4.0087,-4.0237,-4.0542,-4.1429,-4.253,-4.3728,-4.4313,-4.4589,0.0,0.0,0.0,0.0,-0.6608,0.0,0.0,0.0,0.0,0.0,0.0,0.0,0.0,0.0,0.0,0.0,0.0,0.0,0.0,0.0,0.0,0.0,0.0,0.0,0.0,-0.5434,-0.5408,-0.5477,-0.8344,-1.0206,-1.0533,-1.1303,-1.1806,-1.1764,-1.1572,-1.1617,-1.1917,-1.1891,-1.2011,-1.2305,-1.2305,-1.2318,-1.2351,-1.2318,-1.2318,-1.2351,-1.2351,-1.3035,-1.4101,-1.4642,-1.5506,-1.6746,-1.8714,-1.9551,-1.9723,-2.1432,-2.2031,-2.2188,-2.3023,-2.4041,-2.5228,-2.6526,-2.8222,-2.9754,-3.0594,-3.0957,-3.1389,-3.3171,-3.3671,-3.3959,-3.5052,-3.5359,-3.5359,-3.5439,-3.6006,-3.6676,-3.7515,-3.8189,-3.8908,-3.9782,-3.9952,-4.0172,-4.0847,-4.0459,-4.0307,-4.0984,-4.051,-4.0104,-4.0189,-4.0121,-4.0104,-4.0206,-4.0121,-4.007,-4.007,-4.0546,-4.0827,-4.0903,-4.1402,-4.1446,-4.0903,-4.0449,-4.0171,-4.007,-4.0104,-4.0731,-4.2056,-4.0931,-4.0464,-4.0712,-4.3373,-4.4609,0.0,0.0,0.0,0.0,0.0,0.0,-1.1396,0.0,-1.0126,0.0,0.0,0.0,0.0,0.0,0.0,0.0,-0.7158,0.0,0.0,0.0,0.0,0.0,0.0,0.0,0.0,0.0,0.0,0.0,-0.9765,-1.0629,-1.0625,-1.0894,-1.1175,-1.1348,-1.1263,-1.1316,-1.161,-1.1443,-1.1597,-1.2051,-1.2051,-1.2138,-1.2305,-1.2305,-1.2305,-1.2305,-1.2879,-1.3498,-1.4321,-1.565,-1.6724,-1.7752,-1.9201,-1.9696,-1.9752,-2.1288,-2.1885,-2.204,-2.294,-2.4039,-2.5394,-2.7541,-2.8684,-2.9479,-3.079,-3.118,-3.1609,-3.3449,-3.4027,-3.4245,-3.5213,-3.5504,-3.5619,-3.6054,-3.6384,-3.6964,-3.8173,-3.869,-3.9139,-3.9952,-4.007,-4.0172,-4.0493,-4.029,-4.0189,-4.051,-4.029,-4.007,-4.007,-4.007,-4.007,-4.007,-4.0368,-4.0577,-4.0577,-4.1087,-4.1578,-4.1937,-4.2072,-4.2033,-4.1771,-4.0697,-4.0477,-4.1359,-4.1121,-4.1426,-4.2291,-4.1671,-4.1833,-4.2766,-4.3999,-4.4597,-0.6278,0.0,0.0,0.0,0.0,0.0,0.0,0.0,0.0,0.0,0.0,0.0,0.0,0.0,0.0,0.0,0.0,0.0,0.0,0.0,0.0,0.0,0.0,0.0,0.0,0.0,0.0,-0.9009,-1.0059,-1.0573,-1.0575,-1.0581,-1.0679,-1.0955,-1.091,-1.1015,-1.1303,-1.1096,-1.1289,-1.187,-1.187,-1.2024,-1.2305,-1.2305,-1.2305,-1.2378,-1.331,-1.4026,-1.4622,-1.6477,-1.7733,-1.8674,-1.9553,-1.9888,-1.9993,-2.1144,-2.1676,-2.206,-2.3035,-2.436,-2.5966,-2.8052,-2.8949,-2.9599,-3.1143,-3.1635,-3.2116,-3.3916,-3.4263,-3.4376,-3.5234,-3.5668,-3.5958,-3.6508,-3.6888,-3.7526,-3.8674,-3.9086,-3.9368,-4.002,-4.007,-4.007,-4.007,-4.007,-4.007,-4.007,-4.007,-4.007,-4.007,-4.007,-4.007,-4.007,-4.0577,-4.0903,-4.0903,-4.1621,-4.2284,-4.2902,-4.2638,-4.2341,-4.2065,-4.1069,-4.0899,-4.1682,-4.1647,-4.1919,-4.2568,-4.2368,-4.3081,-4.4602,-4.4593,-4.4618,0.0,0.0,0.0,-0.7057,0.0,0.0,0.0,0.0,-0.6984,0.0,0.0,0.0,0.0,0.0,0.0,0.0,0.0,0.0,0.0,0.0,0.0,0.0,0.0,0.0,0.0,0.0,0.0,-0.5564,-0.8714,-1.0622,-1.0624,-1.0575,-1.0575,-1.0588,-1.0638,-1.0715,-1.1002,-1.0995,-1.1289,-1.187,-1.187,-1.2024,-1.2305,-1.2305,-1.2305,-1.2378,-1.331,-1.425,-1.5275,-1.666,-1.8015,-1.9346,-1.9756,-2.0185,-2.0586,-2.0596,-2.1195,-2.2155,-2.3117,-2.5144,-2.7322,-2.7946,-2.9134,-3.0599,-3.2072,-3.2778,-3.3359,-3.497,-3.4946,-3.4651,-3.5325,-3.6054,-3.6554,-3.66,-3.7758,-3.8854,-3.8908,-3.9489,-4.007,-4.007,-4.007,-4.007,-4.007,-4.007,-4.007,-4.007,-4.007,-4.007,-4.007,-4.007,-4.007,-4.007,-4.0577,-4.0903,-4.0903,-4.1979,-4.2902,-4.3444,-4.2976,-4.2257,-4.1266,-4.1453,-4.1143,-4.0206,-4.1086,-4.2142,-4.3242,-4.2637,-4.3113,-4.4578,-4.4593,-4.457,0.0,0.0,-0.7131,-0.7118,0.0,0.0,0.0,0.0,0.0,0.0,0.0,0.0,0.0,0.0,0.0,0.0,0.0,0.0,0.0,0.0,0.0,0.0,0.0,0.0,0.0,0.0,0.0,-0.4835,-0.8388,-1.0611,-1.0624,-1.0624,-1.0624,-1.0624,-1.0624,-1.0672,-1.0701,-1.0895,-1.1189,-1.1577,-1.1777,-1.2024,-1.2305,-1.2305,-1.2659,-1.331,-1.4243,-1.5226,-1.6228,-1.7297,-1.835,-1.9297,-1.9443,-2.0362,-2.1517,-2.1517,-2.1735,-2.2253,-2.3891,-2.5479,-2.6955,-2.8022,-2.8726,-2.9531,-3.1632,-3.2668,-3.331,-3.4486,-3.4981,-3.5319,-3.6056,-3.6384,-3.6843,-3.7873,-3.8509,-3.9032,-3.961,-3.9901,-4.007,-4.007,-4.007,-4.007,-4.007,-4.0417,-4.0607,-4.0607,-4.0607,-4.0797,-4.115,-4.1258,-4.1258,-4.1258,-4.1725,-4.208,-4.208,-4.279,-4.3304,-4.3497,-4.3341,-4.309,-4.2749,-4.1832,-4.1825,-4.2785,-4.2752,-4.3421,-4.4749,-4.4948,-4.489,-4.4611,-4.4605,-4.4578,-0.6968,-0.7299,0.0,-0.7453,-0.6987,0.0,-0.6316,0.0,0.0,0.0,0.0,0.0,0.0,0.0,0.0,0.0,0.0,0.0,0.0,-0.5325,0.0,0.0,0.0,0.0,0.0,0.0,-0.5754,-0.6582,-0.9082,-1.0611,0.0,0.0,-1.0624,-1.0624,-1.0624,-1.0624,-1.0624,-1.0848,-1.1136,-1.143,-1.173,-1.2233,-1.2806,-1.2806,-1.331,-1.4307,-1.5296,-1.607,-1.6645,-1.7732,-1.8652,-1.937,-1.9882,-2.0872,-2.2027,-2.2027,-2.2478,-2.3294,-2.4992,-2.6139,-2.713,-2.8179,-2.8933,-2.9772,-3.1539,-3.2492,-3.3138,-3.4542,-3.5031,-3.543,-3.6378,-3.6825,-3.7275,-3.8243,-3.8705,-3.912,-3.9902,-4.007,-4.007,-4.007,-4.007,-4.007,-4.007,-4.0528,-4.0903,-4.0903,-4.1087,-4.1358,-4.175,-4.181,-4.181,-4.181,-4.2342,-4.2788,-4.2976,-4.3286,-4.341,-4.3214,-4.3378,-4.3337,-4.2893,-4.2176,-4.2544,-4.4178,-4.3349,-4.3955,-4.6209,-4.6136,-4.6028,-4.5924,-4.5924,-4.5917]}]]